GFSWCAN_850_spd_000.txt.gz
Wind_Speed
33 29 25 23 20 18 17 16 14 14 12 11 13 12 9 6 5 5 5 4 3 5 7 4 4 5 5 5 5 7 5 1 2 3 3 3 3 4 2 4 5 6 6 4 3 2 7 3 1 3 4 5 7 9
33 31 27 24 20 19 17 16 14 13 13 11 11 14 12 9 7 7 5 5 7 4 6 7 9 8 5 5 7 9 2 3 5 4 2 3 2 1 4 3 1 3 5 5 7 5 2 7 9 10 7 5 1 4
30 34 30 25 21 19 18 17 15 12 12 10 10 11 12 12 7 8 5 7 7 6 7 6 5 5 5 4 6 5 3 4 4 4 5 2 2 3 4 4 2 2 3 2 1 1 6 9 10 3 2 1 4 4
33 37 32 25 23 21 20 19 17 14 12 11 10 10 12 13 8 8 9 8 7 6 4 2 5 4 5 6 4 3 6 9 11 5 4 2 2 5 3 2 3 6 2 2 3 6 1 12 2 3 4 6 7 7
36 38 33 27 24 23 22 20 18 15 13 11 10 10 11 12 12 9 9 9 9 3 4 5 6 4 3 6 8 7 11 11 6 4 3 1 1 3 2 2 4 7 6 4 4 4 3 3 6 8 7 7 8 11
37 38 34 30 26 25 24 22 19 17 14 12 12 12 9 10 11 9 3 7 8 6 4 2 2 3 4 6 9 9 7 6 5 5 3 2 1 1 2 3 8 10 7 9 5 6 8 6 2 4 7 12 15 14
34 42 36 33 28 28 26 24 21 19 17 15 13 14 13 14 14 7 4 5 14 11 3 2 2 4 12 12 9 9 8 4 4 5 3 3 1 2 2 4 8 5 8 6 6 4 3 3 8 13 14 14 13 13
18 29 35 34 30 29 27 25 23 21 20 18 18 16 15 15 13 4 4 8 14 5 3 3 1 3 8 3 4 4 4 4 4 4 4 3 2 1 4 6 5 5 2 6 7 6 4 8 13 15 14 12 12 11
20 14 19 27 31 30 28 27 25 24 24 23 22 18 17 14 8 7 8 13 14 3 5 3 4 3 8 4 4 3 3 2 2 1 2 6 3 6 5 5 9 9 6 3 7 10 12 15 10 11 14 14 11 9
7 16 17 21 26 28 27 25 27 28 31 30 27 8 7 11 9 12 5 5 4 2 3 2 5 2 6 3 3 4 2 1 2 1 7 2 4 16 17 12 10 10 9 10 12 14 8 9 12 14 13 11 9 7
10 3 14 14 18 27 28 28 31 37 35 33 10 5 17 20 9 4 3 3 3 1 6 5 8 4 4 3 3 2 2 1 2 3 2 2 3 3 4 7 10 11 8 6 3 4 7 12 13 12 11 8 7 9
6 3 4 10 16 16 25 29 36 40 28 17 12 23 20 6 4 4 4 2 3 6 6 5 6 7 6 4 4 3 3 1 4 4 2 3 3 4 4 6 7 5 3 1 5 11 14 14 13 11 9 9 8 9
2 2 3 8 14 21 21 27 35 22 27 26 7 8 7 4 3 8 9 5 4 7 11 10 5 7 5 4 5 2 3 2 10 2 3 4 7 3 4 3 2 1 1 4 10 15 17 16 13 11 10 9 9 10
4 2 4 4 10 20 22 25 28 28 13 6 7 6 6 5 6 5 5 4 6 13 24 21 7 4 4 3 3 4 2 4 3 3 5 3 3 2 3 1 4 6 6 8 14 17 18 16 14 13 11 10 11 11
4 5 3 6 6 10 22 21 18 25 6 5 6 6 7 5 2 6 8 12 9 28 27 14 8 4 2 3 2 3 3 4 6 4 3 6 10 10 3 4 9 12 13 13 15 17 19 18 17 15 14 13 13 13
7 6 6 4 8 8 9 16 17 16 4 6 4 3 7 6 3 7 9 10 24 31 20 7 4 4 3 4 3 4 7 5 3 3 10 14 9 8 6 9 12 15 17 16 16 18 19 20 18 15 14 16 16 16
10 7 6 7 8 9 12 10 11 6 6 6 3 5 8 7 8 9 15 17 31 20 3 4 5 5 3 3 3 3 4 3 9 12 12 11 7 9 12 13 13 14 16 18 17 18 21 19 17 17 17 15 16 17
13 8 9 7 7 8 6 7 3 5 3 2 3 9 7 10 18 14 11 28 16 6 10 5 7 3 5 5 3 4 14 11 8 7 9 9 14 15 17 18 18 15 17 17 17 19 20 18 17 16 14 15 17 17
10 9 9 12 10 6 3 4 1 2 2 6 4 13 6 16 13 15 18 27 9 9 12 4 4 2 3 5 6 8 11 9 11 12 13 18 21 19 20 21 18 17 16 17 19 17 14 13 13 14 15 15 15 15
8 10 14 7 11 5 2 2 6 3 0 3 9 8 7 7 11 12 18 22 12 8 3 2 4 6 9 9 7 5 6 11 17 20 23 24 22 22 19 16 16 16 16 17 15 12 11 11 12 12 12 12 13 13
8 11 12 13 12 10 1 4 4 3 4 4 12 6 6 10 5 5 6 16 5 5 3 11 16 16 14 13 14 17 19 19 18 17 19 22 19 16 15 15 15 15 16 14 12 11 10 9 9 10 10 10 12 14
7 8 4 6 1 6 2 2 6 7 4 4 5 5 7 3 5 6 8 5 5 7 10 11 16 14 14 16 17 16 15 17 18 19 17 17 17 18 16 14 14 15 16 14 11 9 9 9 8 8 9 11 14 16
6 3 1 2 2 2 2 7 4 3 3 4 6 3 1 2 4 10 2 5 6 9 15 18 19 18 17 17 17 16 16 16 17 16 14 15 14 13 12 12 14 12 10 8 7 6 7 7 8 8 11 13 15 17
6 3 2 2 3 2 2 3 3 3 3 2 3 3 2 3 6 2 2 4 6 7 8 11 14 15 15 15 14 14 14 13 11 9 9 10 10 11 11 9 7 7 6 6 6 6 6 7 8 10 12 14 16 19
3 0 1 1 2 2 2 2 2 2 2 2 3 2 2 3 2 3 3 4 7 11 11 9 9 9 10 11 10 8 7 6 6 6 6 8 9 9 8 8 7 7 7 6 6 5 6 7 8 10 13 16 18 19
2 3 5 5 2 4 4 4 4 3 3 2 1 4 3 2 2 5 3 4 6 7 6 6 5 5 4 5 6 6 6 7 7 6 6 7 7 6 7 7 8 8 7 6 5 5 6 8 10 13 14 15 17 19
3 4 5 4 5 6 2 2 3 3 3 4 4 3 3 3 5 3 3 5 4 3 3 1 2 4 6 6 6 6 6 5 5 6 5 7 8 8 6 5 7 5 6 5 4 5 7 10 12 14 15 16 16 19
4 9 6 8 3 3 4 2 3 5 3 5 7 3 7 7 4 4 4 6 5 3 1 4 6 6 6 5 4 3 2 3 5 8 8 9 9 8 7 6 5 4 4 4 5 7 10 12 14 15 16 18 18 19
4 8 10 5 2 2 5 6 6 7 8 14 5 5 4 5 5 7 7 6 5 4 4 4 4 5 4 2 3 4 6 8 11 11 9 9 9 7 6 4 2 2 3 5 7 9 10 13 15 16 17 18 20 21
6 16 5 3 6 6 7 10 4 8 10 9 5 4 4 5 6 7 6 6 5 5 5 4 3 4 3 5 7 9 9 8 7 6 5 7 6 6 5 3 2 4 5 6 7 8 10 12 13 14 15 17 20 22
9 14 4 5 4 4 7 10 8 8 7 8 9 6 4 4 5 8 9 9 8 7 6 7 7 8 8 9 9 8 8 7 6 6 5 5 5 4 3 2 3 5 6 7 8 10 11 13 15 16 18 19 20 23
8 8 5 3 2 5 7 7 5 5 4 5 5 6 5 5 4 3 4 7 7 8 8 9 9 10 10 10 9 9 6 7 6 5 4 3 2 2 3 3 3 5 7 9 11 12 14 15 17 18 20 21 22 24
4 4 4 5 4 4 6 6 4 2 2 2 2 3 5 5 3 5 6 8 9 9 9 10 10 10 10 9 7 7 8 7 6 6 3 1 3 4 4 4 6 7 8 10 13 14 16 16 17 18 19 21 23 24

GFSWCAN_850_spd_003.txt.gz
Wind_Speed
31 32 18 27 28 24 22 21 18 17 16 14 14 14 12 10 8 8 7 5 4 3 5 3 3 4 6 4 4 8 5 1 3 3 3 3 3 4 3 5 6 6 6 4 3 2 6 0 3 5 6 10 10 5
25 33 23 23 29 23 22 21 19 18 17 15 14 14 13 11 9 8 9 8 8 4 5 8 9 7 5 4 8 10 2 3 6 4 1 3 2 1 3 3 1 3 5 5 6 4 1 4 10 14 10 11 4 1
22 30 28 20 31 23 21 20 20 18 18 16 15 13 14 13 10 9 10 12 9 7 7 6 5 5 6 5 5 5 4 5 5 5 5 3 3 3 4 4 2 1 3 3 3 2 3 11 11 7 5 4 3 4
26 26 32 22 33 24 20 20 20 19 18 17 15 14 13 13 11 10 10 11 7 7 5 2 5 4 3 3 2 1 6 10 12 6 3 2 3 3 3 2 3 3 5 4 1 2 3 9 4 6 8 7 6 5
29 24 30 26 32 26 20 21 21 20 19 17 15 14 13 14 11 10 10 9 9 4 4 4 6 5 3 5 4 7 11 12 5 4 3 2 3 3 2 2 3 6 6 4 5 9 5 8 6 5 6 3 3 7
35 22 28 32 34 27 20 23 24 22 20 17 15 14 13 15 15 13 5 8 10 11 6 2 2 3 6 8 9 10 10 7 6 4 3 3 3 2 3 1 5 6 4 3 5 12 7 5 7 4 2 5 8 11
35 7 29 34 35 30 22 25 25 23 22 19 18 16 14 16 18 8 3 7 14 9 4 3 2 2 10 8 7 9 8 7 5 4 2 3 3 2 3 4 5 2 7 5 6 8 7 10 4 3 6 8 11 13
28 11 21 32 33 32 26 28 28 26 23 21 19 18 17 16 14 7 4 11 14 8 4 3 1 1 2 3 3 4 4 4 4 3 2 2 3 2 3 6 5 5 7 7 6 4 5 1 5 9 9 11 14 15
28 28 5 27 30 34 30 32 32 30 26 24 23 20 17 13 10 9 12 13 11 5 7 3 4 3 5 3 4 4 3 2 2 1 1 2 1 4 4 6 8 10 3 4 7 5 3 7 8 7 11 14 17 15
28 20 15 8 18 32 35 36 36 34 31 29 28 9 8 12 16 15 6 3 3 1 3 2 7 3 5 3 3 3 4 2 1 0 3 1 3 12 12 8 4 7 9 5 3 7 9 5 7 11 14 14 14 12
22 27 5 17 24 21 32 36 39 40 38 30 10 5 21 24 8 3 4 3 3 1 5 5 6 5 3 3 3 2 2 1 2 2 2 2 3 4 5 8 16 17 13 9 4 3 2 9 12 14 14 13 13 12
21 19 18 6 17 36 27 33 41 43 29 21 14 21 20 5 4 4 3 2 3 5 6 5 7 9 6 5 4 1 2 1 4 4 2 3 4 5 2 10 13 13 13 10 5 5 9 11 13 15 15 14 13 12
19 16 14 10 13 21 39 28 40 11 26 32 9 8 7 4 3 9 9 5 4 7 13 11 6 8 6 5 5 2 4 3 9 2 3 4 3 3 10 10 11 10 8 6 2 6 12 14 16 16 16 14 14 14
14 15 11 11 4 15 20 31 40 23 17 5 6 6 5 5 6 5 5 5 7 13 25 23 7 4 5 3 3 4 2 4 3 2 5 3 8 11 13 10 6 3 4 7 8 9 11 16 18 19 18 16 15 15
10 12 10 8 7 2 17 22 26 23 6 6 6 6 7 3 3 4 9 12 11 29 30 16 8 5 2 4 2 4 4 4 6 5 3 9 18 18 12 6 3 4 8 11 13 15 15 18 19 21 19 16 15 15
7 8 7 7 4 4 1 18 7 13 4 5 4 4 4 4 2 5 7 11 23 31 26 8 4 3 2 4 5 6 7 6 4 3 13 20 19 12 3 6 6 6 10 12 15 16 19 19 20 21 20 18 17 16
6 3 4 5 5 5 1 2 6 3 4 4 2 5 9 4 8 9 12 15 32 27 3 3 5 6 4 2 2 3 5 4 7 14 20 19 10 6 6 8 8 9 11 14 14 17 19 19 21 23 21 17 15 15
7 4 4 7 6 5 2 4 4 5 4 4 3 7 9 3 16 15 13 30 19 14 9 5 8 4 5 7 3 3 7 5 9 13 15 15 12 10 9 11 10 12 15 15 16 17 17 20 23 20 15 13 14 14
5 6 7 8 6 2 3 2 2 1 2 5 8 10 7 9 10 15 26 28 17 9 15 3 4 3 3 4 4 6 6 7 8 9 9 7 8 9 9 10 13 14 13 15 15 15 16 18 16 14 12 12 13 13
3 4 7 9 4 4 2 1 3 1 0 2 7 9 9 8 14 22 28 18 15 7 3 2 3 4 6 8 9 9 6 2 3 7 12 11 9 11 12 12 11 12 13 14 14 14 15 13 11 11 11 11 10 10
3 5 8 9 5 3 2 1 1 2 4 4 10 7 7 11 11 12 10 12 4 3 1 4 3 5 4 4 3 4 5 6 7 8 9 13 12 11 10 10 11 13 13 12 13 12 12 11 10 9 9 8 8 9
3 3 4 2 2 3 1 1 2 2 3 4 4 5 6 3 4 5 12 3 4 4 4 2 2 3 2 3 4 5 6 7 8 9 9 10 11 11 11 10 9 10 11 12 12 9 8 8 7 6 6 7 9 11
2 2 3 4 2 2 1 3 3 4 2 1 2 3 2 2 4 9 3 4 5 8 9 9 9 10 7 5 5 6 7 8 9 10 10 10 10 10 9 9 9 11 11 8 7 7 7 6 4 5 7 9 11 13
4 2 2 3 6 2 3 3 4 3 3 3 2 3 3 3 7 2 2 3 5 7 7 7 7 4 4 3 4 5 6 6 5 5 5 6 7 8 8 8 8 7 6 5 6 6 5 4 4 6 9 12 14 16
2 3 2 3 3 3 4 3 3 3 2 1 2 2 1 1 2 1 2 3 7 7 6 4 2 2 1 1 0 1 2 3 3 3 4 5 6 7 6 5 4 5 5 5 5 4 3 4 6 8 11 14 16 17
2 1 2 3 1 3 0 2 1 2 2 2 2 2 1 2 2 3 3 1 2 3 4 4 3 2 3 2 1 3 4 5 5 5 4 5 5 5 4 5 6 7 6 5 4 3 4 6 7 10 12 13 14 16
2 3 3 3 4 6 3 3 3 2 2 3 3 2 2 2 4 3 2 3 3 4 3 3 3 2 2 3 3 4 5 5 4 5 5 5 5 5 6 4 5 4 4 3 3 4 6 8 10 11 12 13 14 16
2 8 6 9 3 2 4 2 3 5 3 4 6 2 6 6 4 4 4 6 7 7 5 2 1 2 3 4 3 3 2 1 3 4 5 7 7 7 6 5 4 3 2 3 4 6 8 9 10 12 13 15 16 17
4 6 8 5 2 2 5 5 5 6 8 12 5 3 3 4 7 7 8 8 5 3 3 2 3 4 4 3 1 2 4 6 7 8 8 9 9 7 5 4 3 2 3 4 6 7 9 11 13 15 16 18 20 21
4 14 5 4 5 5 5 8 2 8 10 8 5 4 4 4 5 6 7 8 8 7 6 5 6 5 3 2 3 5 7 8 8 5 5 6 5 3 4 3 3 3 4 5 6 7 9 11 12 14 15 17 19 21
8 13 3 5 4 3 6 9 7 6 6 7 8 4 2 3 3 7 9 10 10 9 8 7 7 7 7 6 6 6 6 6 6 5 4 4 4 4 3 3 4 4 5 6 7 9 11 13 15 17 18 19 19 21
8 8 5 3 2 4 7 7 5 4 4 5 4 6 4 5 4 4 6 9 10 9 9 9 8 9 9 9 8 7 5 5 5 5 5 4 4 3 3 3 4 5 7 8 9 11 13 15 16 18 19 20 21 23
3 4 4 5 3 3 6 5 3 2 1 1 1 2 4 4 3 5 5 7 8 8 8 9 9 9 9 9 8 8 7 7 6 4 1 1 1 3 4 3 5 6 7 9 12 14 16 18 18 18 19 20 21 23

GFSWCAN_850_spd_006.txt.gz
Wind_Speed
32 29 26 28 29 16 23 24 24 20 18 18 17 15 14 13 11 10 8 5 4 5 6 3 3 5 5 4 4 9 6 1 2 3 3 3 3 4 3 3 5 6 6 4 3 2 6 4 4 6 5 13 16 12
34 29 28 25 26 21 20 26 22 19 19 19 17 16 16 14 12 10 8 6 7 4 6 11 10 8 6 5 7 10 1 4 6 4 1 3 2 2 3 3 3 1 4 4 6 4 0 3 3 18 17 19 11 7
36 32 30 28 29 20 20 28 22 18 20 20 19 16 16 15 13 12 9 11 8 8 8 6 7 9 8 6 8 4 3 5 4 4 4 2 3 3 4 4 2 1 2 2 3 2 3 14 18 14 13 11 9 6
39 37 33 25 28 27 24 29 21 19 21 21 19 17 16 17 13 14 12 14 6 6 5 2 5 5 4 5 5 3 5 9 10 5 3 2 3 3 3 2 3 3 5 4 1 2 3 8 9 11 11 8 5 3
41 38 34 22 31 23 30 28 23 20 21 21 20 17 15 17 15 14 11 13 10 3 4 5 8 6 4 4 5 7 11 14 6 3 3 2 3 4 2 2 2 5 6 5 5 10 5 10 11 9 8 5 6 4
40 38 41 17 24 21 31 30 23 21 23 22 20 17 16 18 15 14 5 9 10 11 6 2 3 5 9 8 10 10 9 6 5 4 3 4 3 3 3 3 3 9 6 3 2 13 6 16 11 10 9 6 4 3
39 38 44 14 18 24 32 31 24 24 25 23 20 17 18 19 21 6 5 13 15 11 4 3 1 2 9 8 6 7 6 5 4 4 2 4 3 4 2 3 3 8 12 9 10 13 9 13 8 8 4 2 2 6
37 38 39 16 12 30 31 31 27 28 26 24 22 20 19 18 15 7 9 17 14 6 4 3 1 2 3 3 3 3 3 4 6 3 2 1 3 2 3 4 4 6 13 13 14 8 9 12 7 2 1 2 7 10
35 38 38 20 12 34 31 34 32 31 29 28 26 22 19 12 5 8 15 13 8 4 7 3 6 4 5 3 4 3 2 2 2 1 1 2 1 4 5 8 12 12 9 15 15 14 10 5 4 3 3 7 10 12
32 35 34 20 7 27 26 31 35 36 34 34 31 9 7 11 14 16 5 4 3 2 3 3 7 3 4 2 3 2 3 1 2 0 0 2 3 5 9 9 9 13 11 17 14 8 4 7 3 3 6 9 10 11
28 31 28 28 14 10 26 33 41 43 42 33 10 5 23 26 11 3 3 3 1 1 4 5 5 5 3 3 2 1 2 1 2 3 2 2 3 3 8 15 14 15 18 8 7 12 8 4 3 6 8 9 11 11
25 27 26 30 15 6 25 30 44 45 25 22 15 25 19 5 4 4 3 1 3 5 6 5 7 8 6 4 3 1 3 2 2 2 1 3 3 5 2 8 17 22 17 11 13 8 4 3 5 8 10 11 11 12
22 24 26 25 23 9 26 32 45 19 32 33 10 5 8 3 3 8 8 4 2 5 11 11 6 8 6 5 5 3 3 3 4 1 3 4 3 8 11 16 20 21 21 16 10 5 1 3 7 9 10 12 13 12
19 20 23 21 24 18 32 39 28 35 16 6 6 6 5 5 5 4 4 4 6 11 23 22 7 4 5 3 3 4 1 3 4 4 6 3 15 18 18 19 19 17 14 12 9 7 5 6 8 11 13 14 14 13
15 16 19 19 18 19 14 30 31 28 4 4 6 5 5 4 4 4 7 8 8 29 29 15 7 6 2 4 2 4 4 4 6 5 3 13 23 25 21 16 13 10 8 6 6 7 8 10 11 13 14 15 15 13
12 12 13 17 16 16 11 25 29 18 3 3 3 4 7 4 3 6 10 10 23 28 24 6 4 3 2 4 4 6 7 6 4 3 9 26 29 24 18 12 8 5 4 4 6 8 9 10 13 15 16 17 16 14
9 7 12 14 12 11 8 6 6 5 4 4 1 4 8 5 7 8 14 16 29 22 3 2 4 4 3 3 3 4 5 3 5 11 28 32 26 19 12 7 3 3 3 5 8 10 11 13 14 15 17 16 13 10
7 9 10 13 11 8 6 4 3 3 2 3 3 7 7 5 17 17 13 31 22 11 6 3 7 3 4 6 3 3 7 5 16 25 28 22 16 11 5 4 6 8 10 12 13 12 13 14 14 15 16 12 9 8
6 7 9 12 12 6 5 4 3 2 4 4 8 11 6 8 11 18 24 32 25 13 13 4 3 3 3 3 3 8 11 15 21 18 17 11 7 5 8 10 11 12 13 14 13 12 12 12 14 14 10 7 6 6
3 5 8 14 9 4 3 3 2 2 1 2 7 8 7 8 18 20 29 24 19 13 3 2 1 3 4 12 15 18 16 14 12 10 6 5 8 8 8 9 11 12 11 11 11 10 10 11 10 8 6 5 5 4
2 6 8 10 6 2 3 3 3 2 3 4 10 5 6 13 14 17 15 22 7 4 2 4 12 17 17 14 11 9 8 5 3 4 4 4 5 6 8 8 9 9 9 9 8 7 8 8 7 5 4 3 3 4
4 6 6 5 4 3 3 4 3 3 3 3 3 4 6 2 4 5 11 4 6 4 6 11 13 13 12 10 7 5 4 3 3 4 5 6 7 7 7 7 7 6 6 6 7 8 6 4 4 3 2 2 3 6
3 4 4 7 5 5 3 4 3 5 2 2 2 3 2 2 3 8 3 4 5 8 12 11 9 7 6 8 6 4 3 3 4 4 5 6 7 6 5 4 4 5 5 5 4 3 4 4 3 1 1 3 6 9
3 3 4 3 6 3 4 5 4 3 4 3 2 2 3 2 3 4 2 3 5 10 10 7 5 6 8 7 5 4 3 3 3 3 4 4 5 5 4 4 4 4 3 2 3 4 5 4 2 1 4 7 9 11
2 5 4 4 3 3 4 3 3 3 3 2 2 2 2 3 2 2 2 1 6 10 9 6 5 5 7 7 7 6 5 3 3 3 2 3 4 3 3 3 2 3 4 4 6 6 4 2 2 5 7 9 11 12
3 2 2 2 2 3 1 2 3 3 2 2 2 1 2 1 2 1 1 4 6 10 11 11 10 11 12 10 7 4 2 1 1 2 2 2 3 3 3 3 5 7 7 7 5 3 2 2 4 6 8 10 11 13
1 3 1 2 3 4 3 2 3 2 2 2 2 1 1 2 2 1 5 6 7 10 10 10 11 9 6 5 3 1 0 1 2 2 2 3 3 4 5 5 7 7 7 5 3 1 2 4 5 7 8 10 12 14
1 6 5 6 2 1 3 1 2 3 2 3 4 1 4 5 2 5 4 9 11 11 10 9 6 5 4 3 2 1 1 2 3 4 5 6 7 8 7 8 7 7 5 2 1 3 4 5 6 8 10 11 13 15
4 6 8 4 1 1 4 4 4 3 5 9 3 3 2 2 6 7 11 11 10 8 6 5 5 4 4 4 4 4 5 6 7 8 8 11 12 11 10 7 5 3 1 1 2 4 6 7 9 11 13 15 16 17
4 12 4 3 5 5 3 5 2 7 6 5 3 4 4 5 8 7 8 9 8 8 7 5 3 3 3 4 5 7 8 9 9 7 7 9 8 8 6 4 2 1 1 2 3 4 7 9 11 13 15 16 17 18
6 11 3 4 3 2 5 7 6 5 4 4 3 2 3 3 4 5 7 7 7 6 4 3 2 2 3 4 6 7 8 8 7 5 6 7 5 5 4 2 1 1 1 3 5 6 9 11 13 15 16 17 17 18
6 7 4 2 1 4 6 4 4 3 2 3 2 3 3 4 4 3 6 9 11 10 9 7 5 5 7 8 8 7 5 6 6 6 6 6 5 4 3 2 2 2 4 5 6 9 11 14 16 17 18 18 19 20
3 3 3 4 3 3 4 4 2 3 2 2 2 2 3 3 3 3 2 5 6 7 7 8 8 9 9 9 8 8 7 7 7 6 5 4 3 2 2 1 2 4 5 7 10 12 14 17 19 19 19 20 20 21

GFSWCAN_850_spd_009.txt.gz
Wind_Speed
33 34 35 31 29 30 28 23 17 20 21 18 17 17 16 16 15 12 9 9 8 2 4 4 4 5 7 7 5 9 6 2 2 2 1 2 3 4 3 3 5 6 6 4 3 2 7 6 4 7 4 13 19 17
32 34 35 33 31 30 29 28 11 20 21 20 18 19 18 18 16 12 9 9 8 2 3 9 9 7 6 6 12 13 3 5 9 4 2 3 2 1 4 3 1 2 4 4 6 4 1 2 1 10 25 26 15 14
31 35 36 36 33 30 28 27 13 18 23 18 19 20 18 19 17 13 10 12 8 7 6 5 7 8 6 7 14 6 4 7 6 4 4 2 3 3 4 4 3 2 2 3 3 1 2 8 20 16 19 16 14 11
32 35 36 38 37 30 28 28 19 20 24 18 21 20 18 19 18 16 13 16 9 5 4 1 5 5 5 5 7 6 7 10 11 5 3 3 3 4 3 2 3 3 5 5 2 2 6 9 13 18 16 14 11 9
32 35 36 39 39 25 25 25 20 23 23 19 22 20 18 20 17 15 13 14 13 3 4 5 7 6 5 4 5 8 12 12 5 3 3 2 4 4 1 2 2 6 6 5 5 13 6 14 17 17 16 13 10 9
33 36 37 40 39 23 20 20 22 25 22 21 23 21 19 21 17 14 6 13 13 10 6 3 4 4 9 8 10 10 9 6 5 4 3 3 2 2 3 3 2 9 8 6 5 20 6 22 19 17 15 12 10 8
33 35 36 40 39 24 17 21 27 27 24 23 23 21 21 20 20 8 4 11 17 10 3 3 2 4 8 7 6 7 6 5 4 4 2 3 2 5 3 3 3 11 9 9 17 21 16 18 13 16 12 10 8 5
32 34 36 39 39 22 18 25 28 30 25 25 23 25 24 19 19 6 6 15 17 6 4 3 1 3 5 3 3 3 3 3 4 3 3 2 3 2 3 5 9 11 14 15 21 8 18 19 19 14 10 9 5 3
31 32 35 38 38 21 11 26 29 32 30 28 28 25 22 15 8 9 12 9 5 4 6 3 6 4 6 4 4 3 3 2 2 1 1 2 1 4 6 12 19 21 20 19 15 18 22 19 14 13 10 5 2 3
29 31 34 36 36 23 7 26 36 34 37 36 33 11 7 12 16 17 6 6 4 0 3 3 6 3 5 3 2 2 3 1 1 1 1 2 3 7 8 17 20 24 19 27 26 18 16 16 15 10 5 1 3 5
27 28 32 33 34 27 10 35 34 42 45 37 11 5 23 29 10 4 3 3 1 1 3 5 5 4 3 3 3 2 2 1 2 3 1 2 3 4 14 17 21 22 20 21 16 14 15 14 11 6 2 1 2 4
24 26 30 32 32 32 3 26 43 47 24 19 15 24 23 6 3 4 3 1 4 6 5 4 6 8 6 4 3 1 3 2 2 1 1 3 3 7 14 18 15 25 25 19 21 21 15 10 7 5 2 1 3 5
21 24 27 29 28 31 3 36 47 30 28 35 12 6 8 2 3 9 9 4 2 5 11 10 5 7 6 4 4 3 4 3 3 2 4 4 2 13 12 20 25 29 20 25 21 15 10 7 5 2 1 2 4 5
18 21 23 25 26 27 2 33 43 39 19 6 6 7 5 5 6 5 5 4 5 11 25 19 7 4 4 3 3 4 1 3 2 3 6 3 10 13 14 20 33 28 23 20 14 10 7 5 4 2 2 4 6 7
15 18 18 22 23 23 8 27 35 27 4 4 5 5 4 4 4 8 11 10 7 26 30 14 8 6 2 4 1 4 4 4 6 5 3 5 18 19 20 24 27 26 21 15 10 7 6 5 5 3 4 6 7 8
12 12 16 21 22 19 12 23 27 14 3 3 3 4 6 4 1 3 12 10 20 29 23 7 4 4 2 6 5 6 8 7 4 3 5 23 27 24 22 19 17 14 11 9 7 6 5 4 4 5 6 7 9 9
9 10 15 19 19 13 12 8 8 3 4 3 2 5 6 6 5 9 13 16 30 22 2 3 5 5 4 4 4 4 5 3 4 7 23 30 31 25 19 16 13 11 9 6 3 3 5 5 5 6 8 9 9 6
8 11 13 18 18 10 8 5 3 3 3 3 2 6 5 5 14 12 11 29 22 10 6 3 7 3 5 7 3 3 7 2 8 23 29 31 26 21 15 11 8 5 3 2 4 5 5 5 5 6 7 7 5 3
8 10 12 17 16 8 6 5 3 3 4 5 8 8 6 9 9 13 21 26 19 10 15 3 4 2 3 4 3 5 13 15 24 27 25 20 16 12 7 4 0 3 4 6 6 5 4 4 4 5 5 4 2 1
6 9 11 12 11 5 3 4 4 4 2 3 6 6 7 7 14 15 23 22 16 6 4 2 2 3 4 8 15 19 23 27 31 26 18 13 8 4 3 5 6 6 7 5 4 4 4 4 4 4 3 1 1 1
8 9 9 9 6 7 4 5 5 4 3 4 8 4 5 12 11 10 11 16 4 4 2 3 11 19 23 23 20 20 20 17 17 14 11 8 5 5 6 6 7 7 6 6 6 5 4 4 3 2 1 1 1 1
8 9 7 8 6 5 4 7 3 3 3 3 3 4 5 2 3 4 12 3 4 3 6 14 21 20 18 17 14 12 11 9 8 6 5 4 5 6 6 6 6 6 6 5 5 5 5 4 3 3 2 2 2 2
8 9 5 7 4 9 3 7 4 5 2 1 2 2 2 2 3 7 3 3 3 7 20 21 18 15 14 14 12 11 10 8 8 8 7 7 6 6 6 6 6 5 5 5 5 5 5 5 5 5 4 3 2 4
8 5 5 5 6 2 4 5 4 4 3 2 2 3 2 2 2 2 3 2 7 16 18 19 17 17 15 13 11 9 8 7 8 8 7 6 6 6 6 5 4 5 5 5 7 7 8 8 7 5 3 2 4 6
4 6 5 5 5 4 4 3 4 3 3 3 2 2 2 3 2 2 2 2 7 14 14 15 16 14 16 15 12 10 10 9 8 7 8 6 4 4 5 4 4 5 6 7 9 9 9 7 4 2 2 5 6 7
4 4 3 2 4 2 1 2 3 3 2 2 2 1 3 1 3 2 1 2 5 9 12 11 12 14 13 11 13 11 8 7 5 5 4 4 4 4 4 5 7 8 8 9 7 7 6 3 1 3 5 7 8 10
2 2 1 2 2 1 3 2 2 2 2 1 1 1 2 3 2 1 3 4 7 11 12 13 13 13 15 14 11 8 6 5 4 4 4 5 5 6 6 4 7 9 11 10 8 5 3 2 3 4 6 8 10 11
0 4 3 3 3 4 3 2 2 1 2 1 2 2 2 1 2 2 2 8 12 12 13 14 13 11 11 9 7 6 6 6 5 6 6 7 7 8 8 10 11 11 9 7 4 2 1 2 3 5 6 8 10 13
2 4 4 1 2 2 2 3 3 1 1 2 2 1 2 3 5 7 11 12 13 12 10 9 10 8 7 6 6 7 7 7 6 8 9 11 13 13 12 10 9 8 5 3 2 2 1 2 4 6 9 11 13 14
4 9 4 2 3 3 1 1 2 3 3 4 4 5 5 6 8 11 12 12 11 10 9 9 7 6 6 6 7 9 9 10 10 8 9 12 12 13 12 9 6 4 2 2 2 2 3 5 8 10 12 13 14 15
6 9 3 3 3 1 3 4 4 3 3 3 4 4 5 5 6 6 7 9 9 8 9 9 8 8 8 9 9 9 11 12 11 9 9 9 10 9 8 6 5 3 3 3 2 2 4 6 9 12 13 14 14 16
5 6 4 2 1 3 5 2 3 2 2 2 2 3 4 4 3 3 4 7 10 11 11 10 9 10 11 11 11 10 8 11 10 9 9 10 10 8 7 5 3 3 2 2 3 5 7 10 13 16 17 16 16 17
4 4 3 4 2 2 4 4 2 3 3 3 2 1 2 2 2 3 3 5 6 7 8 8 9 10 11 12 10 10 11 11 11 11 10 9 8 6 5 4 2 1 3 4 7 9 11 14 15 16 16 16 17 18

GFSWCAN_850_spd_012.txt.gz
Wind_Speed
30 32 31 33 33 32 29 28 27 25 18 20 18 15 15 22 19 18 15 14 14 4 3 5 4 5 7 7 4 7 6 1 1 1 3 2 3 4 3 6 10 10 8 5 6 5 10 8 6 6 4 11 16 18
29 30 31 32 33 34 31 31 26 24 13 21 19 14 17 21 20 17 13 14 13 6 2 3 4 6 8 9 10 19 1 6 7 3 2 4 3 2 6 5 1 6 3 3 7 4 2 1 2 3 11 20 14 18
29 30 32 32 33 34 34 32 23 21 14 21 20 15 19 21 20 19 15 14 13 5 3 4 3 4 5 6 16 6 5 9 9 8 4 1 2 3 5 3 4 2 3 2 4 2 1 2 6 11 16 19 19 18
28 30 32 31 34 34 34 31 22 20 14 20 20 16 21 23 22 19 15 17 11 5 2 1 3 2 2 5 13 6 9 14 13 8 2 2 2 3 2 2 2 1 9 6 1 1 5 5 9 21 21 20 19 16
27 29 32 31 34 35 36 31 19 20 15 24 20 17 22 23 22 17 17 16 19 3 3 3 4 3 3 4 6 8 14 16 6 3 1 2 3 4 1 1 3 7 6 5 3 15 3 18 20 21 22 19 16 14
27 28 31 31 34 35 36 29 17 17 18 26 21 20 22 23 20 16 8 18 22 12 5 3 3 3 7 8 10 11 10 7 5 4 3 3 2 2 4 4 2 9 9 7 3 16 6 20 22 21 20 17 14 12
26 27 31 31 34 35 35 26 13 16 24 25 21 22 23 23 21 13 5 10 22 16 4 3 2 5 7 6 4 5 6 5 3 4 2 3 2 3 2 4 4 13 11 8 12 19 11 20 16 20 16 16 13 11
25 26 30 30 34 34 36 22 12 20 26 27 25 24 23 20 20 10 3 15 23 8 4 3 1 3 7 3 3 3 3 3 5 3 3 2 3 2 5 6 8 13 13 14 18 9 14 23 24 21 17 14 12 9
25 25 29 29 33 36 36 18 15 24 28 30 29 28 20 17 9 9 11 12 8 4 5 3 5 3 8 3 3 3 2 2 2 1 2 3 3 5 6 12 19 22 19 21 17 12 21 26 24 20 16 15 11 8
25 24 28 29 33 36 34 18 15 31 35 36 35 13 7 13 14 15 5 6 3 1 3 2 4 3 5 3 2 2 2 2 2 1 1 2 4 8 9 12 21 24 18 27 26 21 25 24 21 19 16 11 8 6
22 23 25 28 31 33 35 8 26 35 42 36 12 6 20 29 13 3 3 2 1 1 5 5 5 4 4 2 3 1 2 1 3 2 2 2 4 4 12 16 21 24 19 25 23 26 25 21 22 18 13 9 6 4
21 22 23 27 28 31 32 8 15 46 30 16 16 26 27 7 3 4 3 2 4 5 5 5 6 6 5 4 3 2 2 1 3 2 2 4 3 2 11 18 23 22 25 24 23 22 21 19 16 13 10 8 5 2
18 20 21 24 26 30 30 12 30 39 27 36 16 6 7 3 4 9 10 5 4 6 11 9 5 7 5 4 4 2 3 2 6 3 4 4 2 9 16 19 25 22 24 21 24 24 20 17 14 10 8 5 1 1
16 18 19 21 28 28 25 4 35 35 24 4 5 8 7 5 7 5 5 5 5 12 23 17 7 3 4 2 3 4 2 3 3 3 6 2 8 15 18 21 30 28 28 28 25 20 17 14 11 8 5 2 2 3
15 16 15 21 27 27 25 7 28 31 4 4 5 5 5 4 3 4 9 10 8 27 27 13 8 5 2 4 2 4 4 4 6 5 2 3 16 19 23 28 31 30 28 23 19 16 13 9 7 5 4 4 4 4
15 13 17 22 26 26 21 10 23 13 3 3 3 4 6 4 2 4 7 9 23 28 22 6 4 3 2 5 5 6 8 7 3 3 4 18 19 20 28 33 31 27 23 18 14 10 8 7 7 6 5 4 3 4
12 12 17 22 26 21 12 7 8 4 3 3 2 5 5 3 5 6 10 14 28 21 3 3 5 3 5 4 6 4 5 2 3 7 18 26 28 28 31 30 26 21 17 13 10 8 7 7 7 6 4 3 3 3
12 14 16 21 24 15 11 6 3 4 4 3 2 5 3 4 13 10 10 26 20 10 5 2 7 4 6 7 4 3 4 3 8 19 29 30 28 27 25 24 20 17 14 12 10 9 9 9 8 5 3 3 3 3
12 16 19 19 19 10 8 6 5 3 3 3 7 8 7 7 11 12 17 23 20 6 14 2 3 2 3 3 3 7 13 14 18 26 31 29 27 24 21 18 15 13 11 9 8 8 8 8 6 3 2 2 3 4
13 14 17 15 13 6 4 5 4 3 1 2 5 6 7 6 12 18 22 18 14 5 3 2 1 1 1 3 7 15 22 34 39 34 28 24 21 18 15 12 11 10 9 9 9 7 7 6 5 4 3 4 4 5
12 13 14 12 7 9 4 5 4 3 2 4 6 3 4 11 9 7 6 14 4 2 2 2 6 11 14 15 17 24 35 32 28 30 30 23 18 13 12 11 9 8 7 8 7 7 6 5 5 5 5 6 6 6
12 14 10 8 6 5 4 10 3 3 3 2 3 3 3 2 3 4 9 4 3 3 5 13 21 24 24 24 24 25 23 22 21 21 17 16 15 12 10 8 8 7 6 6 6 6 6 6 6 7 7 6 6 4
11 9 5 6 3 7 4 9 4 6 2 2 2 2 2 2 3 6 3 3 3 4 17 25 22 20 22 21 21 21 18 16 16 14 12 10 9 7 6 5 5 4 6 6 6 6 7 8 8 7 7 6 3 1
10 6 5 5 8 3 5 6 4 4 3 2 2 2 2 2 3 3 3 2 4 16 19 22 23 22 20 18 17 16 14 10 10 9 8 6 6 7 7 6 6 6 5 5 7 8 9 9 9 8 6 3 2 3
4 6 6 5 5 5 4 3 4 3 2 3 2 2 2 3 2 2 2 2 7 16 20 18 16 17 20 16 14 12 11 10 8 8 9 8 7 8 8 7 7 7 7 8 10 11 11 11 9 6 3 2 3 4
4 4 4 1 4 2 2 3 4 3 2 2 2 2 2 1 3 3 2 3 3 8 14 15 15 16 15 13 14 13 13 12 10 8 9 8 7 5 6 7 9 10 11 11 9 11 11 9 6 3 2 2 4 5
2 2 1 2 2 2 2 3 2 1 3 3 1 2 2 3 2 2 2 4 6 9 11 13 15 14 15 17 15 13 12 11 10 7 7 8 7 8 7 5 8 10 12 12 11 9 6 4 3 2 1 3 5 7
1 4 2 2 2 3 2 1 2 2 2 3 2 3 2 2 1 1 2 9 11 12 13 15 15 16 15 14 12 11 10 9 8 8 8 9 9 9 8 9 10 12 11 10 8 6 4 3 1 1 3 5 7 10
1 4 4 3 2 3 1 1 0 2 4 2 1 2 2 3 4 7 10 11 13 14 14 15 15 14 13 12 11 11 10 9 9 11 10 11 12 11 11 11 11 10 8 6 5 3 2 2 1 3 5 7 10 11
3 5 3 1 2 1 1 2 2 4 6 6 5 5 5 5 8 11 12 13 13 12 12 12 12 11 10 10 12 12 11 9 8 6 7 11 11 14 14 12 10 8 6 4 3 3 1 2 3 5 8 11 13 14
4 6 3 2 1 1 3 4 4 4 3 4 6 6 6 6 6 7 8 9 9 9 9 9 9 9 8 8 9 8 8 7 7 8 9 10 12 13 12 10 8 6 5 4 3 3 3 5 7 9 12 14 15 16
4 4 3 2 0 3 4 2 2 2 2 2 3 4 5 4 4 6 7 9 9 9 10 9 8 8 8 9 9 9 9 10 8 9 10 11 12 10 9 7 5 4 4 3 3 4 6 8 10 13 14 14 15 15
4 4 3 4 2 1 4 3 2 2 3 3 3 2 2 3 3 4 4 8 10 11 11 11 10 10 10 10 9 9 9 11 10 11 12 11 10 8 7 5 5 4 4 4 5 6 9 11 13 14 14 15 16 16

GFSWCAN_850_spd_015.txt.gz
Wind_Speed
27 28 27 28 30 28 32 29 30 29 27 23 16 20 20 18 21 24 25 19 14 6 7 4 4 3 4 5 3 7 4 1 2 2 2 2 2 4 4 10 11 9 7 4 6 3 7 7 5 4 3 6 8 12
26 27 26 27 29 28 32 29 30 28 24 21 17 22 20 18 23 23 23 17 20 8 4 6 7 8 10 8 7 14 0 5 5 3 2 2 1 2 5 6 3 8 8 8 7 4 3 3 3 2 6 12 13 17
27 26 26 27 27 28 31 30 30 28 23 20 17 19 21 20 24 24 24 15 17 6 5 4 4 4 7 11 12 6 4 5 6 7 1 2 2 2 4 2 6 3 1 2 3 3 2 6 2 3 11 12 15 17
29 26 26 27 27 28 31 29 31 28 21 19 17 20 21 20 23 24 22 17 18 5 3 3 4 4 3 8 18 15 10 10 9 7 3 2 2 3 1 1 4 1 8 6 1 2 3 4 5 11 15 17 18 16
30 27 25 26 28 28 31 29 31 29 18 19 14 23 20 22 23 20 19 17 20 4 1 3 3 1 3 5 13 11 10 11 7 3 3 3 3 3 1 0 3 7 5 5 3 12 4 10 17 17 19 19 17 16
29 26 25 26 27 28 31 30 32 26 15 16 16 24 21 23 24 18 7 19 22 10 2 3 1 2 8 8 8 9 8 6 3 2 2 3 2 3 4 4 2 14 7 3 2 14 5 18 19 17 18 17 15 13
29 26 26 25 27 28 30 31 31 23 16 14 20 22 23 24 24 15 4 3 21 20 4 2 3 2 7 7 4 3 4 2 2 3 2 2 3 2 2 4 7 13 10 8 13 18 14 17 13 17 19 17 15 13
28 27 26 25 27 28 31 31 30 22 16 16 24 24 24 22 21 18 13 4 24 12 5 3 1 3 6 3 4 2 2 2 4 2 2 2 3 2 4 7 7 14 13 12 12 7 11 17 21 19 19 18 15 13
27 26 25 26 27 28 31 32 32 17 17 19 27 27 23 17 10 13 9 14 17 4 5 2 4 3 7 3 3 2 2 1 2 2 2 2 4 5 5 9 16 20 16 18 14 13 18 24 24 22 20 17 13 11
25 24 24 24 26 29 30 34 31 15 19 28 35 13 7 14 15 14 9 8 6 5 4 2 4 2 4 3 2 1 3 1 1 1 2 3 4 12 6 7 14 20 16 23 24 17 22 25 25 22 17 13 11 8
22 22 23 23 24 27 29 34 24 7 36 33 10 6 22 29 11 4 3 4 5 2 9 6 7 4 3 2 3 1 2 1 2 2 3 3 4 3 5 9 15 22 20 20 13 15 22 26 25 20 16 12 9 6
21 20 21 22 23 25 31 31 21 3 17 18 11 30 25 6 3 3 3 1 5 5 4 5 6 7 5 4 3 3 2 1 2 2 2 4 2 0 4 12 17 20 20 18 15 23 21 21 20 18 15 11 8 6
17 18 19 21 22 26 33 29 11 5 28 26 10 7 7 2 5 9 9 4 4 5 10 9 4 6 5 4 3 2 2 2 4 3 4 4 4 6 10 15 18 19 21 22 23 23 23 22 18 14 13 10 7 5
15 17 20 19 22 28 31 25 7 14 25 5 5 8 6 7 8 5 5 5 6 9 20 16 6 3 4 2 3 4 2 3 3 4 6 2 9 13 13 17 24 24 25 27 26 25 23 20 17 14 11 8 5 4
16 18 16 20 24 30 29 22 10 6 8 5 5 4 4 5 5 3 9 11 7 26 25 12 7 5 2 4 2 4 4 5 6 5 1 5 15 19 17 20 24 28 29 28 27 23 20 17 14 12 9 7 5 3
18 17 18 24 27 29 24 14 9 6 3 3 3 3 5 4 3 5 6 10 22 25 20 5 4 4 3 4 5 6 7 7 3 2 5 12 16 16 20 26 28 30 30 28 23 19 16 13 12 10 8 5 4 3
17 15 22 27 29 26 14 3 3 2 2 2 2 2 4 3 6 8 12 13 29 22 3 3 5 3 5 4 5 4 5 0 3 6 10 16 22 24 27 30 32 29 26 21 18 15 14 12 10 8 6 5 4 4
19 22 24 28 27 21 11 8 2 3 3 2 1 3 2 2 11 10 9 24 22 13 6 3 7 5 6 7 4 3 4 5 8 13 15 18 24 30 31 32 28 24 20 17 14 12 11 10 9 8 6 5 4 4
22 23 23 26 21 11 6 6 5 2 4 3 5 4 3 5 7 12 18 24 19 7 15 4 2 3 3 2 1 6 12 10 15 19 23 25 30 31 29 27 24 20 17 14 12 10 10 10 9 8 7 6 6 6
19 17 22 20 16 7 5 5 5 3 2 2 4 3 3 4 11 14 24 20 12 8 3 1 1 1 2 1 5 13 19 24 30 28 24 25 27 28 25 22 19 16 13 12 11 10 10 10 10 8 8 7 7 8
17 22 19 16 5 8 5 6 4 3 3 3 4 3 2 8 9 7 7 16 3 1 2 3 4 6 7 9 11 16 22 28 21 25 31 31 26 23 20 17 14 13 11 12 12 12 11 10 10 9 9 8 8 7
20 20 13 10 6 7 4 12 5 7 3 2 3 3 2 1 3 3 9 3 4 3 4 7 10 11 13 16 20 26 25 26 29 33 29 27 23 19 17 15 14 13 12 12 12 12 12 11 10 9 9 8 7 6
15 11 8 6 4 9 4 11 5 7 2 2 2 2 2 2 3 4 2 4 4 4 11 18 18 20 23 23 24 26 26 30 30 26 22 19 17 15 14 13 12 11 12 13 12 11 11 10 10 9 8 7 5 3
12 7 6 6 8 4 6 6 6 5 5 3 2 2 2 2 4 3 3 3 4 8 17 22 25 27 25 25 25 24 24 24 25 22 19 17 17 15 13 12 12 12 10 11 11 11 11 11 9 9 7 5 3 2
5 6 6 5 6 5 5 4 5 4 3 4 2 2 2 4 1 3 2 3 6 10 14 18 19 18 23 23 22 21 21 19 19 20 17 13 12 14 13 12 11 10 10 10 11 11 10 10 10 8 6 4 2 3
3 3 4 3 3 3 4 4 5 5 3 3 3 2 3 1 3 3 2 6 4 6 12 14 14 17 18 19 21 19 18 17 15 14 16 14 12 9 10 10 11 10 10 10 8 10 10 10 8 6 4 2 3 4
1 1 1 1 2 3 2 3 3 2 4 4 3 4 3 2 3 2 2 4 3 5 8 12 14 16 20 19 18 18 16 14 12 11 12 11 10 9 9 8 9 9 11 10 11 10 9 8 6 4 3 2 3 5
1 3 1 0 2 3 1 2 2 3 3 5 4 4 2 4 2 2 1 4 7 9 11 14 16 17 16 16 14 14 14 12 11 11 10 9 9 9 8 8 8 11 11 11 10 9 8 6 4 3 2 3 5 7
2 2 3 2 2 2 2 2 2 3 5 3 2 2 2 2 2 4 6 8 10 13 16 19 19 17 16 16 15 14 13 12 11 11 10 11 12 10 10 11 12 12 12 11 9 7 5 4 3 2 2 4 7 10
3 5 2 2 2 1 1 1 2 3 5 5 4 5 4 4 5 7 9 10 11 12 14 15 16 14 13 12 14 13 12 10 8 7 7 9 10 13 14 14 12 11 9 7 6 5 3 2 2 3 5 8 11 13
5 5 3 2 1 1 3 3 3 2 2 4 6 5 6 6 5 7 8 8 9 10 11 11 11 10 10 10 10 9 8 6 5 5 6 8 11 14 14 12 10 7 6 5 4 3 2 3 4 6 9 11 14 16
4 3 3 2 2 3 4 1 1 1 2 2 3 3 4 3 3 7 7 8 8 9 10 9 9 9 8 8 7 6 5 6 7 7 8 11 13 12 10 8 7 6 5 4 4 3 4 5 7 10 12 14 15 16
3 3 3 4 2 2 3 2 1 2 3 2 2 1 1 2 2 5 5 9 9 9 9 9 8 8 8 8 7 7 8 9 9 11 12 12 9 8 8 7 6 5 4 3 4 5 6 8 11 13 14 15 16 17

GFSWCAN_850_spd_018.txt.gz
Wind_Speed
33 32 29 26 26 26 27 26 28 30 29 28 23 17 17 22 20 20 24 20 19 6 6 5 4 2 2 4 3 6 6 3 2 3 1 3 3 5 5 7 6 4 6 4 3 1 6 5 3 2 2 3 6 17
33 32 31 27 26 25 26 26 27 29 29 27 21 17 13 19 19 19 22 20 18 8 4 8 10 11 12 8 6 13 1 3 5 3 3 1 2 1 3 4 7 6 5 6 7 6 2 5 4 3 4 8 14 22
32 30 31 27 25 25 26 25 27 28 29 28 22 17 11 21 19 20 23 17 15 8 11 11 7 7 7 10 9 4 2 3 2 3 2 0 2 0 2 1 4 3 1 2 4 3 4 7 5 7 11 16 16 19
32 29 29 28 25 25 25 26 27 28 29 28 20 15 11 21 18 20 23 18 13 4 3 3 6 5 5 7 10 10 5 6 4 5 3 1 1 0 1 2 1 2 6 6 2 3 3 5 8 16 19 19 21 20
32 29 28 29 25 25 25 27 27 29 28 28 18 14 12 20 18 19 20 21 14 5 2 3 2 2 5 8 12 13 7 6 6 2 3 3 2 2 1 1 3 5 5 4 4 11 5 8 20 21 24 25 23 24
32 30 26 27 25 25 25 27 27 29 28 26 14 13 16 21 19 18 9 22 20 14 2 1 0 1 5 5 9 12 9 8 4 4 2 2 2 1 2 3 3 15 9 5 4 14 10 22 23 22 26 24 21 21
31 30 25 25 26 25 25 27 27 29 30 27 14 14 19 22 24 17 4 4 19 21 3 1 1 2 8 8 6 6 8 4 2 2 1 2 2 2 2 3 4 14 11 12 19 24 18 24 15 22 25 23 21 19
31 30 26 25 24 24 25 26 28 29 31 22 15 14 20 22 25 25 13 2 20 15 5 2 1 2 6 3 3 4 4 4 1 2 1 1 2 1 4 5 14 18 15 18 19 6 17 21 26 25 23 22 21 19
29 28 25 24 23 23 24 27 29 32 31 15 15 9 19 20 12 18 17 7 20 6 4 3 4 3 6 2 3 2 2 2 1 1 2 1 3 4 5 5 18 21 17 20 14 18 24 27 26 25 24 21 19 17
27 25 22 23 23 23 23 26 32 35 19 11 12 9 6 15 14 22 9 9 7 6 4 2 3 2 3 2 2 1 3 2 1 1 1 2 4 9 7 6 14 22 18 22 27 20 24 25 27 26 22 18 16 15
24 20 21 21 21 22 24 27 34 34 4 17 7 7 20 30 12 6 5 3 3 2 8 7 5 3 3 2 2 2 2 1 1 1 1 2 4 3 1 8 14 21 19 19 13 16 22 28 32 28 22 18 16 13
19 19 19 20 22 22 24 29 32 30 12 2 6 15 23 6 4 4 4 2 3 5 4 4 6 7 5 4 3 1 2 1 3 1 1 3 3 1 2 8 18 18 19 18 12 20 24 29 27 24 22 19 15 12
19 19 19 22 21 23 26 29 29 26 12 6 8 5 8 2 4 9 10 4 6 5 10 11 4 6 5 3 3 3 3 3 2 2 4 4 3 3 7 12 14 19 21 24 26 28 29 26 23 21 20 15 13 10
20 21 21 19 22 27 29 28 26 17 6 5 5 5 4 5 6 4 4 5 6 10 17 16 6 3 4 3 3 4 1 3 1 3 6 2 10 12 14 18 25 26 28 29 30 30 29 27 24 19 15 13 10 8
22 22 17 21 28 30 29 26 19 6 4 4 5 4 4 4 6 4 11 12 8 27 28 12 8 5 2 3 3 4 2 3 5 5 3 10 17 18 19 21 24 26 29 31 31 30 27 24 21 18 14 10 8 7
24 22 21 28 31 32 26 18 4 6 2 2 1 2 4 3 2 3 5 9 21 25 19 6 4 3 2 5 3 7 7 7 4 2 9 17 20 21 23 26 28 30 33 32 29 26 23 19 17 15 12 9 7 5
26 23 30 29 33 29 15 9 1 1 1 1 0 1 3 5 5 7 10 11 30 25 3 3 5 6 4 3 3 5 5 2 5 10 14 22 24 26 27 29 31 32 32 29 26 21 19 16 14 12 10 8 6 5
27 30 27 30 31 24 9 8 4 3 2 2 0 3 2 5 13 11 8 21 19 8 7 3 8 4 5 7 4 3 5 10 13 16 18 23 25 26 29 31 32 31 28 24 20 18 15 14 12 10 9 7 6 5
27 25 25 26 25 11 7 6 5 3 2 1 3 4 3 7 7 11 12 25 10 6 14 3 4 3 3 2 2 5 19 16 21 20 21 23 25 29 32 31 29 25 22 20 18 16 14 12 9 9 8 7 5 5
23 21 25 20 18 6 5 5 6 5 3 5 2 3 3 5 8 12 21 18 12 6 2 2 2 1 2 2 3 13 21 26 31 31 26 26 27 33 31 28 26 23 20 18 15 12 12 12 11 9 8 6 5 5
23 28 23 17 6 8 5 6 5 4 6 4 2 1 3 8 7 6 6 13 3 2 1 2 4 5 5 6 8 18 24 27 18 29 39 38 33 32 28 25 22 18 15 15 14 14 12 11 10 9 7 6 6 6
24 23 15 9 4 6 4 10 5 10 5 5 4 3 3 2 3 3 10 4 3 2 3 7 12 14 14 16 17 20 25 22 27 36 38 37 35 31 26 22 19 17 15 14 13 13 13 11 10 9 8 8 7 6
18 11 8 6 4 7 3 10 6 8 3 4 6 1 2 2 3 4 2 4 3 2 7 13 12 12 15 18 21 24 21 26 35 35 34 31 27 23 21 19 15 15 16 15 12 12 12 12 11 9 8 8 7 6
13 6 5 6 7 3 6 4 6 5 5 3 3 2 2 2 2 3 3 3 8 3 8 14 18 21 20 21 24 25 28 33 34 30 27 26 25 23 19 18 16 14 11 13 14 13 12 12 11 10 9 8 7 5
4 6 5 5 5 5 5 5 4 3 3 3 4 3 2 5 1 2 2 3 8 10 10 10 11 20 29 25 24 25 28 31 31 29 24 20 22 22 21 19 17 15 12 13 13 12 12 12 11 10 9 7 5 3
2 2 3 1 3 2 2 3 4 4 3 3 2 3 3 2 3 3 2 7 6 6 8 12 15 20 23 25 28 25 24 23 23 25 23 18 17 16 18 18 16 15 13 11 9 11 12 12 11 10 8 5 3 1
0 2 1 1 1 3 3 4 4 1 3 3 3 3 2 3 3 2 4 7 3 3 6 9 13 17 22 22 23 24 22 21 18 20 22 18 16 14 10 10 12 12 13 12 11 10 10 11 10 7 5 3 2 1
1 3 2 1 1 2 1 2 2 3 3 6 4 5 3 4 2 2 2 4 5 7 9 12 16 18 20 21 21 21 21 19 20 20 20 19 16 14 12 11 11 13 12 12 11 11 10 8 6 5 4 2 1 3
2 2 2 2 2 2 2 1 1 3 5 4 2 2 2 2 3 3 5 7 9 11 15 18 19 21 22 21 20 20 20 19 19 19 16 17 16 14 12 12 13 13 13 13 12 10 8 6 5 4 2 1 2 5
3 5 2 2 3 0 1 2 2 3 5 4 4 4 4 4 6 7 8 10 11 13 15 16 17 18 20 20 20 17 15 14 12 10 12 14 14 16 15 14 14 14 13 11 9 8 7 5 4 3 1 3 5 8
4 5 3 2 2 1 2 4 4 4 3 5 5 4 5 5 6 7 8 11 13 14 14 15 16 16 17 16 14 13 13 11 10 10 10 12 15 15 15 14 13 11 10 8 7 6 4 3 2 2 4 6 10 11
4 3 4 2 1 3 4 1 2 2 2 2 3 3 3 3 3 4 7 9 11 11 12 12 12 13 12 11 9 8 9 10 10 11 12 14 15 15 14 13 11 9 7 6 5 4 2 2 3 5 8 9 11 12
4 3 3 4 2 1 2 2 3 2 4 3 3 2 2 2 2 5 6 8 8 9 10 10 10 10 9 8 8 9 10 11 13 15 16 15 13 13 11 9 7 6 5 4 3 2 2 4 7 9 10 12 12 12

GFSWCAN_850_spd_021.txt.gz
Wind_Speed
32 31 30 28 28 27 26 24 26 25 26 29 29 27 15 9 2 18 22 18 16 5 7 6 4 4 3 4 3 3 5 2 3 4 4 2 3 6 4 5 5 6 5 3 3 1 6 2 2 2 3 4 8 14
32 32 31 28 27 27 25 25 24 25 24 27 27 25 16 10 11 14 16 16 14 7 4 8 9 9 12 12 8 12 3 4 7 3 2 2 3 3 6 5 4 4 6 6 7 6 1 2 3 5 4 9 11 24
31 31 32 29 26 27 24 24 23 25 26 27 25 24 16 11 9 16 18 15 11 6 11 16 12 12 9 11 10 5 4 4 3 3 4 2 4 2 4 4 3 3 4 4 3 4 3 4 4 6 11 14 18 22
32 31 31 28 27 25 25 25 23 24 25 27 25 23 15 7 10 16 17 16 12 3 2 3 5 5 5 6 10 10 3 4 3 3 3 2 1 1 1 2 3 4 6 5 1 1 3 3 5 15 20 20 22 22
31 31 30 29 25 24 25 23 23 24 23 26 26 25 12 5 13 13 14 16 14 6 2 1 2 4 4 5 8 9 6 3 3 1 2 0 1 1 2 1 2 5 6 5 5 11 5 5 17 24 24 25 24 28
32 30 29 29 26 24 24 23 23 23 24 25 26 24 11 7 14 14 9 17 18 13 4 1 1 1 3 5 8 10 5 3 2 2 3 3 2 1 2 3 5 13 9 10 4 10 6 20 25 23 24 26 26 26
32 28 27 26 24 23 22 24 23 22 25 27 28 21 12 12 13 11 5 4 16 15 3 1 0 2 8 8 4 5 5 3 2 1 2 3 1 2 2 3 3 12 10 14 15 22 17 24 14 24 27 27 26 25
29 25 24 24 22 21 22 23 23 25 29 32 28 13 12 13 18 20 4 4 18 19 4 2 1 1 8 4 3 5 5 4 2 1 1 1 1 2 3 5 6 16 20 21 16 5 18 20 27 28 28 28 28 26
26 24 22 21 20 21 23 22 24 28 33 31 14 10 7 9 12 17 22 5 22 7 4 3 4 3 5 2 3 3 3 2 1 1 1 1 2 4 5 5 15 21 15 17 14 18 25 31 32 31 30 28 28 26
24 20 19 20 20 21 22 22 25 33 34 11 7 5 5 12 13 22 8 6 8 6 5 2 4 2 2 1 1 2 3 1 2 1 2 1 3 8 9 7 16 23 17 23 27 22 29 31 32 31 29 26 24 24
22 21 20 20 21 23 22 23 26 33 22 3 4 3 10 31 13 9 4 4 3 1 6 6 6 3 3 2 2 0 2 1 1 1 1 2 3 3 2 11 10 22 18 20 18 21 27 32 36 32 27 24 23 21
22 21 21 22 23 21 22 26 25 27 25 19 9 3 12 6 5 4 5 3 4 5 6 4 6 7 5 3 2 0 2 2 2 0 1 3 3 3 2 6 15 21 20 19 13 21 23 31 32 30 28 25 22 19
21 23 24 23 21 25 26 27 23 26 21 4 5 5 3 2 4 9 10 3 4 4 11 10 4 8 5 3 3 3 3 3 1 1 4 5 3 4 7 11 16 19 19 18 22 26 31 32 28 27 27 23 21 19
22 24 24 20 24 28 29 29 24 22 6 4 4 4 5 5 5 5 6 5 8 12 21 18 6 3 4 2 3 4 2 2 2 2 6 3 7 10 12 16 22 23 23 27 31 35 35 32 29 26 23 21 19 18
23 25 22 27 28 31 32 28 17 10 4 3 3 4 4 3 1 2 8 10 8 28 31 11 7 4 1 4 2 4 3 3 5 5 3 4 14 17 20 25 27 28 31 34 36 36 35 33 31 27 22 19 17 17
25 26 27 29 31 33 30 16 7 4 3 3 4 1 3 3 1 2 5 7 18 28 25 5 4 4 1 5 3 6 8 7 4 3 7 18 20 22 25 26 28 31 35 38 37 36 34 31 29 27 23 18 16 13
25 27 30 29 32 32 16 10 3 2 2 2 2 3 2 2 4 4 7 10 29 25 4 3 5 6 4 3 2 4 5 3 5 11 19 22 23 25 25 26 30 34 37 37 36 33 30 26 24 22 20 17 13 12
25 27 26 30 30 29 8 6 4 3 2 2 2 4 3 4 4 7 7 21 18 10 9 5 8 3 6 7 4 4 3 6 12 17 21 23 24 25 28 31 34 36 36 34 31 28 26 23 20 18 16 15 13 12
25 23 25 26 24 14 6 5 5 4 2 4 5 3 3 3 1 8 12 27 9 8 14 4 4 4 4 3 3 5 16 14 21 22 24 25 26 28 31 33 36 35 33 30 28 25 22 17 15 16 15 14 12 13
21 21 24 22 18 5 4 4 6 4 2 7 5 4 2 3 1 6 17 15 12 6 2 1 2 1 1 3 5 7 20 23 30 29 27 27 28 30 33 36 35 33 30 27 24 21 21 19 17 15 13 12 12 13
20 25 22 17 6 7 4 6 5 4 7 6 8 7 4 3 6 6 7 12 3 2 1 0 1 2 3 4 5 14 21 28 30 27 32 34 34 36 36 35 33 30 28 25 24 22 18 17 17 14 13 13 12 12
21 22 13 8 3 4 2 7 6 10 4 6 7 9 3 1 1 3 7 4 3 3 2 1 7 7 8 11 15 18 22 23 22 27 32 36 39 39 36 33 30 27 23 21 19 20 18 16 16 14 13 13 11 10
17 10 6 5 3 4 2 9 4 7 2 5 9 2 2 2 4 1 2 4 4 5 2 8 9 10 14 15 17 19 18 18 24 32 36 37 37 35 33 29 24 24 24 21 18 18 18 17 16 14 13 12 11 10
12 4 3 4 7 3 6 5 8 6 4 3 3 4 3 3 9 3 2 3 7 6 4 5 11 15 17 18 21 21 21 23 33 37 36 37 35 30 27 25 21 18 17 20 19 17 17 17 15 13 12 12 11 9
3 4 3 4 4 5 5 6 6 3 3 2 4 3 3 5 2 3 3 4 9 10 7 6 9 12 19 20 20 21 23 31 36 36 32 32 31 29 25 23 20 17 16 18 19 18 17 16 15 14 13 11 9 8
0 1 2 3 2 3 1 2 3 3 3 3 3 5 3 2 3 3 3 10 8 7 6 5 8 13 17 20 22 24 26 28 31 31 27 24 23 24 25 25 24 22 19 13 15 17 18 17 16 15 13 11 8 5
2 3 1 1 1 0 2 3 3 2 2 3 3 4 3 3 2 1 5 9 6 7 4 2 8 16 21 23 24 26 26 26 27 27 25 20 17 14 13 17 18 19 20 17 15 13 15 17 16 13 11 9 7 5
2 6 4 3 1 1 3 1 1 1 2 6 5 4 2 2 2 4 4 6 5 3 2 7 13 18 21 23 25 26 25 22 24 25 24 22 20 18 16 15 17 18 19 17 17 16 15 14 13 11 9 7 5 3
3 4 5 2 1 2 2 3 3 0 4 2 2 2 1 2 4 3 3 3 3 5 9 14 18 19 21 22 23 25 26 26 25 26 24 24 22 19 16 19 20 20 19 20 18 15 14 12 10 8 7 5 3 1
4 7 4 1 3 3 1 2 2 2 3 3 3 3 2 2 4 5 5 6 7 10 12 16 20 23 26 27 27 25 21 18 15 15 20 24 23 24 22 20 20 19 18 16 16 16 13 10 8 7 5 2 1 4
6 6 3 2 2 2 4 5 4 3 2 3 4 3 4 3 4 6 6 8 10 11 13 16 19 19 20 20 20 21 19 16 15 15 15 20 23 23 21 20 19 18 16 14 12 11 9 8 6 4 2 3 4 6
5 4 4 3 1 5 6 3 2 1 2 1 2 2 4 3 1 3 7 10 12 14 15 16 18 18 17 16 15 16 15 16 16 17 18 20 21 21 20 19 17 15 13 11 10 8 7 5 4 3 3 4 6 8
4 4 3 4 3 2 4 4 2 2 3 2 2 1 1 2 3 4 9 10 11 13 14 15 15 15 15 15 15 17 18 19 20 21 19 18 18 18 17 15 14 12 10 9 8 6 5 3 2 2 4 6 8 8

GFSWCAN_850_spd_024.txt.gz
Wind_Speed
28 29 28 29 30 27 25 24 22 23 21 23 22 25 25 18 10 8 10 18 13 4 4 5 12 7 5 6 3 3 3 3 3 3 3 3 3 4 2 3 4 5 4 3 2 1 5 2 4 1 3 2 3 1
28 28 29 28 29 26 24 24 22 23 21 22 22 24 23 19 9 2 6 14 11 6 3 9 15 16 11 9 6 6 2 3 6 3 3 2 2 2 4 3 2 4 6 4 6 5 2 2 2 3 2 5 4 15
28 30 31 28 28 26 24 23 22 23 22 21 22 22 22 17 4 1 6 13 10 4 9 14 13 14 16 15 15 5 6 5 5 5 3 2 1 2 3 4 3 3 3 2 2 2 1 1 3 3 6 9 11 20
30 30 29 28 26 26 23 21 24 22 22 20 21 22 23 14 3 13 12 13 11 3 2 3 6 6 5 9 14 19 6 6 4 7 2 2 2 3 2 1 3 4 5 5 4 3 0 5 5 9 13 16 19 20
31 31 31 28 23 24 21 21 20 22 21 19 19 22 24 11 5 10 14 13 14 4 2 2 3 4 4 6 9 11 8 5 2 3 2 2 2 2 1 1 3 5 6 5 5 9 4 3 14 19 20 22 22 25
30 30 26 24 22 21 20 20 20 22 19 20 22 24 24 11 4 7 6 13 15 16 1 1 1 1 3 4 7 7 4 3 3 1 0 2 3 2 2 2 5 14 11 11 2 6 5 17 23 21 22 23 24 27
28 27 26 23 21 20 19 20 22 22 22 21 24 27 18 12 7 4 4 5 21 15 3 1 1 2 2 4 2 4 3 2 2 1 2 1 2 3 1 3 2 5 9 8 12 21 14 21 15 22 25 26 27 26
25 25 22 21 19 20 20 22 23 22 25 26 29 25 13 11 11 8 7 6 19 12 3 2 1 0 7 4 3 4 3 2 1 1 1 1 0 1 3 6 2 9 15 18 14 3 13 20 26 27 28 30 29 28
23 23 22 21 20 21 22 23 23 26 28 29 21 6 9 9 8 15 8 14 24 7 4 3 3 3 5 2 2 3 3 1 2 1 1 1 1 4 6 5 13 18 12 15 11 17 24 30 31 31 32 30 31 29
22 23 23 23 23 23 22 22 26 29 27 10 7 4 4 9 10 20 6 9 8 8 4 2 4 2 2 2 1 1 3 1 1 1 4 1 3 13 11 6 7 20 14 21 25 19 26 31 34 34 32 30 28 28
21 23 25 25 24 21 22 26 26 26 24 12 7 2 5 25 12 8 4 4 4 1 7 7 7 3 4 2 2 0 2 0 1 1 1 2 3 4 5 11 8 20 18 19 13 15 23 32 38 35 30 28 27 25
21 23 26 26 23 22 24 25 25 21 19 18 16 14 4 3 5 4 4 3 4 5 5 3 6 6 5 3 2 0 2 1 2 0 1 3 4 4 2 4 12 19 22 18 10 17 23 31 33 31 29 28 26 23
21 23 26 23 26 24 27 26 24 20 20 6 4 3 3 2 5 9 9 4 4 4 11 9 4 7 5 3 3 1 2 3 2 1 4 5 2 4 4 6 12 19 19 15 18 23 26 31 30 29 30 27 25 23
21 23 24 23 29 30 30 28 24 16 7 2 4 4 4 4 4 2 2 4 6 10 21 19 6 3 4 3 2 4 1 2 1 2 6 2 10 10 10 13 20 22 19 21 26 29 34 35 34 31 28 27 25 24
22 23 22 27 30 31 32 28 15 7 3 3 2 3 3 0 0 3 5 1 3 23 29 10 6 4 2 4 2 3 2 3 5 5 3 4 14 16 17 20 22 23 24 28 32 37 37 36 34 31 27 24 22 22
23 23 23 28 31 32 31 17 5 0 3 3 4 3 3 2 1 3 5 3 14 24 20 4 3 3 2 4 3 6 7 6 4 3 4 15 17 18 21 22 23 25 30 35 37 37 37 35 34 31 27 23 20 19
21 21 27 28 31 31 24 9 3 2 3 3 2 5 7 5 4 4 6 8 21 21 3 3 5 6 3 3 2 4 6 4 3 4 15 17 20 22 24 25 26 30 35 37 38 37 36 34 32 30 29 25 21 19
21 24 25 28 30 30 10 5 3 2 2 2 2 6 7 7 7 6 7 11 16 7 8 5 8 3 6 6 4 4 6 4 6 12 16 17 19 22 24 27 29 32 36 37 38 37 34 32 29 27 26 24 22 20
21 23 22 27 24 16 5 4 4 3 3 4 7 7 8 8 7 9 9 13 11 7 10 5 3 4 4 3 3 3 11 11 13 16 17 18 20 23 25 27 30 34 37 37 36 33 31 27 25 25 24 23 21 21
18 18 22 23 18 5 3 3 5 3 2 6 8 8 11 8 7 6 8 16 11 6 3 2 4 4 4 1 3 5 12 14 23 24 21 21 22 25 27 31 36 38 38 35 32 30 28 26 23 22 20 19 19 20
18 20 23 17 5 3 3 5 4 3 6 5 8 12 7 6 5 6 8 12 8 1 0 2 3 3 4 4 5 5 13 20 25 24 31 29 27 30 34 37 38 37 36 34 32 28 26 25 25 23 21 19 17 17
18 20 15 7 2 2 3 3 7 10 5 6 8 10 5 2 2 0 2 2 3 3 2 3 2 4 5 5 7 11 15 20 20 22 29 31 33 35 38 39 39 37 34 31 28 28 26 23 22 21 19 19 17 15
15 11 4 3 2 2 2 8 3 3 2 4 10 3 2 3 6 7 2 4 4 7 5 1 3 5 8 11 12 14 15 18 19 25 31 31 33 35 38 37 34 33 30 26 24 24 25 23 21 20 19 18 17 16
12 3 2 2 3 3 6 3 5 4 4 4 3 4 3 3 9 3 2 3 9 12 6 3 3 7 11 14 16 17 18 19 22 27 31 34 36 35 34 32 30 27 26 28 26 24 23 23 21 19 17 16 15 12
3 2 2 3 2 4 5 6 6 4 2 3 3 3 2 5 1 2 2 5 13 14 13 6 2 4 10 13 14 15 16 19 26 34 33 35 36 33 28 26 25 24 24 26 26 24 23 21 20 18 17 14 13 12
1 2 2 4 2 2 3 1 1 3 2 3 2 6 4 2 3 2 2 9 9 10 14 11 7 3 7 12 14 15 18 21 28 35 33 34 32 30 31 31 30 27 24 20 20 22 22 21 20 19 18 16 13 10
3 4 3 3 2 2 1 2 1 2 1 2 3 4 3 3 2 1 5 7 9 10 10 8 6 5 9 12 15 17 20 27 34 36 36 31 29 30 30 30 27 25 24 20 18 17 19 21 20 18 16 15 12 9
4 6 4 5 2 1 3 1 1 2 2 3 3 2 3 1 2 5 5 11 10 9 5 3 2 5 11 14 17 20 24 27 32 32 28 26 25 23 21 19 18 20 21 20 18 18 17 17 17 16 14 11 10 8
4 5 7 2 2 1 4 4 4 2 2 1 2 1 1 2 6 7 8 7 4 4 1 4 7 9 13 17 21 26 30 31 34 34 33 31 27 23 20 18 21 23 23 23 20 18 17 16 14 13 12 10 9 7
5 8 4 1 4 4 2 4 3 2 1 1 1 1 1 2 4 6 5 4 3 2 3 6 11 14 17 21 24 24 25 26 26 27 29 28 25 23 22 23 23 23 23 24 24 23 20 16 15 13 11 8 6 5
8 8 3 2 3 2 4 6 5 3 2 0 0 1 1 1 2 5 4 3 3 4 6 8 11 14 18 19 19 21 20 18 17 16 19 20 23 25 24 23 22 22 21 19 17 16 16 15 12 10 8 6 5 4
6 5 5 2 1 5 6 4 3 2 2 2 2 2 1 1 1 1 3 5 6 8 10 11 13 14 14 15 14 13 15 19 19 17 18 23 25 25 24 23 23 21 20 18 16 14 13 10 9 8 6 4 4 5
5 4 3 4 3 2 5 4 0 1 0 0 1 1 2 2 2 2 5 6 8 11 12 12 12 12 12 14 16 18 18 19 19 20 20 20 21 22 22 21 20 18 16 14 13 11 10 8 7 6 4 4 5 6

GFSWCAN_850_spd_027.txt.gz
Wind_Speed
27 28 29 30 28 26 26 24 22 23 21 22 20 20 22 23 16 16 7 12 4 2 5 9 6 7 5 6 3 2 3 4 4 4 4 3 4 4 2 2 3 4 4 3 2 2 4 7 7 4 2 4 4 1
27 28 29 29 28 26 24 23 20 22 20 22 19 20 20 21 15 12 4 14 16 6 1 9 12 11 13 11 6 7 3 2 6 3 3 1 2 1 2 3 2 3 4 3 6 5 3 3 1 3 4 3 4 4
28 30 30 30 28 25 21 22 21 20 19 21 18 19 18 21 15 9 7 11 14 2 6 11 10 11 14 15 14 5 4 5 3 3 3 1 3 4 4 5 4 3 3 2 2 2 3 2 1 4 3 7 9 15
28 28 28 28 25 24 20 20 20 19 20 21 18 17 18 21 19 7 2 11 9 3 2 3 5 5 8 10 10 12 16 8 8 6 2 2 2 4 3 2 3 4 4 4 4 5 3 4 3 3 10 13 16 18
26 26 26 27 24 21 20 20 19 20 22 20 18 16 20 21 15 6 14 12 13 5 1 2 3 3 3 5 7 9 14 11 4 3 2 3 1 2 1 1 3 5 6 4 5 4 1 1 10 10 14 16 17 22
24 24 25 23 23 20 20 20 20 22 21 19 20 17 19 19 10 2 6 14 13 14 4 2 1 1 3 4 6 6 5 4 4 3 1 2 2 2 1 3 5 12 9 7 1 2 4 9 15 14 17 18 19 23
21 23 23 22 21 20 20 21 22 22 22 23 24 22 19 15 10 7 4 5 15 12 2 1 1 1 1 1 1 2 1 1 2 2 2 1 2 4 1 3 4 5 8 7 7 12 11 16 10 16 20 22 24 25
20 22 23 23 22 22 22 23 23 24 27 28 24 21 13 8 11 10 6 5 18 10 3 1 2 1 5 2 1 1 1 2 1 2 1 1 1 0 3 7 6 3 7 13 16 5 8 18 23 22 23 27 28 27
20 22 23 25 25 23 22 23 25 28 30 23 14 2 10 8 6 4 6 9 21 6 3 2 3 2 3 1 1 2 2 1 2 1 1 1 1 4 6 6 10 14 12 13 10 13 20 27 28 28 30 30 31 29
19 21 23 25 26 25 24 23 28 30 24 10 2 1 5 7 4 10 8 14 8 5 3 2 5 2 2 1 0 1 2 1 1 1 2 2 4 15 14 6 4 16 11 20 22 17 24 28 31 32 31 30 30 30
18 21 23 25 24 27 25 22 27 29 16 14 10 4 4 10 8 7 5 3 2 1 6 6 7 3 5 2 2 1 1 1 1 3 1 2 4 4 6 15 9 15 16 19 10 13 23 30 37 35 32 29 29 27
18 20 23 24 23 27 27 27 24 23 17 14 15 12 2 0 2 3 2 2 3 4 4 4 5 6 5 3 2 0 2 1 4 2 1 3 4 3 3 7 14 16 20 18 8 12 21 29 33 33 31 31 28 25
18 20 22 23 22 27 29 30 25 20 14 4 2 2 1 2 3 6 6 3 3 3 9 6 3 6 4 2 3 2 2 3 2 0 3 4 3 4 4 5 11 18 21 16 14 18 22 31 31 31 32 28 27 25
18 19 20 20 26 28 30 31 26 11 4 1 1 2 3 3 3 1 1 3 2 6 18 17 5 3 4 2 2 2 1 2 1 2 6 3 5 6 6 7 14 20 20 18 21 24 31 34 34 32 29 28 27 26
17 18 17 23 27 29 30 29 15 7 1 2 2 3 2 3 2 5 6 4 3 11 24 8 5 4 1 3 1 3 1 4 5 5 3 4 7 9 9 12 16 20 20 22 26 32 35 35 35 33 29 26 24 24
17 18 17 24 26 30 30 23 6 2 1 2 4 3 4 2 1 2 5 5 4 17 17 4 3 3 3 4 3 7 6 6 4 3 4 7 11 11 12 14 17 19 21 26 30 34 35 34 33 32 29 25 23 21
16 15 23 25 27 31 27 6 2 1 2 3 2 4 6 9 6 3 4 5 9 12 3 3 6 7 3 3 2 4 5 3 3 2 7 11 12 14 16 17 18 21 25 28 32 33 34 33 32 31 30 26 23 21
17 18 21 23 28 27 12 6 3 1 3 2 1 4 9 10 9 7 5 9 7 6 5 3 8 3 5 6 4 4 9 3 3 7 11 12 13 16 18 20 21 24 28 31 34 35 34 34 32 30 28 27 24 22
17 19 20 21 23 16 4 3 4 3 3 4 6 7 6 11 12 11 11 10 11 7 2 3 2 4 4 4 3 3 8 9 8 12 13 14 16 19 21 21 23 27 31 34 36 36 35 31 30 29 27 25 23 23
13 15 16 20 16 4 2 1 4 3 3 5 8 8 14 10 10 12 11 10 12 4 3 3 3 1 1 2 3 3 3 11 16 19 17 18 19 20 21 23 28 32 35 36 35 33 32 29 26 24 23 22 22 22
13 13 18 15 5 2 2 2 2 3 6 5 7 14 9 10 6 4 5 10 9 3 1 2 4 4 6 6 5 5 5 12 19 15 26 25 23 23 25 27 31 36 37 36 35 31 28 27 27 25 23 21 19 19
12 16 14 7 2 2 2 2 5 8 4 6 8 10 7 3 4 4 8 2 4 4 5 6 9 9 7 5 4 4 7 12 15 12 19 26 29 29 29 32 37 39 37 35 33 31 29 27 25 23 23 23 22 19
12 11 4 2 2 2 2 5 2 1 2 4 11 4 3 3 5 10 2 4 3 9 11 8 6 5 6 5 5 7 9 11 14 15 24 26 27 28 32 36 38 38 37 32 28 29 28 27 26 24 23 22 21 19
11 3 2 2 1 3 3 1 2 3 4 4 3 5 4 3 9 2 1 2 6 11 10 9 5 2 3 6 8 11 12 14 16 21 26 29 31 31 35 36 35 34 32 31 30 30 28 28 26 24 23 21 19 16
3 2 1 3 1 3 4 5 5 4 2 2 3 4 3 6 2 1 2 3 12 13 13 11 7 5 4 7 9 12 13 14 19 25 26 30 34 35 33 32 31 29 28 30 31 30 29 26 25 23 21 19 18 17
1 3 2 4 2 2 4 1 1 3 1 3 3 5 5 2 2 2 2 8 10 13 16 15 13 9 6 5 7 10 13 15 18 24 25 27 32 38 38 37 33 29 29 28 28 28 27 26 25 23 21 19 16 14
3 4 3 4 2 3 1 0 0 2 1 3 3 3 3 2 3 1 5 7 12 16 15 12 10 9 9 8 8 11 13 15 19 24 26 29 32 34 32 32 31 30 29 27 24 23 23 25 25 23 20 18 15 12
5 7 5 6 3 3 4 1 3 4 3 2 0 1 3 3 3 4 5 14 16 14 12 10 8 7 6 7 9 11 14 16 18 24 29 31 32 32 31 28 27 29 27 24 22 21 21 20 20 19 17 15 13 12
4 5 7 1 2 2 5 5 4 4 3 3 3 2 3 4 6 10 12 11 10 9 9 7 6 4 4 6 10 12 16 21 30 35 35 31 28 26 26 27 30 27 27 26 22 19 18 18 18 17 16 14 12 10
6 10 4 2 5 4 2 5 3 4 3 3 3 3 4 5 6 8 8 8 8 6 5 5 4 3 6 10 14 20 23 23 25 29 32 32 32 31 29 28 26 26 26 27 28 27 25 22 20 18 15 13 11 8
8 10 3 3 3 3 5 7 6 4 3 3 4 4 4 5 6 6 7 7 6 4 4 3 2 2 6 11 15 17 17 20 23 27 31 32 31 30 27 25 24 26 26 24 21 20 20 18 16 14 13 11 9 6
6 5 5 2 2 4 6 5 3 3 3 3 3 4 3 3 3 3 3 3 4 3 5 5 6 7 7 8 11 11 13 16 17 19 25 27 27 26 24 24 23 22 21 20 19 18 17 15 14 12 10 7 5 4
5 4 3 4 2 3 5 4 1 2 3 2 3 2 3 2 4 3 3 3 5 7 6 6 6 7 7 8 13 17 19 21 23 21 22 23 23 24 25 24 23 21 20 19 18 17 16 14 11 9 7 5 4 4

GFSWCAN_850_spd_030.txt.gz
Wind_Speed
23 24 26 28 29 28 26 22 22 22 22 22 23 19 19 21 22 16 3 4 3 3 1 5 6 6 5 5 3 3 2 4 3 4 2 2 3 4 2 3 4 6 3 3 2 2 4 5 4 2 3 4 5 6
21 23 26 27 27 26 25 22 21 20 20 20 22 19 18 19 21 13 5 8 7 1 2 6 8 9 11 9 11 8 1 2 6 3 3 3 2 1 2 3 2 3 5 3 6 5 4 3 3 5 4 4 4 5
21 23 24 26 27 26 23 22 21 20 20 20 22 18 18 19 19 14 7 7 8 2 6 10 8 9 10 15 16 6 5 5 5 3 3 2 3 3 3 5 2 3 3 2 3 4 4 4 2 5 4 7 8 13
21 22 22 25 24 24 23 20 21 19 20 22 21 18 15 16 18 12 7 8 6 2 1 2 3 6 8 11 13 16 10 6 10 6 2 2 2 4 3 2 3 4 3 3 4 7 7 8 3 2 9 12 16 17
20 20 22 23 23 22 22 21 21 21 22 21 20 19 19 18 17 9 8 14 11 1 2 3 5 4 3 3 5 8 9 9 5 2 3 3 1 2 1 1 3 5 6 4 5 4 2 0 8 9 11 13 15 22
18 19 21 23 24 24 22 22 22 23 23 24 23 23 21 17 12 3 3 10 12 8 3 2 2 2 3 3 5 6 7 8 6 4 3 3 3 4 2 3 5 12 9 6 2 3 3 11 12 12 16 16 19 22
16 18 20 22 25 26 24 23 23 23 25 26 26 25 21 12 9 9 4 8 18 12 3 2 1 2 2 2 2 4 6 4 4 3 2 1 1 2 1 4 4 4 7 10 7 9 9 12 8 15 17 21 22 24
15 18 20 22 25 27 26 26 25 26 29 29 26 19 12 8 10 11 2 6 19 7 3 1 2 1 3 1 1 2 1 2 3 2 1 1 1 1 4 8 6 3 5 10 13 5 4 14 20 20 22 26 28 28
15 17 21 21 24 26 28 28 26 28 29 20 11 2 7 7 6 4 1 5 18 5 2 2 2 2 3 1 1 2 1 2 1 2 0 1 2 4 7 5 6 12 9 12 11 10 16 22 24 26 28 28 31 29
14 16 20 21 23 25 27 29 28 30 22 10 2 2 3 5 7 9 7 12 7 4 3 2 3 2 3 2 0 0 1 0 1 1 3 2 4 18 16 9 6 11 13 17 19 14 20 24 27 28 28 29 29 29
14 15 19 21 23 24 28 30 29 28 13 8 9 5 6 9 7 3 1 1 3 1 4 4 9 3 6 2 2 1 1 1 1 2 1 3 4 4 5 13 11 10 14 17 8 11 21 28 33 32 30 28 29 28
13 14 17 20 21 23 27 30 28 23 13 10 10 9 2 1 1 2 3 0 2 3 3 3 4 2 4 2 2 1 2 1 3 3 1 3 4 4 2 3 11 12 16 15 6 10 19 26 30 31 31 30 28 25
12 14 16 19 19 25 27 30 28 17 8 2 0 2 3 1 1 5 6 1 1 2 6 4 1 3 3 2 3 1 1 2 1 1 3 4 3 3 2 2 9 13 16 13 10 14 18 27 29 30 31 28 26 25
12 12 15 16 21 25 27 30 24 11 2 1 2 2 2 1 2 1 1 1 2 3 10 11 4 2 2 2 1 1 1 2 1 2 5 3 2 3 4 4 8 15 17 14 14 19 24 30 32 30 28 27 27 26
11 11 13 14 21 24 28 28 15 6 1 0 0 1 1 3 3 3 3 3 3 4 10 5 3 3 1 3 1 2 1 3 5 5 3 3 2 6 5 8 12 17 17 16 19 24 30 33 33 32 28 26 25 25
12 12 10 19 22 24 28 22 4 2 1 1 2 2 4 2 1 4 5 4 4 7 10 2 2 3 3 4 3 7 5 6 4 3 4 3 6 8 8 10 14 17 19 21 24 29 33 33 33 32 30 27 25 23
10 7 16 19 21 25 23 7 3 1 1 2 2 2 2 5 7 6 5 5 3 3 3 2 5 7 2 2 3 4 5 3 3 3 3 6 7 9 12 15 16 18 20 24 28 32 33 32 31 31 31 28 25 23
10 12 15 18 20 22 9 5 3 2 2 3 2 2 7 9 9 9 7 8 5 3 3 3 5 2 5 6 4 4 8 5 3 3 6 7 9 10 13 16 18 19 23 26 29 32 34 35 35 33 30 29 27 25
11 14 15 15 19 13 3 1 2 1 3 4 6 8 7 10 15 15 15 15 13 11 6 2 3 4 4 4 3 4 3 5 4 6 8 9 10 13 15 16 18 21 25 29 33 36 36 34 33 32 31 29 28 26
10 13 12 15 13 4 3 1 2 2 3 2 6 6 9 12 14 13 13 14 11 5 4 4 3 1 2 3 5 6 6 6 8 10 11 12 14 15 16 18 21 23 29 34 36 36 35 33 30 29 27 26 25 25
10 8 12 13 6 4 3 2 2 2 4 4 4 9 7 10 7 6 4 3 7 4 2 4 4 7 8 9 8 9 7 8 13 10 13 18 18 18 18 19 23 28 33 35 36 34 32 32 31 29 27 24 22 22
8 10 12 7 3 2 3 3 2 4 3 4 6 7 5 4 4 3 11 3 3 3 5 9 13 14 11 7 8 8 6 6 11 13 11 17 23 24 23 24 29 33 35 37 36 35 33 31 29 27 26 26 24 22
8 7 4 4 3 3 2 2 1 1 1 4 8 3 3 3 3 10 0 1 1 6 11 13 15 14 13 9 6 5 4 6 8 11 12 19 21 23 24 27 30 35 37 36 33 33 32 30 29 28 27 25 24 23
8 3 3 3 4 3 1 1 1 2 2 3 3 4 4 3 8 2 2 2 6 12 13 14 14 14 6 6 5 6 6 7 9 10 13 21 25 26 26 28 31 34 35 36 33 33 32 31 29 27 25 23 22 19
1 3 3 3 3 2 2 3 4 3 1 1 1 4 3 5 2 2 2 3 10 14 16 16 15 11 12 11 8 6 7 9 10 12 16 21 25 27 28 29 30 31 35 35 34 33 31 29 27 25 23 22 21 19
1 5 3 5 2 3 4 3 3 5 2 2 4 5 5 2 2 4 2 4 10 14 19 18 19 18 13 8 10 8 7 9 11 13 16 20 23 28 33 35 37 35 36 34 31 32 31 29 26 25 24 22 19 18
3 5 4 5 3 5 2 2 2 3 3 4 2 3 3 1 4 3 5 8 14 20 18 16 16 16 18 16 11 9 9 10 11 12 15 19 23 26 30 36 37 36 33 28 29 29 29 29 28 27 25 23 19 15
7 8 5 8 5 4 4 2 4 6 4 4 2 1 4 6 4 3 5 16 18 18 16 14 14 14 14 14 11 10 10 10 10 11 13 17 19 22 27 30 30 29 29 26 26 25 25 25 24 25 23 22 21 17
5 6 9 2 2 3 7 6 5 6 6 7 4 3 4 5 7 12 16 16 15 15 14 12 10 11 11 10 9 9 10 12 15 18 20 23 25 26 30 34 33 29 29 29 26 23 20 21 24 22 21 18 17 14
6 11 4 2 5 5 3 6 4 7 7 6 3 4 6 9 10 12 13 13 13 11 10 10 9 9 9 7 6 7 9 13 17 21 28 32 31 31 30 32 31 33 33 32 29 28 28 27 26 24 21 18 15 13
8 11 3 4 3 3 5 8 6 6 5 5 8 7 6 7 9 9 8 10 9 7 8 7 6 5 4 3 3 5 8 10 13 17 22 27 28 29 31 33 32 32 31 30 29 29 28 25 23 21 19 16 14 11
7 6 6 2 2 4 6 6 4 3 3 4 4 5 3 4 4 4 4 5 5 4 4 5 4 3 2 1 3 6 7 9 11 18 29 34 35 35 33 30 28 27 26 25 25 25 24 22 21 18 16 13 10 7
5 4 3 4 3 3 4 4 2 2 3 3 4 4 4 3 5 4 3 2 1 1 3 4 4 3 4 5 5 6 10 12 15 22 26 29 30 30 30 28 27 26 26 26 25 23 22 19 18 15 13 10 7 5

GFSWCAN_850_spd_033.txt.gz
Wind_Speed
19 19 24 24 25 24 24 23 21 19 20 19 19 22 18 15 22 19 5 5 5 3 5 5 5 7 6 6 3 3 2 4 5 5 4 3 3 4 2 3 4 5 4 3 2 2 6 3 4 4 3 8 6 5
17 19 23 24 25 23 22 22 19 18 18 18 21 19 15 13 18 18 7 2 2 2 1 4 7 8 10 8 11 8 2 1 5 3 2 2 2 1 3 3 1 2 5 3 6 5 5 8 6 8 10 10 5 3
15 18 21 22 24 22 20 20 19 18 17 18 19 19 17 13 14 15 14 6 6 2 4 7 6 9 10 11 12 7 9 6 4 2 2 1 3 2 3 5 2 3 3 2 2 4 5 6 4 8 7 6 7 6
15 17 18 20 23 23 22 20 19 19 19 19 19 19 18 17 14 13 11 4 3 3 1 2 3 5 7 10 13 16 11 8 9 5 4 2 2 4 3 2 3 4 3 3 5 7 10 8 4 3 6 9 13 13
16 17 17 19 22 24 24 22 20 20 19 19 20 21 20 17 13 13 9 10 11 2 2 4 5 4 3 3 4 7 8 10 5 3 3 3 1 2 1 1 3 6 6 4 4 3 2 1 4 5 7 10 13 17
16 17 17 19 22 24 25 24 23 22 21 20 22 22 19 14 8 5 3 4 10 7 3 2 2 2 2 3 5 8 6 5 6 2 2 4 4 3 1 3 6 11 12 9 1 1 2 7 9 8 12 16 17 20
16 17 18 19 22 24 26 25 26 25 22 22 24 24 19 10 7 7 4 6 12 8 3 2 1 1 2 2 3 5 7 5 6 4 4 2 2 5 2 4 5 7 8 11 10 6 4 11 7 13 18 21 23 24
14 17 18 19 22 24 26 26 29 27 27 25 18 11 6 7 9 12 3 2 15 5 2 1 2 1 3 2 2 4 3 5 5 2 2 1 2 2 4 8 11 10 8 7 12 10 4 11 18 20 22 25 27 28
14 16 18 19 22 24 25 27 30 30 25 10 7 9 8 7 6 5 5 7 13 3 1 1 1 2 3 2 2 2 3 2 3 2 1 1 2 5 7 6 9 14 10 9 13 8 15 21 24 27 29 30 31 31
15 15 17 19 21 22 24 27 31 29 15 5 5 2 2 5 4 7 4 6 7 4 3 2 3 1 3 1 1 1 1 1 1 1 4 2 4 17 19 12 8 6 16 16 20 16 21 25 26 28 29 31 32 32
15 15 16 19 20 20 24 27 30 28 8 4 6 4 4 2 5 3 1 2 3 1 4 4 8 3 5 2 1 0 1 1 1 2 1 2 3 3 5 9 15 7 13 16 9 10 18 25 32 33 31 31 31 31
14 14 15 18 20 20 24 26 28 23 10 7 5 5 4 3 3 3 1 1 1 3 2 2 3 5 2 2 2 1 1 1 2 3 1 3 4 5 4 1 8 9 13 14 5 7 16 25 30 31 32 32 31 29
14 13 15 17 18 21 24 25 25 17 7 4 1 2 4 1 1 3 4 2 1 2 0 1 0 2 2 2 3 1 2 2 0 1 3 4 4 5 2 1 8 12 14 12 9 13 18 27 29 30 33 30 29 29
13 12 14 16 16 22 24 25 21 8 2 2 3 2 2 2 2 2 2 1 3 3 5 2 2 1 1 2 1 2 1 1 1 2 5 3 3 2 3 4 10 14 16 14 14 18 23 28 31 31 31 30 30 30
12 11 13 12 18 21 23 24 10 4 2 2 1 2 1 3 3 3 6 5 4 5 2 1 1 1 1 2 2 2 2 3 5 4 3 3 3 3 3 4 9 15 17 17 18 22 27 31 33 33 31 30 28 28
12 11 9 13 17 20 23 17 4 4 2 1 2 2 3 1 1 5 6 6 6 5 3 4 1 1 4 4 3 7 5 5 4 3 4 4 1 3 4 5 9 13 16 18 21 26 31 33 34 34 32 30 28 27
11 7 11 15 16 18 19 5 3 2 2 0 0 1 2 4 5 3 3 6 7 6 2 1 5 5 2 2 2 5 6 3 3 3 5 2 3 4 6 8 11 14 17 19 23 28 33 33 33 33 34 31 28 25
11 10 12 13 15 17 7 3 2 2 1 1 2 2 3 5 7 7 5 5 2 3 3 2 0 2 5 5 4 3 6 7 6 6 2 4 5 6 7 10 13 15 17 21 25 30 32 34 35 34 32 31 29 28
10 10 11 12 12 10 2 0 0 2 2 2 5 6 5 8 11 12 12 12 12 11 10 4 4 3 3 2 2 7 9 7 4 4 5 6 7 8 11 12 14 16 18 22 27 32 35 35 35 35 34 32 31 30
10 10 10 9 10 4 1 1 2 2 2 1 4 5 6 8 10 10 11 11 11 5 5 4 2 2 4 10 15 17 16 13 8 7 7 8 10 11 13 14 16 18 22 26 30 33 35 35 34 33 30 31 30 30
9 7 6 9 6 6 2 2 2 1 2 2 3 6 6 8 6 4 5 3 5 4 2 4 5 10 12 15 15 15 15 13 13 11 7 10 12 14 15 16 18 22 26 29 32 34 34 35 35 32 32 29 27 26
7 7 6 7 6 3 1 2 1 2 1 1 3 4 5 4 4 2 8 3 1 2 4 10 16 20 21 19 18 17 17 15 13 16 12 10 16 19 21 21 23 26 28 31 35 37 36 34 32 30 29 29 27 27
6 4 3 5 4 3 2 2 2 1 1 3 5 1 3 3 2 7 1 1 2 5 11 14 18 19 20 19 15 14 12 12 12 14 11 11 14 18 20 22 23 27 32 35 35 34 34 34 33 32 30 29 28 27
5 3 3 4 5 2 2 2 1 0 1 2 2 4 4 3 7 2 3 2 3 10 12 14 17 20 17 11 11 11 11 11 11 11 12 13 17 20 21 22 23 28 33 36 36 35 35 34 33 31 30 29 27 25
4 4 4 3 3 3 2 2 3 3 2 1 1 4 3 4 2 2 2 3 6 11 15 18 17 15 17 19 17 13 8 9 10 13 13 14 17 21 23 24 25 28 31 37 37 39 38 35 33 31 29 27 26 24
2 5 4 6 2 4 5 3 4 5 3 1 5 4 3 2 2 5 3 4 7 14 17 18 20 21 19 16 19 18 14 11 11 14 14 16 18 23 26 29 29 30 31 35 37 38 37 35 33 31 29 26 23 21
3 5 4 5 4 6 3 2 4 3 3 5 3 1 2 1 5 3 5 6 12 18 19 17 18 20 21 20 18 17 16 14 14 14 12 15 17 20 23 27 31 33 37 36 38 31 33 35 34 33 32 28 22 20
6 8 6 9 5 4 4 2 4 6 4 5 5 2 6 7 4 3 5 15 19 19 19 17 16 17 18 18 17 16 14 13 12 10 12 13 16 17 19 22 23 30 36 37 34 34 35 35 35 34 29 25 26 22
5 7 10 2 3 3 7 6 5 6 7 10 5 3 4 6 8 13 19 18 19 20 19 18 13 13 15 14 13 13 11 11 11 13 15 16 18 18 18 20 25 34 37 36 32 30 31 31 31 27 25 26 25 22
8 14 5 3 5 5 4 8 4 6 9 8 4 5 7 14 15 16 19 18 17 16 15 15 14 14 13 12 11 9 8 8 14 17 13 20 22 21 23 26 32 38 38 36 35 35 35 32 29 27 28 26 23 21
10 12 4 5 3 3 6 8 6 6 6 6 11 12 12 10 15 17 13 11 11 12 11 11 10 10 12 10 9 8 8 7 7 11 15 15 18 24 28 32 38 38 38 37 38 37 34 32 30 29 26 24 22 19
7 7 6 3 2 3 5 6 4 4 3 4 5 7 5 5 6 6 7 7 8 7 9 11 11 10 10 10 9 8 9 9 7 8 10 14 23 27 29 33 37 38 38 37 35 33 31 30 30 28 25 23 20 17
5 4 4 4 3 2 4 4 2 2 4 4 4 4 5 4 7 5 5 4 4 5 7 8 8 8 8 7 5 3 2 0 3 6 12 20 25 30 35 37 37 35 34 33 31 30 28 28 27 25 23 20 17 14

GFSWCAN_850_spd_036.txt.gz
Wind_Speed
15 13 14 18 18 20 20 20 19 19 18 17 19 20 18 11 13 15 5 6 7 3 4 5 6 6 6 6 3 6 3 3 3 5 3 3 4 4 3 2 3 6 5 4 4 5 5 4 9 4 6 7 8 8
14 12 14 16 17 19 21 21 18 16 17 19 20 19 17 14 12 12 9 7 4 2 2 2 6 6 9 8 9 12 3 3 5 3 4 3 4 3 3 2 2 4 5 2 5 4 2 5 6 6 8 9 5 7
14 11 14 15 16 19 20 22 21 19 18 19 19 19 18 15 13 11 11 8 0 3 4 4 5 8 9 10 11 6 5 5 4 3 1 3 4 1 3 4 2 4 4 3 4 2 4 2 1 5 5 5 2 4
13 11 14 13 16 19 20 21 21 20 18 19 17 21 18 16 13 9 9 4 3 3 3 1 1 4 7 11 14 14 9 12 9 4 3 2 4 4 2 1 3 1 5 4 6 14 7 4 3 2 5 6 7 9
12 12 15 13 16 19 20 22 21 21 21 21 20 19 18 17 12 7 8 5 8 3 3 2 5 6 6 6 7 9 12 10 7 4 4 4 1 1 1 1 5 7 6 5 3 4 4 3 4 3 4 7 9 13
12 12 14 14 16 20 21 22 22 23 23 21 20 21 19 16 9 2 4 3 8 3 3 2 2 2 3 4 6 10 5 9 6 4 3 5 4 3 3 4 6 9 12 12 4 3 2 2 5 5 9 11 12 15
12 12 14 14 16 19 21 23 24 25 25 25 24 19 18 12 8 8 3 9 10 8 3 2 2 2 3 3 3 6 9 5 6 3 4 1 2 5 2 7 5 6 7 10 12 5 2 6 3 8 12 15 18 20
11 11 14 16 16 19 21 23 27 29 26 22 14 12 7 5 7 10 3 2 13 5 2 1 2 2 3 2 1 3 4 6 7 3 2 2 3 2 4 12 11 11 11 10 10 12 5 8 11 14 15 18 22 23
11 12 14 14 16 19 21 24 29 29 19 8 7 8 6 4 4 5 3 2 12 3 2 2 1 1 3 2 2 2 2 2 3 2 2 1 3 5 9 9 8 7 6 5 10 9 9 14 17 19 20 22 26 26
10 11 13 14 15 17 20 25 29 27 7 2 3 2 1 3 6 7 6 4 4 4 4 2 2 2 4 1 1 1 0 1 1 0 3 3 4 17 18 12 8 5 7 9 14 12 16 20 24 25 24 23 24 29
10 11 12 14 16 17 19 24 27 25 7 2 3 2 2 2 5 2 1 2 3 1 4 2 4 1 3 1 1 0 0 1 2 1 2 2 4 3 4 9 14 17 9 12 13 11 14 19 26 27 26 25 29 30
9 10 12 13 16 17 18 23 25 22 8 4 3 3 2 2 1 2 0 2 2 2 0 1 1 3 2 2 0 1 0 0 2 3 2 3 3 4 7 5 4 12 12 14 13 9 15 21 27 29 29 31 31 30
9 10 12 12 14 16 19 22 24 16 4 2 2 2 3 2 2 3 5 2 1 6 4 2 1 1 2 2 2 0 1 2 1 2 3 4 5 9 5 4 3 10 14 15 12 12 17 24 27 30 33 32 31 31
8 9 11 11 14 14 19 21 22 6 3 1 2 2 2 1 1 1 1 0 2 3 7 4 2 1 1 1 0 2 0 1 2 3 4 1 4 7 2 2 4 9 13 13 13 17 21 27 30 31 32 32 33 32
8 9 9 11 10 16 18 20 15 4 2 0 1 2 1 1 2 2 2 2 1 5 6 3 2 1 0 1 0 1 1 3 4 4 2 3 7 4 2 2 4 10 12 13 16 20 25 30 32 33 33 33 32 32
9 9 6 6 11 15 17 17 5 5 2 0 1 2 1 1 1 2 1 1 3 4 2 3 1 0 3 2 3 6 4 6 3 3 4 7 4 2 2 2 5 9 13 14 17 21 27 31 34 36 36 34 33 29
8 6 4 8 12 13 17 9 3 3 2 2 2 2 1 1 4 3 4 3 8 4 1 1 3 3 2 1 3 5 4 2 9 12 13 10 5 3 3 3 6 10 13 15 18 23 29 32 34 35 36 33 31 29
11 7 7 8 10 11 6 2 3 2 3 3 2 2 3 3 4 4 3 5 4 3 3 1 1 3 4 4 3 2 5 18 14 14 14 10 7 5 4 5 8 10 14 16 19 24 28 32 35 36 35 34 33 31
9 7 5 6 7 6 2 1 2 3 4 2 3 5 5 6 7 8 8 7 8 9 9 4 4 3 2 1 2 7 13 13 16 23 19 13 10 8 7 8 9 12 14 16 20 25 30 33 34 36 36 34 34 34
10 6 5 5 4 3 2 2 2 3 2 2 4 3 5 5 7 6 6 6 5 4 5 4 2 2 3 5 12 16 15 16 19 21 19 12 12 10 10 10 12 14 16 19 24 28 32 32 34 35 33 34 33 34
8 6 5 4 3 6 2 3 3 3 2 2 2 3 4 5 5 2 3 5 5 5 3 2 3 8 14 17 18 18 20 18 18 18 22 25 15 14 13 13 14 16 20 23 27 30 32 34 38 34 35 33 32 31
6 4 2 3 4 3 2 4 2 4 3 1 3 3 3 3 3 2 5 3 4 4 4 6 14 18 20 20 20 20 20 18 19 20 19 20 21 18 18 18 18 19 21 24 28 33 35 36 36 37 34 32 31 30
5 4 4 5 4 4 2 4 3 2 2 1 2 1 2 3 2 4 3 4 5 4 5 10 13 16 20 21 18 16 16 17 18 19 18 17 20 21 20 20 20 21 23 26 29 33 36 37 37 33 33 33 33 31
7 3 3 4 5 3 4 3 2 3 3 1 1 2 2 3 5 1 3 4 5 5 7 12 17 21 19 17 17 17 16 17 18 17 16 17 19 22 21 22 22 22 24 27 31 33 36 38 36 35 35 35 34 32
4 4 4 2 4 3 2 1 1 1 2 2 2 3 1 2 1 2 3 4 9 6 10 15 17 18 20 22 21 18 15 16 18 20 16 14 16 17 20 22 23 23 24 29 33 36 39 38 36 37 36 35 34 32
3 6 5 6 3 4 4 4 4 5 2 3 5 2 0 1 1 5 3 5 9 9 14 17 20 23 23 19 22 22 19 16 18 21 20 14 15 17 21 24 26 27 26 28 35 40 42 39 40 39 37 35 32 30
4 5 5 5 5 6 3 3 4 2 4 5 3 3 2 2 5 4 5 7 10 14 17 19 20 23 25 25 21 20 20 18 18 21 20 18 15 16 20 24 26 27 28 31 36 41 40 41 40 38 37 35 31 28
6 9 6 10 5 5 4 2 4 6 4 6 7 4 6 7 4 4 5 10 16 19 20 20 20 22 23 22 22 21 20 18 17 17 17 18 18 16 18 19 21 20 26 30 33 37 38 38 37 38 37 35 32 26
5 8 11 3 3 4 8 6 5 7 7 11 5 4 4 7 7 8 14 18 21 22 22 22 18 19 20 20 20 19 18 17 16 15 15 16 14 15 15 15 16 19 23 31 36 36 39 36 37 37 36 33 30 28
7 15 5 4 5 5 5 9 4 6 9 10 6 5 8 14 18 19 20 23 25 21 18 20 19 19 18 18 19 15 13 14 14 17 18 16 15 13 14 16 19 22 26 35 39 40 40 42 39 38 37 33 30 30
10 11 3 5 3 4 6 9 6 5 5 7 13 13 14 13 23 25 21 20 16 14 15 15 14 15 19 18 19 20 17 11 10 11 14 18 14 10 15 20 22 25 31 38 41 40 40 38 39 38 33 30 29 26
7 7 5 2 2 3 5 6 3 3 4 5 5 7 6 5 6 8 11 9 8 10 11 13 15 15 14 16 17 17 16 15 13 11 12 13 14 14 16 20 23 29 35 38 37 39 41 42 40 35 32 29 27 24
5 5 3 4 3 2 4 3 2 3 4 3 3 3 4 4 7 6 7 6 6 7 8 10 10 11 13 13 12 9 5 4 2 2 5 8 10 15 20 23 27 31 36 40 41 41 40 38 35 32 30 28 26 23

GFSWCAN_850_spd_039.txt.gz
Wind_Speed
15 15 13 12 14 15 17 18 17 17 16 17 17 16 14 14 13 9 5 7 8 4 1 4 1 2 5 6 3 5 3 1 3 3 3 3 5 3 3 2 5 7 6 4 4 5 6 6 9 5 8 12 8 3
16 16 13 12 15 15 16 17 18 19 17 16 16 14 14 14 13 8 4 9 7 3 3 2 5 4 8 5 8 10 1 4 3 3 3 4 4 3 5 2 3 4 6 2 7 4 10 14 10 10 7 12 6 0
17 16 12 12 16 16 17 18 18 18 18 17 15 14 14 14 10 7 6 7 2 4 4 3 4 8 9 8 9 5 5 7 5 7 2 3 5 2 4 7 3 7 5 4 3 4 4 14 8 5 7 5 4 2
17 14 11 13 15 16 17 19 19 18 19 18 17 15 13 12 10 7 5 2 2 4 3 1 3 5 8 9 11 14 9 11 9 7 3 2 4 1 2 2 4 3 6 4 8 13 3 4 6 4 4 5 6 6
18 15 12 15 15 15 18 20 20 19 19 20 18 15 13 13 10 6 4 4 6 4 3 4 6 6 6 6 8 12 10 12 9 4 4 3 3 4 4 2 7 8 8 7 5 5 3 4 4 4 3 5 7 10
18 14 12 14 15 15 18 20 21 20 21 20 18 15 12 9 7 2 4 3 6 6 3 2 2 3 3 4 6 6 7 5 4 4 4 5 4 3 3 4 6 10 14 14 12 1 2 1 1 2 4 6 9 12
18 13 11 14 15 16 18 20 22 23 23 20 16 12 9 8 8 6 3 10 9 4 3 3 2 2 2 3 3 5 9 4 4 3 4 3 3 4 3 8 7 8 6 6 7 4 2 5 2 5 8 11 13 15
17 13 11 12 14 15 18 20 23 25 20 9 9 4 2 7 9 4 6 7 10 6 3 2 2 2 2 2 2 4 4 8 6 3 3 2 2 3 4 13 15 14 12 9 9 8 4 7 9 11 11 14 16 16
15 13 10 13 13 15 18 20 23 23 7 4 7 10 10 6 5 4 4 2 11 4 2 2 1 1 2 2 2 2 3 2 3 2 1 1 3 5 9 8 8 8 6 4 8 8 9 10 13 15 17 17 18 19
14 13 10 13 13 14 17 20 22 20 1 1 2 4 3 3 8 4 3 3 4 5 3 2 3 1 1 1 1 2 1 1 1 1 3 3 4 19 21 14 8 4 5 8 8 8 14 16 18 18 16 17 19 22
14 12 10 12 14 14 16 19 22 17 1 1 2 3 6 8 5 1 1 2 3 2 3 1 3 3 1 2 2 1 1 1 2 1 2 2 3 2 4 8 10 16 17 10 11 8 14 14 21 22 20 19 21 23
13 12 10 12 14 13 14 19 21 15 2 2 6 5 3 2 2 2 0 1 1 1 2 2 1 3 2 1 2 1 1 1 2 3 2 3 2 5 10 9 8 6 9 11 11 8 10 13 19 21 23 23 24 25
11 12 11 12 13 13 12 16 19 7 4 2 2 2 2 1 2 3 4 2 1 4 5 5 2 2 2 1 1 1 1 2 1 1 3 3 7 9 10 9 7 2 7 9 11 8 10 15 20 22 25 25 26 27
12 14 13 13 12 12 15 15 16 1 2 1 1 1 1 3 1 1 1 2 2 2 6 5 3 2 2 1 1 2 0 1 2 2 4 2 10 15 10 9 5 2 5 7 7 8 11 16 20 22 25 27 29 29
12 16 14 13 12 10 15 15 13 1 1 1 0 2 2 2 2 1 1 2 1 3 5 3 3 1 1 1 1 1 2 4 4 3 3 12 20 16 11 10 7 3 4 6 7 9 12 17 21 24 25 27 29 29
14 15 13 9 8 11 14 12 5 3 1 2 2 2 2 1 3 2 1 1 3 5 4 3 1 1 3 1 2 5 3 4 1 3 12 18 16 13 12 11 8 5 6 7 8 10 13 18 21 25 27 28 28 28
12 11 9 9 9 11 13 7 1 2 2 3 3 4 3 1 1 2 1 0 5 2 1 1 3 3 1 2 3 4 4 2 10 13 12 15 18 17 15 11 9 6 7 8 9 11 15 21 25 27 29 29 28 27
12 10 10 11 9 10 8 3 3 3 3 3 3 5 4 2 1 1 1 1 1 2 2 1 3 3 4 3 2 2 5 12 12 12 20 19 18 15 14 12 9 7 8 9 12 14 18 22 26 29 31 31 30 27
10 10 11 8 6 4 3 2 2 2 3 2 4 4 4 2 3 4 3 2 1 5 6 3 4 3 2 3 3 6 9 10 15 21 22 18 15 15 13 12 10 8 8 9 11 14 18 22 28 30 31 32 32 29
11 13 11 7 4 2 4 2 3 2 2 2 2 3 3 3 2 3 3 4 3 2 4 3 4 0 0 2 9 13 15 15 16 22 18 11 19 20 18 13 11 10 10 11 13 16 21 24 25 29 32 34 32 30
14 13 11 8 4 7 4 3 2 3 1 2 1 2 2 2 1 1 2 5 5 4 3 6 5 7 10 14 16 18 19 16 15 16 23 30 25 23 20 18 14 13 13 14 16 18 21 25 28 32 34 33 29 31
12 7 6 6 3 3 4 5 3 4 2 2 2 2 2 2 2 3 4 4 5 5 5 5 8 12 15 18 19 19 20 21 21 21 21 21 22 21 20 17 17 17 17 18 19 21 24 28 31 34 36 32 30 29
11 7 3 4 3 4 3 5 3 2 3 3 2 2 2 2 3 3 3 5 6 8 8 5 7 11 15 17 18 19 18 18 20 18 19 21 23 22 22 20 18 19 21 22 22 23 26 29 33 37 34 31 33 32
15 7 4 4 7 3 4 3 3 3 2 2 2 2 2 2 1 3 3 4 7 8 7 5 9 14 17 18 18 19 18 19 22 22 20 20 22 21 20 20 18 19 22 24 24 25 27 31 35 38 34 37 35 35
5 6 5 4 5 3 4 4 3 2 3 3 3 2 2 1 2 3 3 3 8 11 7 8 12 15 18 22 22 21 19 19 21 24 24 21 22 22 22 20 20 19 22 25 26 28 31 34 38 37 37 36 36 36
5 8 7 8 5 5 5 5 6 5 3 3 4 1 2 2 2 4 3 5 9 10 9 11 14 17 20 22 24 24 24 21 22 27 27 22 19 19 20 20 21 22 23 26 27 31 34 37 38 40 37 36 37 37
5 6 5 6 5 5 2 2 4 2 5 5 4 4 3 3 5 3 6 9 8 8 11 14 17 19 23 26 26 26 24 23 24 26 26 25 24 24 25 23 23 24 20 25 29 30 36 40 43 41 39 38 36 34
6 9 6 10 5 5 3 3 5 6 4 6 8 4 6 6 4 4 7 8 8 12 15 18 21 22 24 27 27 27 26 24 24 24 25 26 24 23 22 23 23 22 19 20 27 30 32 39 42 42 40 40 39 36
5 8 10 4 4 5 7 6 4 6 7 11 4 4 4 6 6 6 8 12 17 19 21 23 23 23 25 25 24 23 22 22 23 25 25 26 23 20 15 16 18 19 19 17 19 25 29 36 42 40 38 38 36 34
7 14 5 5 5 6 6 9 4 5 9 10 5 5 7 12 16 17 20 22 24 25 24 21 19 23 24 24 26 23 20 20 21 23 25 24 21 16 14 13 15 17 18 19 23 25 29 36 40 40 40 38 37 35
12 12 4 5 3 4 6 8 6 4 4 7 11 12 13 13 25 26 21 19 19 18 15 15 18 18 21 22 23 26 27 20 16 16 19 21 21 20 16 10 13 15 18 21 26 32 37 39 41 43 41 40 39 36
7 8 5 4 3 3 4 5 3 3 3 3 4 6 5 5 6 7 10 8 8 9 12 15 16 16 16 18 18 19 21 22 19 17 18 20 20 16 14 12 13 17 20 26 32 35 35 38 39 40 40 40 35 30
5 5 3 4 3 3 3 3 2 2 3 3 3 3 4 4 7 6 7 7 7 8 10 11 12 13 14 14 16 17 16 15 13 11 9 8 9 10 11 12 16 21 24 27 29 33 35 37 41 41 38 34 31 29

GFSWCAN_850_spd_042.txt.gz
Wind_Speed
17 16 16 16 13 14 17 18 18 19 19 17 18 16 14 16 14 9 3 2 4 3 3 2 1 1 4 4 3 5 3 1 2 2 2 3 2 3 3 8 6 6 6 3 4 4 6 3 8 1 3 7 9 2
18 17 18 16 12 15 17 17 17 18 18 19 18 18 15 15 13 10 5 4 6 4 3 2 3 2 5 2 6 10 1 3 4 1 2 3 3 2 4 1 2 4 5 5 7 5 8 18 4 4 7 7 4 2
18 18 18 16 12 16 17 17 18 19 19 18 17 18 16 14 11 9 7 4 2 3 5 2 4 5 5 6 6 4 3 5 4 4 0 3 4 2 2 4 5 4 4 2 4 6 4 6 7 8 6 5 2 5
18 17 17 17 12 17 16 18 18 19 19 19 18 18 16 12 10 8 6 3 2 2 2 1 3 4 4 7 8 10 9 7 6 7 5 2 3 7 2 3 2 1 3 5 5 8 1 6 7 5 5 5 4 6
18 17 18 16 12 17 17 17 19 20 20 20 21 18 15 13 11 9 7 6 6 2 2 4 4 5 5 5 6 9 10 8 7 4 2 3 4 3 4 1 3 5 5 3 3 3 1 2 4 3 2 5 6 8
18 17 16 16 13 16 17 17 20 21 21 22 21 17 14 10 7 2 3 3 7 7 2 2 2 2 2 3 4 5 7 7 5 4 3 5 8 3 3 3 4 9 13 15 2 3 2 1 2 1 3 5 7 10
17 16 16 16 13 16 16 17 19 21 23 20 16 12 8 8 10 6 1 8 10 5 1 3 1 1 2 2 2 4 9 6 6 4 5 4 3 4 3 4 6 6 12 7 5 6 2 4 4 4 5 10 12 13
16 15 14 15 13 15 15 17 19 22 20 10 10 5 2 7 10 5 4 14 9 3 1 1 2 1 0 1 2 4 4 7 5 3 3 3 4 4 4 7 17 21 14 7 7 7 7 7 8 9 10 12 15 15
15 14 13 16 14 13 14 17 18 21 13 4 7 10 7 4 4 5 9 6 10 2 2 1 1 1 2 3 2 2 4 2 3 3 2 1 2 4 5 6 8 10 2 2 4 8 7 8 10 12 13 14 14 18
14 11 13 14 13 12 14 17 18 20 5 0 1 2 1 3 5 4 5 4 5 3 3 2 3 1 1 1 2 0 2 1 1 1 4 2 3 16 24 24 21 13 9 8 4 5 10 12 13 16 15 14 15 19
11 11 12 13 13 11 13 15 19 19 3 3 2 1 2 7 2 1 2 2 4 1 3 2 2 2 3 1 2 1 0 0 2 1 1 2 2 2 9 13 13 11 14 16 10 9 9 13 17 18 18 17 19 21
12 12 12 12 12 12 12 14 18 16 1 2 5 7 5 2 1 2 0 0 1 2 1 1 1 2 2 1 1 1 1 1 2 2 1 2 1 15 19 16 15 11 5 8 11 8 6 9 16 19 20 21 22 22
10 12 12 11 12 12 11 13 15 10 4 4 2 4 1 0 2 3 5 2 2 1 2 3 0 1 1 1 1 1 0 2 0 1 2 2 12 24 20 17 15 9 1 4 6 6 7 11 16 20 22 23 23 24
10 12 13 12 13 12 9 13 13 5 3 2 1 2 3 3 3 1 2 2 3 2 0 1 2 1 1 1 1 0 1 1 2 2 3 2 19 24 21 18 15 12 7 2 2 5 9 14 17 18 22 23 25 27
12 15 15 12 13 12 10 11 11 2 2 2 2 4 4 1 3 4 1 1 2 0 3 1 3 1 1 1 1 1 1 3 3 2 2 15 22 22 21 21 18 12 8 6 3 4 8 12 16 20 22 24 26 29
14 14 12 10 7 8 12 10 7 2 1 2 2 2 2 2 3 4 1 2 1 0 1 1 1 0 3 2 2 5 2 4 1 2 14 20 22 23 22 19 16 13 9 6 5 4 7 11 16 19 22 24 27 27
11 11 9 8 8 11 12 7 2 2 3 3 2 5 2 1 3 6 5 3 1 1 1 1 3 2 1 2 3 3 3 2 7 14 15 19 21 23 22 19 16 14 10 7 6 5 7 11 15 21 24 25 27 28
13 11 7 8 10 10 8 3 2 2 4 4 2 4 6 3 4 4 4 4 4 2 1 0 1 3 3 3 2 2 3 7 9 11 18 19 17 18 21 20 18 15 11 9 7 6 9 13 17 21 24 27 28 28
12 10 7 8 7 5 2 1 2 2 4 2 3 3 4 3 5 3 3 3 4 4 1 1 3 3 2 2 2 1 6 9 13 20 21 16 12 20 22 20 17 15 13 10 8 7 9 12 18 21 25 27 29 30
12 9 8 7 5 3 2 1 2 2 2 2 4 4 3 3 3 3 6 7 6 4 3 3 4 2 2 2 4 9 12 14 17 21 22 13 21 22 23 21 17 14 13 12 9 10 11 15 18 19 23 27 30 32
13 14 9 7 4 6 3 2 1 3 2 1 3 3 2 2 3 3 3 7 7 5 3 9 6 9 7 8 11 12 14 17 18 18 24 28 26 24 23 20 18 16 13 13 12 12 13 14 16 19 24 29 30 31
13 12 5 6 5 3 3 4 2 2 2 2 3 3 3 3 4 5 6 7 5 7 7 7 10 7 8 9 11 13 15 16 18 20 19 18 21 22 24 21 21 20 16 15 15 16 15 16 17 21 26 29 30 30
15 13 6 4 2 3 2 4 3 3 2 3 1 2 3 3 4 5 4 6 7 10 14 12 8 5 6 8 11 13 14 15 17 18 20 22 23 23 22 22 20 20 20 18 16 18 18 15 18 23 27 30 32 31
17 10 7 7 9 2 3 3 3 3 2 2 2 2 2 4 4 4 4 5 9 8 13 12 7 5 8 10 13 16 17 17 19 21 21 20 22 24 23 23 24 21 20 20 19 18 18 17 21 25 29 32 34 33
6 6 5 4 6 3 3 3 3 3 2 3 2 2 2 3 1 3 3 4 10 14 14 11 9 9 11 13 15 16 17 19 21 25 24 23 22 25 26 24 22 20 17 20 20 20 21 20 23 27 31 36 38 35
5 10 9 9 4 5 5 5 5 5 3 3 4 2 2 2 0 6 3 5 11 14 15 11 10 12 14 14 19 20 21 20 22 26 28 24 21 21 24 27 28 24 17 17 19 21 24 25 25 28 32 37 35 34
6 5 6 7 5 4 2 2 3 2 4 5 3 4 2 2 6 4 6 8 12 12 9 10 12 15 17 19 20 20 22 23 23 25 26 26 25 24 25 27 30 27 21 20 18 21 24 26 27 28 32 36 35 34
4 10 6 10 6 5 3 3 5 6 4 6 9 4 6 8 5 3 7 12 15 12 11 14 16 18 21 22 21 21 23 22 23 24 25 26 23 20 19 20 20 20 19 22 22 20 22 24 26 27 32 36 38 36
6 10 12 4 3 5 8 7 4 7 7 12 5 4 4 6 5 6 7 9 12 16 18 19 20 23 22 20 20 20 20 21 23 25 26 29 28 21 15 15 15 16 16 18 18 19 19 21 24 24 29 37 37 35
8 18 6 7 5 6 6 9 5 6 10 11 6 5 6 11 12 13 15 19 21 22 23 24 22 19 18 21 23 22 20 20 20 21 24 28 27 22 19 16 16 15 14 14 15 17 15 18 24 29 33 38 39 40
15 13 5 6 4 4 7 9 8 6 6 8 13 13 14 12 23 24 21 19 19 20 18 15 13 14 17 19 21 25 27 21 19 19 20 23 26 25 21 18 15 15 13 12 16 18 23 29 32 31 35 39 40 38
9 10 7 4 3 3 5 7 5 4 4 4 4 7 5 5 6 8 12 10 8 9 9 10 11 12 15 16 17 17 19 21 21 21 21 20 19 18 17 15 12 13 11 12 16 23 31 30 30 33 36 38 39 39
5 5 4 4 3 3 5 5 3 2 3 2 3 4 5 4 7 6 8 9 9 8 7 8 10 11 13 14 15 16 18 19 17 16 16 16 16 14 11 9 9 10 11 14 19 24 28 29 31 32 37 40 42 39

GFSWCAN_850_spd_045.txt.gz
Wind_Speed
16 23 26 19 16 14 9 15 15 16 16 15 15 13 15 13 12 9 5 4 5 4 9 3 1 1 5 4 3 6 3 1 1 2 1 2 2 3 1 6 7 7 6 3 4 3 7 5 5 1 3 4 3 2
19 23 22 18 16 12 10 16 15 14 17 15 15 14 14 13 11 8 6 7 7 8 6 5 5 2 3 3 6 10 2 3 5 2 1 2 2 2 2 2 3 4 6 5 7 6 7 5 4 3 5 4 2 4
19 23 19 18 16 13 10 17 14 15 16 16 15 13 15 12 11 9 8 6 4 4 5 4 5 6 5 5 6 5 4 7 5 3 1 2 4 1 2 4 4 3 8 3 3 5 9 4 1 2 4 2 1 6
22 23 18 17 16 14 11 17 15 15 17 16 16 16 15 12 11 10 10 8 3 3 3 1 3 4 6 8 9 9 5 8 6 5 4 2 2 3 2 3 1 5 4 4 4 6 3 2 1 3 3 1 3 7
27 20 19 16 17 13 13 17 16 16 18 17 18 15 14 11 10 11 9 11 8 3 2 4 4 6 6 5 7 8 8 8 5 4 3 3 3 3 3 1 3 5 6 4 4 4 2 2 3 3 3 1 4 9
18 18 18 15 17 13 13 18 16 17 18 19 15 15 14 9 7 5 4 7 9 8 2 1 2 2 2 3 4 6 7 7 4 5 2 4 8 2 2 2 7 12 15 10 6 6 4 3 4 3 3 3 5 8
19 15 15 16 16 11 15 17 15 17 18 15 13 9 3 7 12 7 2 8 11 6 1 2 3 1 2 3 3 5 8 4 4 2 4 3 2 3 2 3 8 19 24 20 11 7 4 8 4 4 4 6 9 10
16 15 14 16 13 11 16 14 14 16 17 11 8 6 4 9 13 6 5 15 11 4 2 1 2 2 3 1 2 4 4 6 6 3 3 3 4 5 3 6 11 13 11 7 4 8 8 7 7 7 7 10 12 13
13 14 12 14 11 10 13 12 14 16 11 3 5 9 8 5 2 4 11 9 5 2 2 1 1 2 3 4 3 3 5 2 4 2 2 2 2 3 3 11 15 15 10 6 2 4 5 6 8 10 12 14 13 15
12 8 13 10 9 11 11 12 14 15 2 2 2 1 1 1 5 10 7 6 6 4 3 2 2 1 2 1 2 1 2 0 2 1 3 2 2 6 20 20 16 16 11 8 9 5 8 9 12 14 15 14 12 16
9 9 9 6 8 10 10 11 13 12 4 3 2 2 1 3 3 4 4 5 5 2 5 3 2 1 1 1 1 1 1 0 1 0 1 1 1 7 26 21 19 16 14 12 15 11 10 11 12 16 17 15 15 17
10 7 7 6 9 8 9 10 13 9 4 4 4 2 4 2 1 1 2 0 2 3 2 2 1 2 2 1 1 1 1 1 2 1 1 1 2 18 22 22 20 17 13 8 5 10 11 6 9 15 16 16 19 17
16 9 5 6 9 7 8 8 11 7 5 9 2 2 2 2 2 3 5 3 2 4 3 2 1 2 2 2 1 1 1 2 0 1 1 0 10 22 22 23 21 15 12 8 3 4 5 7 10 14 16 18 19 19
16 11 7 6 9 7 7 7 8 4 4 2 2 2 3 3 3 2 2 1 1 3 3 1 2 2 2 0 1 1 1 2 1 1 2 2 17 22 21 20 18 18 13 10 7 3 4 8 10 12 16 18 21 23
15 10 8 8 9 6 3 7 6 1 4 2 2 4 4 2 2 4 5 3 1 2 3 1 2 1 1 1 1 0 1 3 3 2 1 11 16 18 20 20 18 17 13 9 7 4 2 7 12 14 16 19 21 23
10 10 6 4 2 3 5 6 4 1 2 2 2 2 1 1 1 3 3 3 0 1 1 0 0 0 2 2 1 4 2 4 2 1 5 13 13 16 19 18 16 15 12 9 7 4 3 7 11 13 16 19 22 24
9 5 5 2 4 6 6 4 2 2 3 2 3 6 1 0 1 5 5 4 1 1 1 1 3 3 1 1 2 2 2 2 2 2 7 11 12 13 18 19 19 16 13 10 7 5 5 6 8 12 17 19 21 24
12 6 5 1 5 7 4 2 2 3 3 5 2 4 7 3 2 3 4 5 3 1 1 1 1 2 3 3 3 2 3 1 2 5 10 13 8 9 17 19 18 16 14 11 9 7 5 7 8 11 15 19 21 24
11 5 5 1 3 4 2 1 1 2 3 1 3 4 5 4 7 5 7 5 6 2 2 1 3 3 3 3 3 6 3 3 7 11 13 13 9 13 20 19 15 13 13 12 9 7 6 7 9 11 15 19 23 26
7 4 5 3 1 2 2 1 2 2 2 2 4 4 3 3 6 8 6 6 5 3 3 3 4 3 2 4 3 2 5 7 10 15 18 9 16 16 17 17 15 14 13 12 11 9 8 9 12 13 15 19 23 27
11 11 10 6 2 4 3 2 3 3 2 3 5 5 2 4 5 5 5 11 6 5 4 12 11 10 6 7 7 8 9 10 11 13 17 21 19 19 17 17 17 16 15 13 12 11 11 11 10 12 16 20 23 26
11 10 9 6 4 3 3 5 2 2 4 2 4 5 3 3 4 6 6 9 7 9 9 8 10 11 9 7 7 8 8 10 11 13 14 16 18 20 21 20 18 18 18 16 13 13 13 13 13 14 17 20 23 25
12 14 6 5 4 3 2 3 3 4 3 4 4 2 2 3 4 6 4 7 9 12 16 15 11 9 8 6 6 7 8 10 12 13 15 17 18 19 19 19 17 19 21 20 15 15 15 14 15 16 17 21 23 25
13 7 6 6 8 2 2 2 3 3 3 2 2 2 2 5 5 4 3 5 11 9 14 15 12 11 9 7 7 8 10 12 14 16 17 18 19 19 19 21 22 21 19 19 18 18 16 15 15 20 21 24 25 29
6 6 5 3 5 3 1 1 2 3 2 3 2 2 2 5 1 3 3 5 12 13 11 14 15 13 9 8 9 10 13 15 18 21 21 20 22 24 24 22 21 21 16 17 18 16 16 15 18 22 24 26 29 32
5 11 10 11 5 6 5 4 5 5 3 3 4 2 3 2 1 6 3 5 10 10 16 17 14 11 11 11 14 15 18 20 21 24 25 22 22 23 24 26 26 25 16 14 17 16 15 15 19 23 26 27 31 34
6 6 8 8 6 5 2 1 3 2 4 5 3 4 3 3 5 4 5 7 7 12 12 10 10 11 13 14 18 21 23 24 24 27 28 26 25 23 24 26 27 24 21 17 17 18 16 16 19 22 26 27 31 33
4 12 7 13 6 6 4 3 4 5 4 6 9 5 5 7 4 3 5 7 13 13 11 11 11 14 18 21 22 25 24 22 25 27 28 29 25 22 19 21 22 19 19 18 17 18 21 20 19 21 23 27 30 32
6 13 13 4 4 6 9 7 5 7 6 11 4 4 4 6 5 4 6 8 11 15 17 17 18 21 23 23 23 21 21 22 25 28 28 31 30 25 19 19 19 17 17 17 16 17 18 18 18 20 21 24 28 29
10 21 6 7 6 7 9 12 5 7 9 11 6 5 6 9 9 9 10 12 15 18 20 22 23 24 21 18 19 20 18 19 21 22 25 29 29 26 23 21 21 20 18 19 17 15 15 17 15 17 23 28 29 31
19 13 6 7 5 6 9 10 9 8 8 8 14 15 16 13 23 25 23 22 21 22 22 19 17 14 14 16 19 21 22 16 16 19 21 25 25 25 24 22 19 18 18 17 16 15 13 17 21 26 25 27 28 31
11 9 7 5 3 4 6 7 5 5 4 5 6 9 6 6 6 10 15 14 13 12 9 9 8 10 14 14 15 17 19 21 22 21 21 19 19 24 22 18 14 14 14 14 14 12 13 21 24 25 24 25 28 31
5 6 5 6 4 4 6 6 3 2 4 3 3 3 5 4 8 6 7 9 10 9 7 7 8 9 11 12 13 13 15 17 17 19 20 17 15 19 17 13 11 11 11 12 12 12 15 20 23 25 25 25 27 33

GFSWCAN_850_spd_048.txt.gz
Wind_Speed
16 14 15 14 20 20 13 8 13 14 14 15 13 15 13 14 13 8 4 5 2 3 11 5 2 1 3 2 3 5 3 1 1 1 2 1 2 3 3 5 6 7 6 3 3 3 7 3 2 2 3 3 6 6
16 13 14 16 19 16 14 9 14 14 13 14 14 14 12 14 12 8 5 6 8 6 7 7 6 3 3 3 5 9 1 3 4 1 1 1 2 2 2 3 2 4 6 4 6 5 6 5 5 8 8 8 6 8
20 19 19 17 15 17 17 9 12 15 13 12 15 14 14 14 12 9 10 9 7 3 8 9 8 9 5 5 5 5 5 6 4 2 2 2 3 1 2 4 3 4 8 3 1 4 12 20 13 7 6 6 6 8
22 20 17 17 14 19 15 9 12 15 14 14 16 14 17 14 12 11 11 9 7 4 4 4 6 10 8 9 10 9 4 8 4 5 2 2 2 3 2 2 1 4 4 5 5 7 6 6 7 6 5 5 4 7
20 19 22 17 18 18 13 9 13 16 14 16 16 16 13 14 11 11 13 14 15 5 3 3 5 7 6 6 9 10 9 9 6 4 2 3 3 2 2 2 4 5 6 4 4 4 5 6 5 6 6 5 4 9
19 20 12 13 13 14 12 9 16 15 14 16 14 12 14 10 8 8 2 11 14 13 3 1 1 3 4 4 6 8 10 10 6 4 3 4 4 4 2 3 4 5 7 4 4 14 11 9 7 8 7 5 5 8
19 16 14 12 15 12 9 12 16 14 15 14 11 8 6 9 14 9 3 4 11 9 3 2 3 2 3 3 3 6 9 6 6 3 5 3 4 7 2 2 7 19 19 17 14 11 9 11 7 7 6 5 6 7
18 17 17 11 13 10 8 14 13 14 13 6 4 2 5 9 12 10 2 13 12 5 2 1 2 1 5 2 1 4 4 4 7 3 3 3 4 4 3 3 14 17 17 9 10 7 10 9 8 8 7 7 8 10
18 14 12 10 9 8 8 13 12 11 10 4 6 8 10 6 3 2 8 11 4 3 2 1 1 1 5 4 4 4 5 2 6 2 2 2 2 2 4 12 14 16 14 18 13 9 7 6 7 9 10 10 11 12
14 11 8 5 9 5 10 11 9 11 2 8 6 1 0 1 7 12 7 5 3 3 3 2 2 2 3 2 2 2 3 1 2 1 2 1 0 7 13 16 13 16 16 14 13 12 12 11 11 11 13 11 12 12
16 13 12 6 7 5 8 8 9 9 9 8 6 3 2 4 5 4 4 5 5 2 5 5 5 2 3 1 1 0 1 0 1 1 1 1 2 4 17 16 14 13 13 12 14 17 17 12 13 12 14 14 14 14
18 15 13 11 3 5 7 8 8 7 6 6 6 5 4 4 4 2 2 1 3 4 4 4 4 4 2 2 1 1 1 0 3 3 1 1 1 13 18 18 16 13 11 9 6 5 9 13 12 11 13 14 15 15
18 15 12 10 3 4 6 6 7 3 8 9 3 4 3 3 3 4 5 3 2 3 4 4 2 2 2 2 1 1 2 3 2 1 2 1 5 15 17 18 16 13 10 9 7 2 3 3 3 8 13 15 13 13
16 17 10 6 5 4 7 3 5 2 6 3 3 4 3 3 3 2 2 1 1 1 4 4 2 1 1 1 1 1 1 2 1 2 3 1 11 15 16 16 17 17 14 11 9 7 4 3 4 6 9 11 13 18
15 13 11 10 5 4 3 3 3 4 5 3 3 5 4 3 1 2 5 3 3 2 3 4 3 2 2 1 1 1 1 3 4 2 2 5 8 12 16 18 18 17 15 13 10 8 5 4 6 8 9 12 15 17
7 9 11 8 6 5 3 2 3 4 3 4 4 2 3 3 2 3 2 2 2 3 2 2 2 1 3 2 2 4 2 4 2 2 2 4 5 8 14 17 19 17 15 13 11 8 6 5 6 8 11 13 16 18
12 9 6 3 8 3 3 3 3 3 3 3 4 6 2 1 1 4 5 6 4 2 1 1 3 3 1 2 3 3 3 2 9 6 2 5 7 6 10 15 17 16 15 14 12 9 7 6 7 10 13 14 16 18
12 4 3 2 6 2 1 3 3 3 4 5 2 3 5 2 3 3 4 5 4 3 2 1 2 2 3 3 3 2 3 7 4 3 1 5 8 8 12 17 16 14 14 13 12 10 8 6 6 9 11 13 15 18
7 5 2 2 6 1 1 2 3 3 4 2 4 3 4 3 4 3 5 5 6 3 1 2 3 3 3 3 5 7 7 4 3 4 8 10 10 10 16 16 16 14 12 12 11 11 9 8 8 9 10 13 16 18
5 4 5 3 5 2 2 2 3 3 3 3 3 4 3 3 5 7 8 6 4 3 3 3 4 7 5 6 8 9 7 5 6 9 10 6 9 11 12 13 15 16 17 14 11 12 11 9 9 11 11 13 15 18
11 9 6 6 4 3 2 2 3 3 2 3 4 4 2 4 5 6 7 11 6 5 4 12 13 12 10 8 7 6 6 6 7 8 9 12 11 14 15 15 15 16 16 16 16 14 13 13 10 11 13 15 16 17
15 10 7 8 3 2 2 4 1 2 3 2 5 4 2 2 3 6 7 9 7 11 12 9 11 14 14 12 9 8 7 7 7 8 10 13 15 16 18 17 17 17 17 17 17 17 16 14 14 16 15 15 17 18
13 8 5 6 4 3 2 3 3 3 2 2 3 1 2 3 3 6 4 8 9 16 19 19 14 11 13 11 10 9 7 7 8 9 10 12 14 15 18 19 19 21 22 20 18 19 20 17 15 17 17 16 18 19
12 7 5 5 5 2 2 2 2 2 2 1 2 2 2 4 5 4 3 6 12 11 14 17 17 16 15 14 11 8 7 8 9 12 12 14 17 17 18 20 20 21 21 22 20 20 19 18 15 17 18 19 19 20
5 6 5 2 5 3 1 1 1 1 2 3 2 2 1 4 1 3 4 6 12 15 14 15 18 17 16 12 10 8 9 10 13 17 17 17 20 22 23 22 23 22 20 19 19 20 20 18 16 16 18 20 21 21
5 10 9 11 3 5 5 4 4 5 3 2 4 1 3 2 1 6 3 5 9 8 16 18 18 18 17 12 10 9 12 14 17 22 23 22 23 25 26 27 28 27 21 16 18 21 21 20 18 16 18 19 22 22
6 7 8 8 6 5 2 3 4 3 4 5 3 3 2 3 6 4 5 5 4 7 10 12 13 12 9 8 12 15 17 19 21 25 25 25 26 26 27 27 28 26 23 22 20 20 22 21 21 20 18 18 19 23
5 13 8 15 8 8 4 3 5 6 4 6 8 5 5 7 4 2 3 4 10 13 13 13 12 12 13 14 17 19 21 24 25 24 26 28 28 25 22 24 26 25 25 24 22 20 20 21 20 22 21 19 19 21
7 14 15 4 4 6 10 8 6 9 8 13 5 4 4 6 4 3 4 6 12 16 15 15 15 16 18 20 22 23 25 22 22 26 28 31 31 26 20 21 22 23 22 23 21 20 21 21 20 20 23 21 18 20
9 24 7 8 7 7 10 13 6 9 12 12 7 6 9 13 13 11 10 11 12 13 14 17 20 22 23 24 24 21 18 19 22 24 27 29 29 29 27 23 20 20 21 23 25 24 21 21 20 19 20 19 20 20
20 13 5 7 5 7 10 13 11 8 8 9 15 17 18 15 26 29 27 25 26 27 27 27 25 22 20 18 17 18 19 18 18 20 23 26 29 29 28 21 20 22 21 21 20 21 20 18 18 18 21 23 20 19
13 12 8 4 2 5 7 8 6 6 5 6 7 10 9 7 7 13 17 17 16 18 17 16 13 12 11 12 15 16 19 20 20 22 22 23 23 23 23 17 19 21 19 17 16 17 16 16 16 17 20 20 18 19
6 6 5 6 4 5 6 6 3 3 4 4 5 5 7 5 8 7 8 10 10 7 7 7 7 7 9 11 12 14 17 19 21 23 23 21 20 18 22 21 21 20 18 17 14 13 14 15 14 16 18 17 17 17

GFSWCAN_850_spd_051.txt.gz
Wind_Speed
18 18 17 13 13 14 16 13 9 13 16 13 14 12 12 9 10 9 6 6 4 5 14 7 5 3 3 4 3 5 3 1 2 1 2 2 2 2 2 4 5 6 5 3 4 3 6 4 2 2 3 5 6 5
18 18 15 13 14 15 15 12 13 11 16 14 13 14 14 10 11 9 6 9 8 8 8 8 11 9 5 4 3 8 3 3 4 2 1 1 1 1 2 3 1 4 6 4 7 5 5 3 3 7 10 9 7 5
19 18 16 18 20 16 11 14 18 11 15 15 10 15 17 11 11 12 13 9 10 7 13 15 11 9 8 6 7 4 4 4 3 3 3 1 3 3 2 4 3 4 10 3 1 4 9 15 13 13 9 9 8 7
20 18 18 18 17 14 13 17 18 10 15 18 11 16 15 14 13 11 13 10 10 6 4 4 10 12 9 7 7 6 4 7 4 6 2 2 2 5 2 3 2 4 8 5 5 9 17 8 6 6 8 9 7 7
17 18 17 17 19 18 14 19 16 10 17 13 15 16 16 15 13 14 13 15 15 8 4 4 6 11 13 10 12 13 11 9 6 4 2 3 3 1 1 1 3 4 5 4 4 3 3 10 8 7 10 9 7 8
16 17 17 19 17 13 12 18 9 14 18 14 15 13 13 12 9 8 5 10 20 19 5 2 2 6 7 8 8 8 10 10 6 4 3 4 5 5 2 2 1 5 6 9 6 12 18 15 12 10 9 7 7 7
19 19 17 18 14 12 15 13 9 15 14 14 12 10 10 8 13 12 3 2 8 14 4 2 1 2 5 5 5 6 9 7 7 4 4 3 4 6 2 3 5 11 12 10 12 8 10 11 8 7 8 7 6 7
20 21 17 18 14 12 17 10 11 13 13 10 7 3 2 7 9 13 5 8 13 8 4 1 1 0 7 4 3 5 4 2 6 3 3 3 3 6 3 5 12 14 17 7 11 10 11 13 9 9 9 9 8 8
16 18 16 15 14 11 15 7 12 10 10 1 2 8 8 6 5 1 4 10 9 4 3 1 1 2 7 4 5 6 7 3 6 2 2 2 3 4 1 9 10 13 11 19 21 16 11 9 9 9 9 10 10 11
19 18 16 15 12 13 6 9 9 8 5 6 6 3 3 2 4 9 6 5 2 3 4 2 3 2 5 5 2 1 5 1 2 2 2 2 1 7 2 11 12 14 14 14 18 17 12 15 13 10 10 10 10 11
19 15 14 15 17 8 5 9 7 6 6 8 4 2 3 5 4 1 2 3 2 2 5 5 8 3 3 2 1 0 0 0 1 1 2 2 2 1 8 10 10 10 11 10 11 16 17 20 20 14 13 13 13 13
19 18 16 16 16 6 5 7 5 3 7 6 4 3 5 3 2 2 3 2 3 4 3 2 4 3 3 2 2 1 1 0 3 4 1 2 2 4 9 11 10 10 9 8 7 10 10 11 13 16 15 13 14 13
23 18 16 15 15 8 4 6 4 3 8 8 3 3 4 4 3 4 6 3 2 1 1 1 1 3 3 2 2 1 1 2 2 2 3 1 2 7 9 11 11 10 8 8 7 6 5 5 6 8 9 11 11 11
16 19 15 10 9 9 6 7 3 4 7 3 4 4 3 3 4 3 3 2 4 3 2 3 3 1 1 2 1 1 1 1 2 2 3 1 2 6 9 12 13 14 13 11 10 10 8 5 4 2 5 8 9 11
14 12 12 11 9 9 9 6 4 6 6 4 3 4 4 2 1 2 6 6 5 5 4 3 2 2 1 1 1 0 1 3 4 3 2 4 3 5 9 14 16 16 15 15 13 11 10 7 5 3 5 6 8 9
13 11 14 10 10 11 7 5 5 5 3 4 4 1 3 2 2 3 6 5 7 6 5 2 1 2 3 2 3 5 2 5 2 2 6 4 2 2 6 11 14 14 15 14 14 13 11 8 7 7 7 7 8 10
12 9 9 11 10 12 7 6 6 5 3 3 4 6 3 1 2 4 5 5 7 7 2 2 4 4 2 2 3 3 3 2 8 9 6 3 2 3 6 10 14 13 13 15 14 12 11 10 8 7 7 8 9 10
12 6 8 6 10 10 4 4 3 3 4 5 2 3 5 3 3 3 4 6 6 5 4 2 3 3 4 3 3 3 5 10 10 8 4 1 5 7 8 13 15 15 14 14 14 13 12 10 8 8 8 8 9 10
7 9 6 7 8 9 4 3 3 3 4 2 3 3 3 3 7 5 6 6 6 4 3 2 3 4 4 5 5 9 12 13 9 9 6 6 8 7 10 12 13 14 15 16 16 16 14 13 12 11 10 11 11 11
6 8 8 7 6 3 1 2 3 3 2 2 3 3 3 3 6 8 8 6 5 3 4 4 4 5 4 6 7 8 10 11 9 7 7 8 7 9 10 10 12 14 15 16 16 17 15 13 11 13 12 12 12 12
11 9 6 3 4 3 3 3 4 3 2 2 2 3 3 4 5 6 6 9 6 5 4 12 14 9 11 8 9 10 10 9 9 9 8 6 7 9 10 12 14 14 16 16 18 17 17 16 15 13 14 16 15 13
11 10 5 3 3 2 1 3 2 2 2 2 3 3 3 2 3 5 6 9 7 11 14 13 15 15 17 16 14 12 10 9 9 8 8 8 8 9 10 12 15 16 15 16 17 19 20 20 18 16 16 16 17 17
10 5 3 4 3 2 1 2 2 2 2 1 2 1 2 3 3 6 4 8 10 15 20 23 20 16 13 15 15 14 12 10 9 8 8 8 9 10 13 15 17 20 22 20 18 19 19 20 19 17 17 17 18 18
8 3 2 2 3 1 1 2 1 1 1 1 1 3 2 3 5 3 4 7 15 15 16 19 20 19 17 18 17 14 12 11 10 9 8 10 12 13 15 16 17 19 20 21 22 21 19 19 21 19 17 18 18 19
5 4 3 2 3 2 1 2 3 2 2 2 1 3 2 3 1 3 4 7 11 15 16 14 16 18 20 18 16 15 14 12 11 12 12 13 16 19 18 16 19 20 19 17 17 20 21 20 19 19 18 18 19 18
3 9 9 9 3 4 5 3 3 5 3 1 4 1 2 2 0 6 3 4 7 6 9 16 17 19 21 18 16 15 11 11 13 16 16 17 19 19 19 21 23 24 21 18 18 20 21 22 21 20 20 19 17 16
5 6 7 7 5 6 1 2 3 3 4 5 3 3 2 2 5 4 5 5 4 2 3 8 10 13 10 13 13 13 13 13 15 17 20 23 22 21 21 21 21 21 24 26 25 23 23 24 25 22 21 20 19 17
7 14 8 14 8 8 5 3 5 6 4 6 9 4 5 7 4 3 3 3 3 5 9 11 11 12 13 13 14 15 15 17 19 22 24 23 21 18 17 21 20 20 22 24 25 25 23 22 23 23 21 21 20 18
7 11 14 4 5 7 12 8 7 9 8 14 5 4 5 7 7 5 5 5 7 11 14 15 14 14 16 17 18 20 20 21 23 25 23 25 25 24 19 19 21 22 23 24 23 23 24 23 23 23 22 21 18 17
10 21 7 8 7 7 11 16 7 10 14 15 9 7 10 17 20 19 16 14 14 14 15 18 20 21 21 21 22 23 23 24 22 21 23 24 23 25 25 25 25 24 22 22 23 24 22 23 24 25 24 22 21 18
14 21 6 8 6 8 12 16 13 10 10 11 17 18 21 20 30 33 31 29 28 29 30 29 28 26 24 23 22 22 19 17 18 18 20 23 24 25 25 24 21 21 17 18 21 22 20 19 19 19 19 19 18 18
16 14 11 4 3 6 10 10 7 6 5 7 8 13 12 10 9 15 20 20 20 21 20 21 23 21 19 17 13 13 15 15 16 18 21 23 26 27 25 21 17 17 20 20 20 18 17 18 17 16 16 15 13 14
8 8 5 6 4 5 7 7 5 3 4 4 6 7 7 6 9 8 11 13 11 8 8 7 7 6 7 7 9 11 13 15 17 20 23 25 26 26 23 20 15 15 18 20 20 17 17 15 13 12 12 11 11 12

GFSWCAN_850_spd_054.txt.gz
Wind_Speed
23 21 18 17 16 13 12 13 13 12 11 15 14 14 13 13 8 11 8 6 5 5 16 10 7 4 2 3 4 4 3 1 2 2 2 2 2 2 2 4 5 7 5 3 3 3 7 5 3 2 3 3 4 6
22 21 20 17 15 12 14 15 14 11 12 15 16 15 11 14 7 11 10 7 11 9 9 10 16 16 12 4 2 8 2 3 5 2 1 1 1 1 2 2 1 4 5 4 7 5 5 4 5 9 11 12 6 5
22 21 20 19 15 16 16 13 13 12 14 15 17 18 11 15 9 12 13 12 11 8 17 21 20 16 15 14 9 4 4 4 4 3 3 1 2 3 3 4 2 3 6 2 1 3 7 14 15 19 14 9 7 8
22 21 20 20 16 16 13 15 15 14 15 16 17 18 14 17 13 14 14 12 11 6 4 8 9 17 17 13 11 8 3 6 5 5 3 2 2 5 3 2 3 4 6 5 4 8 14 10 8 7 6 8 9 9
22 20 20 19 16 14 15 15 16 15 12 16 20 15 16 14 14 12 14 15 13 11 4 8 6 17 16 9 10 9 7 7 6 4 2 3 2 1 1 1 3 6 5 4 3 3 3 7 9 11 11 10 10 9
24 20 18 18 16 16 17 14 13 13 13 18 15 16 13 13 11 9 6 15 21 18 4 3 2 14 13 15 11 10 11 10 6 4 4 3 3 4 3 3 1 4 2 2 4 13 19 21 18 13 12 10 8 7
23 21 18 18 14 15 14 13 13 12 15 16 14 13 10 11 14 11 5 2 12 16 4 3 3 8 13 12 9 9 11 7 7 4 5 5 7 8 2 3 4 3 5 5 6 11 5 4 5 10 10 10 9 8
25 22 21 18 15 15 15 14 15 11 16 12 8 2 4 5 8 17 17 10 8 13 6 2 1 3 7 5 4 7 5 5 5 5 3 3 3 6 4 5 4 7 11 6 10 10 14 15 12 10 10 11 11 9
26 22 21 20 15 14 15 12 10 12 11 6 1 4 5 6 6 3 3 6 13 7 5 2 2 2 8 3 4 5 4 2 5 3 2 2 3 5 2 2 7 10 9 15 19 20 16 14 13 11 11 11 12 10
26 21 18 20 14 16 13 10 10 9 7 7 7 4 3 4 4 8 7 8 10 5 5 2 1 1 4 4 6 3 5 1 2 2 3 3 3 2 4 3 9 12 13 13 16 16 15 16 12 11 12 12 11 11
23 20 20 17 16 15 10 8 10 6 4 9 5 3 2 6 5 3 4 4 4 2 5 4 6 3 5 2 1 2 1 1 2 1 2 2 2 3 4 7 8 9 10 10 13 15 16 17 19 18 19 15 14 13
21 21 19 17 15 14 14 10 8 5 7 8 4 3 4 3 2 2 3 1 3 3 3 3 5 3 3 2 2 0 1 1 3 4 2 2 1 2 4 6 6 6 7 7 7 10 11 11 12 13 13 15 15 13
22 21 19 16 13 10 13 8 7 5 10 7 4 2 4 4 3 4 5 2 2 4 2 3 2 4 3 2 3 1 2 2 3 2 3 1 4 2 4 5 5 6 6 6 6 7 7 6 6 7 7 8 9 11
23 19 16 14 11 14 14 8 6 5 5 4 5 3 3 3 3 2 3 3 3 6 6 5 3 2 2 2 1 1 1 1 2 3 4 2 6 4 5 7 8 10 10 9 10 10 10 9 6 7 3 2 5 8
17 16 14 11 9 11 14 11 8 9 6 4 4 4 4 1 1 2 2 4 3 7 6 4 3 2 1 2 1 0 1 3 4 3 2 9 9 6 4 8 10 12 13 14 13 12 11 9 7 6 5 3 4 7
15 13 14 13 11 11 12 9 9 8 3 4 4 2 5 1 1 2 4 3 5 6 5 2 2 1 3 3 3 5 2 5 3 2 8 11 8 4 2 6 10 10 11 13 14 14 13 11 9 8 6 5 5 6
18 12 13 15 10 9 11 9 7 5 3 3 3 7 4 2 2 3 4 3 6 5 2 2 4 5 2 2 3 4 4 3 8 11 11 9 6 2 1 4 9 10 11 13 14 13 14 13 11 8 7 7 7 7
14 12 14 13 13 9 12 7 3 2 3 4 1 2 7 4 4 3 4 5 6 4 2 2 3 3 3 3 3 3 5 10 11 12 11 8 4 2 3 6 9 11 12 13 13 13 13 12 11 10 10 9 8 9
12 15 12 10 8 7 5 6 2 2 2 1 2 2 3 4 5 4 6 6 7 4 2 2 3 4 4 5 5 7 12 15 14 14 11 8 6 5 6 8 9 10 11 12 13 14 15 13 12 12 13 12 11 11
15 12 11 5 6 4 3 3 5 2 1 1 1 2 2 2 5 7 9 8 6 2 4 4 4 5 5 5 4 5 9 14 11 12 11 9 8 7 8 8 8 10 10 11 11 12 13 12 10 11 12 11 12 11
16 16 10 3 2 3 3 3 2 1 2 1 2 2 3 3 4 5 6 10 5 5 3 13 15 12 12 11 8 8 10 14 12 10 8 8 9 7 7 8 8 9 10 11 13 13 14 15 15 14 13 12 12 12
14 13 6 4 1 3 2 4 3 3 2 1 1 2 2 2 2 4 4 8 7 12 15 19 21 19 22 18 13 12 12 12 11 10 10 9 8 7 6 7 8 9 11 12 13 14 14 14 15 16 16 15 13 13
9 7 3 4 2 2 1 3 2 1 1 1 1 1 2 2 2 4 4 8 11 18 21 24 24 24 18 15 16 17 16 14 12 10 9 8 8 7 8 9 12 14 16 15 17 18 18 18 17 17 17 17 17 15
6 4 3 3 2 2 3 2 1 1 1 0 0 2 2 2 3 2 4 7 14 16 15 17 19 20 19 18 19 17 15 12 12 11 9 8 7 8 11 13 15 16 17 20 20 19 19 18 18 18 18 18 18 18
2 2 3 1 2 3 2 2 3 2 1 2 1 3 2 2 0 3 4 6 9 12 12 15 16 17 18 17 16 16 16 14 11 9 9 10 12 14 15 16 17 17 18 19 18 19 19 20 20 18 18 18 19 19
3 5 6 7 4 4 5 3 3 5 3 2 4 1 1 2 1 5 3 4 8 12 8 8 12 14 15 15 13 15 14 12 11 12 10 13 15 16 19 21 20 19 18 18 18 19 19 20 21 22 21 18 18 19
4 6 6 6 5 6 3 3 3 3 4 5 3 3 2 1 4 5 6 7 8 8 5 2 5 5 3 7 11 11 12 12 12 14 14 16 19 21 21 21 20 18 21 22 22 22 22 22 21 21 22 21 19 17
8 12 7 11 6 5 4 2 5 6 4 6 8 4 7 8 5 3 3 8 7 5 3 6 7 8 9 10 12 14 16 17 16 17 19 22 25 21 16 19 22 19 19 20 23 24 25 25 23 22 23 23 21 15
7 9 12 3 4 7 10 8 6 9 8 14 5 4 5 8 10 9 8 7 8 8 9 11 12 12 13 13 14 16 18 19 19 21 25 29 27 22 21 18 17 19 20 22 23 25 25 24 24 24 23 24 23 21
7 17 7 8 7 7 10 14 6 9 13 16 9 8 12 19 21 19 21 23 25 25 21 19 18 22 23 21 20 20 21 22 23 25 28 26 23 23 24 24 23 22 21 22 23 21 19 20 23 23 23 24 25 23
11 20 5 9 7 8 14 16 17 14 13 13 20 21 23 20 29 33 31 32 29 28 30 31 30 28 25 24 22 20 21 22 23 21 20 21 23 23 24 25 26 25 23 21 20 20 19 19 20 19 18 17 15 15
17 15 11 4 5 9 10 9 6 7 6 8 9 13 13 10 10 21 26 22 19 21 18 19 22 22 22 23 23 22 21 18 17 17 19 21 23 24 26 26 24 21 20 18 16 16 16 18 18 17 16 14 13 12
6 6 4 3 2 4 8 7 5 4 6 5 7 8 10 8 10 12 14 14 17 16 11 8 7 8 9 10 10 10 11 12 14 16 19 22 24 25 24 23 20 16 15 16 16 15 15 15 15 13 12 10 9 9

GFSWCAN_850_spd_057.txt.gz
Wind_Speed
26 23 26 20 16 15 14 11 13 15 14 12 13 13 13 13 9 10 8 7 5 5 18 15 8 7 4 3 3 5 4 2 1 3 3 2 2 3 2 3 5 7 6 4 3 3 6 5 2 3 1 3 4 6
31 29 25 22 17 16 14 12 17 17 13 13 12 15 13 11 10 11 12 10 11 11 13 11 22 27 23 14 4 7 2 5 7 3 1 2 2 2 2 2 1 4 5 4 7 5 5 1 4 4 9 16 13 6
32 28 23 19 17 16 14 15 16 14 13 15 12 15 14 13 12 12 14 10 13 10 20 22 29 19 20 21 14 4 4 6 6 3 5 2 2 3 3 4 3 3 6 2 1 2 7 15 12 12 12 8 7 7
31 31 25 19 19 17 15 14 15 15 16 17 14 15 18 16 16 15 17 16 11 7 6 9 5 16 21 20 19 19 5 7 7 6 2 2 2 5 2 2 2 5 7 4 4 7 12 14 9 7 8 8 9 9
25 34 24 20 21 18 18 14 16 15 16 16 14 18 21 15 14 15 16 14 15 9 5 11 23 14 19 20 21 17 11 9 6 4 2 3 3 3 1 1 3 7 6 4 4 4 2 6 6 12 15 12 11 11
33 35 26 25 22 19 17 15 18 16 15 12 16 21 17 15 12 11 6 15 22 16 4 3 7 13 19 21 16 15 13 8 5 4 3 3 5 5 2 3 6 10 8 7 4 6 10 14 15 11 12 10 10 9
33 37 31 24 21 19 13 16 16 14 13 13 19 20 17 11 13 11 4 5 9 20 5 4 4 9 19 15 12 10 11 7 7 4 5 5 6 10 2 5 5 8 6 5 8 8 5 2 4 11 11 10 10 10
32 39 31 26 22 18 14 16 16 14 11 14 18 6 7 7 10 18 21 16 6 14 6 3 3 5 11 6 4 7 6 8 6 2 4 3 4 6 5 7 7 8 8 9 10 9 11 15 15 11 9 10 11 12
35 38 31 26 22 21 17 14 15 11 12 12 5 4 6 5 5 8 11 13 7 11 4 4 1 3 10 4 4 5 4 2 3 2 2 4 3 6 5 8 8 5 5 7 13 15 12 9 10 10 11 10 11 11
43 39 34 26 25 24 15 14 13 10 11 7 8 5 5 5 2 9 9 11 8 6 6 3 3 2 2 2 3 5 5 2 2 2 4 3 3 2 6 5 4 5 8 10 11 11 13 14 13 13 14 12 12 11
46 39 32 29 25 22 15 14 12 9 8 9 5 4 4 5 7 5 5 6 6 3 5 4 2 1 3 2 2 2 2 2 2 2 2 2 2 3 5 3 5 7 8 7 9 11 11 13 16 17 15 15 17 14
39 33 32 26 25 16 16 15 12 9 7 9 5 5 4 5 4 3 3 2 3 3 3 3 5 4 3 2 3 1 2 1 3 5 2 3 1 4 2 1 3 4 5 5 5 7 8 9 10 12 13 12 12 14
36 35 29 27 18 16 18 16 12 9 9 8 4 3 4 5 4 4 5 2 2 3 4 3 1 3 2 2 4 1 1 2 3 2 3 3 5 3 2 2 2 4 4 3 3 4 5 5 4 7 6 6 7 9
34 34 29 21 18 18 15 16 10 8 8 5 4 4 4 4 3 2 1 1 2 2 6 6 3 2 2 2 1 2 1 1 2 3 4 3 10 7 5 5 5 6 7 6 7 7 7 6 6 6 6 3 0 2
32 28 23 18 15 14 20 14 9 12 6 5 4 4 4 2 3 3 1 3 2 6 5 5 2 1 1 2 2 1 2 3 4 4 2 12 14 10 7 5 5 6 7 9 9 10 10 8 7 7 5 4 2 3
29 22 21 16 16 19 22 17 9 11 4 4 4 3 4 2 3 5 6 5 7 7 5 3 2 2 2 3 3 6 3 5 3 3 8 15 14 11 7 3 4 4 5 8 8 9 9 10 9 7 6 4 4 4
29 17 21 21 16 13 15 15 9 6 5 4 4 6 5 4 2 4 6 7 8 6 1 2 3 4 1 2 3 3 4 4 6 9 15 14 13 10 6 2 2 4 7 9 9 10 9 9 8 8 6 6 5 5
23 19 21 18 16 14 17 11 5 4 4 4 2 1 6 3 2 2 4 7 7 5 2 2 3 3 3 3 3 3 5 6 8 11 14 14 12 9 5 3 3 6 8 9 9 9 10 9 8 8 8 7 8 8
17 20 17 15 14 8 5 9 3 3 4 2 2 3 3 3 5 3 3 4 6 4 2 2 3 3 4 5 5 3 8 11 10 13 13 11 9 7 6 5 6 8 9 9 9 10 10 10 11 11 12 11 9 8
20 18 13 11 12 4 4 3 6 3 3 3 3 3 3 2 3 6 5 4 4 2 3 3 4 5 6 5 4 3 3 12 12 14 15 14 12 9 7 7 8 8 8 8 8 9 10 10 10 12 12 12 11 10
22 16 10 10 5 3 4 4 3 3 2 2 2 2 2 2 3 3 4 8 5 5 3 11 15 12 13 10 8 7 7 12 15 12 8 11 12 11 9 8 6 6 7 8 10 10 11 12 14 14 13 12 12 12
20 14 6 4 3 3 3 3 3 3 2 1 2 1 1 1 2 3 4 7 7 11 12 15 19 17 19 19 15 12 10 11 14 13 11 10 10 10 9 7 6 6 8 9 10 11 11 13 13 13 15 15 15 14
15 9 3 3 3 2 2 4 2 2 2 1 1 0 1 1 1 3 4 7 10 13 19 23 24 21 18 17 16 16 15 15 14 13 12 10 9 9 8 8 7 8 10 10 12 14 15 16 15 15 15 15 15 15
7 4 2 2 2 2 3 2 2 2 1 1 1 1 1 2 1 2 3 5 10 13 14 15 15 17 18 19 19 19 17 16 15 15 13 11 9 8 8 9 11 12 13 14 15 17 19 18 18 17 16 16 16 16
1 1 2 2 2 3 3 2 3 2 1 1 1 2 1 0 0 2 3 5 6 11 11 10 10 14 14 13 12 13 16 17 15 13 12 11 9 9 10 11 13 15 16 17 17 19 19 19 21 21 21 19 19 19
1 2 3 5 2 2 4 2 2 4 2 1 3 0 0 2 1 4 3 4 9 11 12 10 4 6 9 11 10 9 12 14 13 14 12 10 10 10 11 14 17 17 16 18 18 19 21 21 21 20 20 19 20 21
1 3 3 4 5 6 2 2 3 2 2 4 2 2 2 0 4 5 5 5 6 9 8 5 4 3 3 2 5 8 10 12 13 11 11 11 11 13 15 19 21 19 17 20 22 21 22 23 23 22 22 21 20 20
5 8 7 10 6 5 4 2 4 6 4 6 8 3 6 7 4 2 2 5 6 8 8 6 5 4 5 5 6 8 10 12 14 14 15 16 17 19 17 21 21 21 22 20 21 23 24 25 25 26 25 24 23 19
3 6 9 2 3 5 9 7 6 8 7 13 5 4 5 8 10 13 12 12 13 11 9 10 12 13 13 13 13 13 14 16 18 19 20 22 23 23 24 20 18 18 19 22 23 25 25 26 26 26 23 24 24 24
6 14 5 5 5 5 7 12 5 8 11 14 8 8 13 20 23 25 25 25 27 29 28 26 24 24 24 22 22 23 22 21 21 22 24 25 25 26 24 21 22 22 23 24 25 25 24 23 23 22 21 23 24 25
9 18 5 8 6 8 14 15 17 16 14 12 18 21 25 24 32 36 34 33 32 31 31 31 31 30 29 28 27 25 24 23 22 21 22 24 23 22 23 24 25 25 25 26 26 25 23 20 20 21 21 21 19 19
13 13 9 4 5 10 10 6 6 7 7 10 13 17 19 13 11 24 29 26 26 24 22 23 21 20 19 20 21 22 21 19 19 21 20 19 20 22 23 25 25 25 24 22 19 19 17 17 17 18 20 18 16 16
6 7 6 3 2 3 7 5 3 4 6 6 11 13 17 10 10 18 26 26 25 23 20 18 14 12 10 10 11 13 13 12 11 13 16 18 21 23 25 25 23 18 16 16 16 15 14 15 16 17 16 15 12 10

GFSWCAN_850_spd_060.txt.gz
Wind_Speed
14 21 26 23 25 23 18 16 14 13 15 16 13 11 11 10 9 11 9 7 4 6 15 16 9 8 5 4 3 4 4 3 3 5 4 3 4 5 4 3 4 8 5 3 5 5 6 3 4 3 1 2 3 6
15 15 21 26 29 23 18 16 14 14 18 16 13 12 11 11 10 12 13 10 10 10 14 22 24 25 28 19 7 4 3 4 6 3 2 2 3 3 3 3 4 5 5 3 7 3 1 2 2 5 8 11 12 8
12 16 23 28 28 26 20 15 14 16 15 13 14 12 10 11 11 12 15 13 14 11 21 14 19 23 29 31 20 4 4 4 4 5 3 1 2 3 4 5 4 6 9 3 3 4 11 13 10 3 10 9 5 5
12 15 21 25 32 26 20 17 18 17 13 13 15 15 12 14 16 14 18 17 15 8 6 10 7 13 17 23 27 26 13 4 4 6 3 2 2 5 2 1 3 1 8 8 9 9 9 13 6 7 9 9 8 8
18 19 21 24 30 30 23 22 19 15 14 16 16 14 12 15 14 15 19 19 17 13 5 17 31 23 18 25 23 22 24 15 7 5 3 3 4 3 1 1 4 8 7 6 6 6 5 4 3 4 13 17 11 9
23 26 27 29 32 30 24 23 19 16 17 17 14 13 14 14 15 15 7 8 18 18 5 4 8 10 14 20 24 24 24 16 9 6 3 2 4 5 3 4 5 8 12 9 7 6 8 9 8 5 7 10 9 9
30 30 29 29 38 33 27 23 20 16 15 15 14 15 16 14 16 13 5 5 5 19 4 5 5 6 17 20 21 22 20 9 8 5 6 6 5 7 3 5 6 8 10 9 9 8 7 7 2 8 11 10 9 9
31 31 31 33 36 35 28 23 19 14 14 14 13 14 9 10 11 14 18 17 6 14 6 3 4 3 17 3 6 8 10 10 6 3 3 3 4 6 5 11 9 8 10 8 9 9 10 12 15 13 12 10 10 10
31 29 28 32 38 35 31 26 19 12 13 12 9 5 6 5 5 4 6 8 12 11 5 4 3 1 9 5 6 4 5 2 2 2 4 6 4 6 5 9 11 11 8 6 9 12 13 14 14 13 11 12 13 11
32 30 31 34 47 36 30 25 18 13 13 9 6 5 4 5 9 4 7 9 6 6 8 4 5 1 2 3 2 5 3 2 2 2 7 3 3 7 5 7 11 10 7 8 9 10 9 12 12 13 14 15 16 15
32 29 32 36 39 36 30 26 16 14 12 8 8 6 5 5 8 4 5 7 7 4 7 6 4 1 2 2 2 2 2 2 3 2 2 2 3 4 7 6 4 5 7 7 9 9 9 11 12 13 14 15 16 17
30 31 32 35 43 34 32 24 17 18 9 10 7 6 4 6 5 4 3 3 3 3 3 3 3 2 2 3 2 3 2 1 1 5 2 3 1 6 6 5 3 3 3 4 6 7 8 9 10 10 13 13 13 14
25 27 30 41 40 35 27 18 18 16 12 8 5 3 5 6 6 5 6 3 3 3 5 4 1 3 2 2 3 1 2 2 5 2 3 2 5 7 6 5 4 2 2 1 0 2 4 5 4 6 7 7 7 9
28 28 45 39 36 30 20 22 20 14 10 6 6 4 4 4 4 4 2 2 3 3 7 5 4 1 1 2 1 2 1 1 2 3 4 2 10 10 7 7 6 5 4 4 3 3 4 4 4 5 6 5 3 2
23 44 40 35 29 25 23 20 19 17 7 5 5 4 5 2 2 2 3 4 4 7 6 6 3 1 1 2 1 1 2 4 4 3 0 7 15 12 10 8 7 6 5 5 5 6 7 7 5 5 6 5 4 3
40 37 34 29 26 23 24 22 19 12 4 4 4 3 4 1 2 2 4 4 7 6 4 4 2 2 3 3 3 5 2 4 2 2 4 15 16 14 10 7 5 3 2 4 5 6 7 7 6 6 6 6 6 5
38 32 29 25 22 23 24 16 10 5 5 3 4 7 5 2 2 4 4 5 9 7 2 2 5 3 2 2 3 4 4 2 3 4 10 15 15 15 10 6 3 1 3 5 6 7 7 7 8 7 7 6 6 6
29 29 28 30 28 22 20 12 6 5 4 5 2 4 7 3 2 1 2 5 6 6 3 2 2 3 4 4 3 2 6 5 4 7 13 15 15 13 10 7 3 2 4 6 7 8 8 8 7 7 8 9 8 7
29 30 25 21 20 12 5 11 3 3 6 3 4 5 4 4 5 3 3 4 4 4 2 2 3 4 3 4 4 3 8 10 8 12 13 13 12 12 10 8 6 5 6 7 7 7 7 8 10 11 11 11 10 9
23 20 16 17 17 4 4 4 6 2 3 3 4 5 3 2 4 6 5 5 4 2 2 4 5 3 4 5 5 4 3 9 11 14 15 16 15 13 11 9 8 7 7 6 6 7 7 8 9 10 11 12 12 11
24 16 14 15 7 4 4 4 3 3 3 3 3 4 2 3 3 4 5 7 5 4 3 10 13 10 9 7 6 5 6 7 12 12 9 15 16 13 12 11 10 9 8 7 6 7 8 9 10 11 11 11 12 12
22 15 13 6 3 3 3 3 4 4 2 2 2 2 1 1 2 4 5 7 7 9 10 10 14 14 15 16 17 15 11 9 12 13 12 11 12 13 14 12 11 9 8 8 8 8 9 11 12 12 12 12 12 12
16 8 5 3 3 1 2 6 2 2 1 1 1 1 1 1 1 2 3 6 8 11 15 20 22 22 20 18 16 15 14 16 16 15 14 12 11 11 11 11 11 10 9 9 11 11 12 13 12 12 12 12 12 13
9 4 3 3 2 2 4 2 2 2 2 1 1 1 0 0 1 1 2 5 10 10 9 11 14 16 16 15 16 16 14 14 15 16 15 13 12 11 10 11 11 10 10 12 13 14 14 14 14 13 13 15 16 16
2 2 1 3 2 3 3 2 3 2 1 1 1 1 1 0 1 2 3 5 7 9 10 10 10 11 14 14 11 10 13 15 16 16 14 13 12 11 11 11 11 11 13 15 16 16 15 15 15 16 17 17 17 18
3 1 1 3 1 2 3 2 2 3 2 1 3 0 1 1 1 4 3 4 5 5 6 8 6 3 2 5 7 7 8 11 14 15 14 14 13 12 11 12 12 12 14 16 17 16 16 17 18 18 19 19 20 21
2 2 2 3 4 5 3 3 3 2 3 5 3 3 2 1 4 4 4 2 2 5 6 6 4 3 3 3 0 3 5 9 11 11 12 12 12 12 13 12 14 15 17 18 17 18 20 20 20 20 22 22 22 22
2 3 4 6 3 4 4 2 4 5 4 6 8 3 5 7 4 2 1 2 4 6 7 9 8 7 7 6 5 6 7 8 11 13 14 15 15 15 15 17 16 20 22 20 20 20 20 21 23 24 25 25 24 22
2 5 6 1 2 4 6 6 5 6 6 11 5 4 5 6 5 8 11 12 15 18 18 17 15 16 18 16 16 16 15 15 16 18 19 19 17 17 16 19 21 21 20 19 20 22 24 24 25 25 26 26 25 24
5 10 3 3 4 5 6 11 6 8 9 12 7 8 13 21 24 26 29 30 30 32 32 30 28 28 28 26 24 23 23 23 24 24 24 23 21 21 21 21 23 21 21 22 23 23 24 25 26 26 26 25 25 24
6 13 4 4 5 5 11 13 14 14 13 11 17 20 26 28 35 35 33 32 30 29 31 32 30 27 27 27 26 26 26 24 24 23 23 23 24 23 23 23 22 23 23 24 24 25 25 24 23 22 20 19 18 19
9 11 8 3 5 9 11 6 5 6 7 10 12 16 20 17 15 27 26 23 25 28 27 25 25 23 22 20 20 21 22 20 19 17 16 17 19 21 21 22 23 24 23 23 23 21 18 18 17 15 16 17 17 18
4 6 6 5 4 5 9 7 4 4 6 6 9 15 18 10 10 20 28 28 31 32 30 28 25 21 17 16 14 12 12 13 13 14 15 15 16 18 21 22 22 21 18 16 15 15 15 15 14 14 14 15 14 13

GFSWCAN_850_spd_063.txt.gz
Wind_Speed
11 13 13 15 19 20 22 22 21 16 16 15 16 17 12 10 9 10 8 9 4 8 17 12 10 11 11 8 3 3 4 5 6 5 3 3 5 5 4 4 6 8 6 4 5 4 7 4 4 4 4 3 3 5
11 13 16 16 14 16 21 23 23 16 17 17 17 13 13 11 12 9 10 12 11 11 14 16 22 24 22 22 10 5 2 2 10 5 4 2 3 1 6 3 8 5 6 3 7 4 3 3 2 2 2 5 8 5
9 11 16 17 19 21 20 24 23 21 18 16 14 12 12 14 12 12 11 15 17 14 26 19 14 11 13 28 30 6 8 3 3 4 2 1 5 4 4 7 7 8 9 4 3 5 12 9 9 2 0 3 5 4
10 12 13 16 19 24 23 26 25 23 20 17 12 13 13 14 15 13 16 16 15 10 8 12 12 14 11 16 24 36 22 4 8 6 6 4 4 5 3 2 6 2 10 8 10 10 6 8 8 8 5 5 8 8
16 17 19 19 23 27 29 27 29 23 21 19 16 14 16 15 14 16 19 20 21 15 8 21 32 26 26 26 17 23 33 25 12 5 5 5 3 3 3 2 7 11 8 7 5 3 6 5 6 5 5 7 11 11
21 21 24 25 25 25 28 26 32 26 22 21 18 16 14 13 13 12 8 6 10 20 6 5 11 13 7 20 27 24 30 23 14 6 5 4 3 5 3 5 5 9 14 12 13 2 2 2 7 7 7 8 11 12
25 25 25 26 26 26 29 29 33 25 23 20 16 16 15 14 15 11 6 5 6 12 5 5 5 6 8 14 18 19 24 14 13 6 5 4 5 7 3 8 5 6 9 9 6 6 8 8 4 6 7 9 10 11
26 25 25 25 24 26 29 31 33 23 25 19 14 14 15 15 12 17 20 23 15 5 5 4 4 5 13 7 9 16 9 20 12 4 2 4 5 5 5 9 14 14 7 8 8 9 9 8 9 11 11 11 12 11
31 30 28 26 28 27 29 33 32 28 22 13 11 10 9 8 7 8 8 11 13 9 4 4 3 2 9 5 5 7 7 3 4 5 5 4 3 7 6 8 9 9 8 6 11 11 10 12 13 14 14 13 13 14
31 30 29 28 28 27 25 30 30 27 16 11 7 5 6 6 10 5 8 9 8 6 7 4 5 3 2 10 3 6 5 3 3 3 6 3 5 16 6 9 6 12 12 10 8 8 11 12 12 12 12 13 15 17
30 28 26 26 26 24 24 36 33 29 19 15 7 6 6 5 8 5 6 6 7 4 8 8 8 3 0 1 2 3 1 1 2 2 2 3 4 3 9 9 8 8 8 9 10 11 10 10 11 11 13 13 14 17
30 26 24 22 22 24 30 41 34 29 18 15 6 8 7 7 6 4 4 4 5 3 6 4 3 4 2 3 3 3 2 1 1 4 2 3 1 6 7 7 5 5 6 6 6 7 8 9 10 11 12 14 14 15
25 23 22 17 16 18 37 29 33 27 18 11 6 4 6 7 6 5 6 4 3 4 4 3 2 0 2 2 3 1 3 1 5 2 3 3 6 8 7 6 4 3 2 1 2 3 4 5 6 7 8 9 9 9
26 22 17 19 19 21 39 36 32 24 14 6 7 5 5 5 5 4 4 1 1 4 5 1 2 1 1 2 1 2 1 2 3 3 3 2 9 10 9 8 7 4 3 2 2 2 3 3 3 4 5 6 6 5
25 22 19 24 24 37 40 32 28 27 10 6 6 5 6 4 2 3 3 2 2 6 8 4 2 0 1 2 0 2 2 3 4 2 1 5 12 12 11 10 8 6 4 2 1 2 4 4 4 5 6 7 6 6
27 15 24 34 43 37 34 30 28 19 4 5 5 4 5 2 2 2 4 4 5 6 6 2 1 1 2 1 2 3 2 4 1 1 3 10 14 13 12 11 9 6 3 1 2 4 6 6 6 6 7 8 8 7
23 31 34 37 37 38 33 29 14 7 7 4 4 7 5 4 3 1 3 3 8 5 2 2 3 3 2 2 2 2 4 1 1 2 4 11 15 15 13 11 8 5 2 2 4 6 7 7 7 7 7 8 9 9
35 41 37 36 36 34 28 7 5 6 5 6 3 3 4 4 3 2 3 3 5 5 3 1 2 3 3 4 3 3 5 3 3 3 7 13 15 15 13 9 7 5 3 4 6 7 7 7 7 7 8 9 8 8
41 37 32 28 30 14 4 6 4 4 6 2 3 4 3 3 7 5 4 3 3 4 3 2 2 3 3 3 2 2 3 4 2 5 9 11 13 13 12 12 10 7 6 6 7 7 7 7 8 9 10 10 10 11
29 28 31 29 21 5 4 3 6 2 2 1 3 3 2 2 4 6 5 4 3 2 3 3 4 4 3 4 5 4 3 4 7 6 9 12 14 14 13 12 11 10 9 9 8 8 7 8 8 9 10 11 11 10
30 25 21 21 6 4 4 3 2 1 1 1 2 2 1 2 1 2 2 6 3 4 3 6 7 10 10 7 7 5 6 6 7 8 8 11 16 15 15 14 13 12 11 10 9 8 9 9 9 10 11 11 12 12
22 20 20 10 3 3 3 2 3 3 1 2 2 2 1 1 1 1 3 4 5 7 8 10 15 16 14 13 14 17 15 14 12 13 13 12 11 15 17 16 15 14 12 11 10 9 10 11 11 12 12 11 11 11
20 15 6 3 3 2 2 5 2 1 1 3 2 2 1 1 1 1 3 4 7 11 15 18 20 21 22 20 19 18 17 16 17 17 16 15 13 13 13 14 14 14 12 11 10 11 12 13 14 14 14 13 13 14
10 3 2 2 2 3 3 2 2 1 1 1 1 1 1 0 1 2 2 4 9 9 10 11 13 16 17 18 17 15 16 17 16 17 17 17 16 14 13 13 12 12 12 12 12 13 14 16 16 16 15 15 16 16
2 2 1 3 3 3 2 2 0 1 2 1 1 1 1 0 1 2 2 5 6 6 6 7 8 10 13 12 11 11 11 13 16 16 16 17 16 14 14 13 13 12 12 13 13 15 17 17 17 17 16 17 17 17
3 1 0 3 3 3 4 3 3 3 2 2 2 1 1 1 2 4 2 3 1 2 4 6 7 8 8 7 5 5 6 9 11 15 15 15 15 15 14 13 13 12 12 12 14 16 18 18 17 18 19 18 18 19
2 2 1 2 3 4 3 3 2 1 2 3 3 3 2 2 4 4 3 2 1 3 6 8 9 8 8 9 8 6 6 6 7 9 11 13 13 14 15 15 15 14 14 15 16 19 19 19 19 19 19 20 21 21
1 3 1 3 1 1 2 1 3 4 3 5 6 3 4 5 3 1 2 1 2 5 8 12 14 14 13 11 12 13 12 11 10 11 13 14 15 16 16 17 18 18 19 19 21 22 21 19 19 20 22 23 24 23
0 1 4 2 1 2 5 5 3 3 4 8 3 3 4 5 4 3 6 12 17 21 24 27 26 24 23 24 24 22 20 19 19 20 20 21 19 19 18 19 20 20 21 21 22 22 20 20 22 23 24 26 26 26
3 6 3 2 2 3 3 7 3 4 6 10 7 8 13 20 24 26 28 28 29 30 30 30 29 30 30 28 27 27 27 26 25 25 26 26 25 23 21 20 20 20 21 23 22 21 22 24 24 24 25 26 27 27
3 7 2 4 4 5 7 9 12 15 15 14 18 20 25 26 30 31 27 23 25 26 28 29 30 30 31 31 28 26 26 24 25 25 25 26 26 25 24 24 24 24 24 23 22 23 23 24 25 25 23 22 20 18
4 4 2 2 3 6 10 6 5 6 7 10 11 16 16 12 12 23 23 22 23 26 30 29 28 26 24 25 23 22 23 22 21 19 17 17 17 18 19 19 21 21 21 22 22 23 22 21 20 19 19 18 16 15
1 2 3 4 4 4 4 3 4 5 6 6 9 12 16 10 9 24 30 26 27 27 28 29 30 28 26 24 22 20 18 16 14 12 12 12 13 14 15 17 19 20 20 20 18 17 16 15 16 14 13 13 13 13

GFSWCAN_850_spd_066.txt.gz
Wind_Speed
10 9 8 7 10 13 14 15 17 16 18 18 18 17 19 12 11 11 8 12 6 8 18 19 15 16 16 10 4 7 3 3 4 3 3 3 2 4 2 3 6 7 5 4 4 3 7 8 2 1 3 9 6 3
7 8 9 9 12 14 14 15 16 19 18 18 17 17 16 11 11 13 14 11 11 14 18 23 26 25 19 20 12 7 10 11 9 3 4 3 4 2 4 2 3 4 4 4 6 4 4 8 5 6 5 5 3 6
5 10 12 12 11 13 16 18 21 20 23 21 18 15 13 12 12 15 16 14 17 18 28 18 5 8 14 25 28 11 11 6 3 10 4 2 3 4 3 6 5 5 6 2 3 5 7 8 9 6 5 4 4 3
8 9 12 16 15 16 17 18 22 22 21 23 20 15 13 13 15 17 17 13 14 13 7 12 6 9 14 13 23 30 36 13 11 10 3 2 2 4 2 1 1 3 5 6 5 7 5 5 11 15 9 5 3 1
12 14 15 17 20 22 22 22 22 24 23 25 21 18 14 15 15 15 17 19 20 14 9 24 35 33 13 28 29 24 29 29 20 7 4 3 3 2 1 2 3 6 4 4 4 4 3 4 12 12 9 6 6 6
16 18 19 20 21 23 25 23 23 21 24 28 22 19 15 11 12 13 6 5 3 11 9 5 12 25 21 12 23 27 23 17 15 7 5 4 2 3 2 3 3 11 20 17 0 3 5 5 4 5 4 6 8 8
20 21 20 19 18 19 21 22 23 24 23 27 22 19 16 10 12 12 7 6 4 6 5 6 5 6 6 4 14 21 15 13 13 8 6 2 4 3 2 4 5 9 8 7 10 9 5 7 4 8 7 7 8 8
21 21 20 22 21 21 22 21 22 24 23 28 21 20 11 9 14 20 22 25 20 10 5 3 4 7 9 6 8 17 12 15 6 9 3 3 6 5 4 7 16 18 11 12 11 9 7 7 7 7 9 9 9 9
22 23 25 25 24 24 23 23 20 22 26 22 25 14 5 8 8 7 7 9 9 9 3 4 3 3 4 3 4 11 9 3 7 3 2 4 3 5 4 8 7 6 8 6 12 13 8 8 7 9 11 11 12 12
25 25 26 27 25 23 23 21 18 19 26 29 17 6 6 6 11 5 4 9 9 7 7 4 5 4 6 7 4 6 6 3 4 3 5 2 3 11 10 11 8 6 12 12 10 7 7 8 8 8 9 11 12 14
26 26 24 23 22 20 20 19 19 22 37 23 10 8 7 8 7 5 6 6 7 4 7 8 12 5 6 2 3 3 1 2 2 2 3 2 3 3 7 10 9 8 9 9 8 7 6 8 9 10 10 11 12 13
25 22 22 22 15 17 15 14 12 37 22 19 12 10 6 6 6 4 4 4 5 4 8 5 8 9 4 2 2 2 1 0 2 5 3 3 1 4 6 6 5 5 5 5 7 8 8 6 7 9 9 10 11 12
24 24 20 17 15 16 17 14 25 35 28 21 6 6 4 5 5 5 5 3 3 5 4 4 2 3 2 1 3 1 2 1 6 2 3 3 5 7 8 8 7 4 2 2 1 0 2 3 4 5 5 7 9 8
29 25 21 19 15 15 14 20 39 36 13 4 7 4 4 4 4 4 2 2 1 1 1 3 2 2 1 1 1 2 1 2 2 3 4 2 9 12 10 8 7 7 7 6 5 5 5 4 3 3 4 6 7 7
28 26 21 17 13 14 22 30 36 31 7 5 6 5 5 6 4 4 6 4 4 3 4 1 1 2 1 1 0 2 1 2 3 3 2 5 10 13 11 11 9 8 7 5 3 2 3 3 3 3 5 6 7 7
30 25 27 22 20 17 37 35 35 17 6 6 5 3 6 2 4 4 3 4 4 3 2 1 1 1 1 1 1 3 1 3 3 1 2 7 12 12 11 11 10 8 6 4 2 2 4 4 4 5 6 7 8 7
19 29 26 24 26 44 45 33 14 5 5 4 5 10 5 5 6 3 2 2 4 2 2 1 3 2 1 1 1 2 3 2 1 1 1 6 11 12 12 12 10 8 5 2 1 3 5 6 6 6 6 7 8 8
18 21 38 44 48 48 31 7 6 6 5 7 4 4 7 7 4 4 3 3 3 3 2 2 1 2 2 2 2 2 4 3 1 1 3 7 11 11 11 10 9 7 5 2 3 5 6 5 5 6 7 8 8 8
40 43 43 44 38 21 6 5 4 4 6 3 5 6 4 4 8 7 5 3 2 3 3 2 2 2 2 1 2 5 5 1 1 2 4 7 9 10 11 10 9 8 6 5 6 7 8 7 7 7 8 9 9 10
40 40 38 36 23 6 5 4 6 3 4 2 3 3 4 3 4 5 6 4 3 1 2 2 3 2 3 5 6 4 4 5 3 3 5 8 10 12 13 13 12 10 9 8 8 9 7 7 6 7 9 10 10 10
34 31 30 20 13 5 5 4 3 3 2 2 3 3 2 2 1 1 2 5 4 4 3 7 8 6 8 9 10 10 8 7 4 5 6 7 9 12 14 15 15 13 12 11 10 9 8 8 8 9 10 10 11 11
26 26 21 11 3 3 4 4 5 4 3 2 2 1 1 1 1 2 3 3 5 6 6 5 9 14 16 14 14 14 15 15 15 13 12 13 12 12 14 16 16 14 13 12 11 9 9 9 10 10 11 11 12 12
21 17 8 3 3 2 3 7 2 3 2 3 2 1 1 1 2 2 3 4 7 12 15 16 18 20 20 19 18 18 19 21 19 16 16 16 15 14 13 12 12 13 13 12 10 10 10 10 11 12 13 13 13 12
16 4 3 3 2 3 5 2 3 3 2 1 1 0 0 1 2 1 2 4 7 9 8 8 10 14 15 14 13 11 13 15 17 17 16 16 16 15 14 13 13 12 12 11 11 11 11 13 14 16 16 16 15 15
3 2 2 2 3 4 3 2 1 2 2 2 2 1 1 0 1 2 2 4 4 1 4 6 7 9 11 11 9 7 6 7 9 12 12 13 14 14 14 14 13 13 12 12 11 11 12 14 16 17 17 17 16 17
3 1 2 2 1 2 3 3 4 5 3 1 2 2 1 1 0 4 3 3 2 3 6 9 10 11 12 14 14 12 9 8 8 10 10 11 12 13 13 14 14 13 12 11 12 12 13 14 17 18 18 17 18 19
3 2 2 3 3 4 2 3 3 2 3 4 3 2 2 1 4 4 4 6 5 5 6 7 9 11 13 14 14 15 16 15 13 10 8 8 10 12 14 15 15 12 13 13 13 14 16 18 20 20 19 19 19 20
3 3 3 5 2 2 3 1 2 3 3 4 7 2 6 7 4 1 4 7 4 1 6 10 14 19 21 22 21 20 19 18 17 17 16 14 14 14 14 16 17 17 17 17 18 20 21 22 23 22 21 21 21 22
3 4 3 3 2 1 2 3 3 2 3 6 4 3 4 4 1 1 3 10 17 20 22 25 26 26 24 24 23 22 22 22 22 22 23 23 21 19 18 18 20 21 21 21 22 23 23 23 24 23 22 24 24 24
2 3 3 2 2 2 0 4 2 3 4 7 7 10 17 25 26 26 29 31 32 32 29 26 25 26 28 29 30 29 25 24 24 25 27 27 26 24 22 21 19 19 21 21 21 22 23 24 24 23 23 25 25 26
3 3 2 1 2 2 4 7 11 14 15 16 19 21 29 30 33 34 31 30 29 29 29 29 28 27 29 28 28 29 26 21 22 22 21 23 25 24 23 22 20 19 20 21 22 23 23 23 23 23 24 23 21 20
2 2 2 1 3 5 10 5 4 5 7 10 13 20 20 17 14 27 26 20 20 21 25 28 30 30 29 29 29 28 26 22 20 21 22 21 19 16 17 18 19 19 19 19 20 20 21 21 21 19 18 17 16 15
1 2 3 3 3 3 3 5 4 6 7 7 9 16 18 9 9 18 26 26 26 24 24 25 26 27 28 29 26 24 23 22 22 20 18 14 12 11 12 12 13 15 17 18 18 17 15 14 13 12 12 12 12 12

GFSWCAN_850_spd_069.txt.gz
Wind_Speed
21 18 16 12 9 8 8 10 10 8 10 11 11 14 15 14 10 11 7 10 10 8 22 25 21 18 16 8 2 4 7 3 3 4 4 4 4 5 3 4 6 7 6 4 4 4 7 8 4 4 3 7 7 8
20 18 15 11 9 10 13 13 13 12 10 12 13 15 13 11 7 8 14 13 13 20 23 35 37 37 28 21 15 6 5 2 5 3 3 2 3 2 5 3 3 3 6 4 7 5 5 11 3 7 10 8 5 8
16 13 11 12 12 11 13 12 14 13 16 14 14 16 16 11 8 10 15 14 18 18 25 18 17 24 15 16 25 15 7 6 5 12 5 3 3 4 4 5 4 4 7 2 2 4 8 10 10 9 8 6 6 6
14 11 12 12 15 17 17 16 15 16 16 18 18 17 19 14 10 12 16 15 16 11 7 10 11 14 12 13 20 24 33 21 15 20 10 3 2 5 4 3 4 6 5 6 3 5 6 9 18 15 11 9 8 6
13 11 10 11 14 17 19 19 18 18 21 19 20 19 19 15 12 13 16 16 17 13 8 23 36 18 13 33 25 19 23 20 11 1 5 3 3 2 0 2 2 5 5 4 4 6 5 4 11 17 15 12 9 7
11 11 12 13 16 17 18 19 19 19 19 18 18 21 22 18 14 10 5 4 6 9 8 5 10 25 13 13 17 21 29 17 9 6 6 9 6 6 3 3 6 15 16 14 8 4 4 8 9 11 12 10 9 8
10 12 13 13 14 15 16 17 18 18 19 21 20 24 23 19 15 9 6 5 5 7 5 8 7 6 12 5 5 10 21 11 9 6 5 7 10 6 1 3 4 10 8 7 9 8 6 9 7 10 10 8 8 7
13 13 13 13 14 16 19 20 19 19 19 18 18 20 24 17 10 15 17 18 18 11 5 4 5 7 5 5 4 9 10 12 10 6 4 7 12 4 4 10 18 19 11 13 13 10 6 6 8 8 7 7 7 7
13 14 14 15 18 21 23 20 17 16 15 13 16 21 19 11 7 8 4 5 7 10 4 5 2 4 2 4 4 9 9 4 8 4 5 6 3 5 7 11 12 7 10 13 12 9 8 9 9 9 9 9 10 9
15 15 16 17 21 22 17 14 11 9 7 11 26 11 6 6 8 5 3 8 8 8 8 5 5 4 4 6 5 6 6 2 4 6 7 4 3 8 8 8 9 9 9 10 12 10 9 10 9 8 7 8 10 11
15 15 17 20 19 15 11 10 9 7 9 19 11 6 7 6 5 4 4 5 7 4 8 7 14 7 6 4 2 9 2 2 2 3 5 2 2 3 7 9 9 9 11 10 9 9 9 9 9 8 8 9 9 10
16 18 20 17 12 9 6 5 6 11 9 13 7 10 10 5 3 3 3 3 5 4 6 5 9 13 6 7 5 4 1 1 2 4 2 2 2 3 6 6 6 6 6 7 8 8 8 9 8 7 7 8 8 9
21 20 18 13 10 8 6 6 10 14 12 13 3 4 3 4 4 4 5 3 3 4 5 5 2 4 3 4 2 0 1 1 3 1 2 3 3 6 7 8 6 5 4 4 3 3 3 4 3 3 3 4 5 6
21 19 17 13 12 11 10 14 17 15 12 8 5 4 3 4 5 4 3 2 3 6 10 8 2 3 3 1 1 1 1 2 1 2 3 2 6 10 10 8 6 7 7 7 8 8 7 6 4 3 3 3 4 5
22 20 15 14 13 14 14 14 17 27 8 6 6 4 6 8 5 5 7 8 9 10 9 5 3 3 1 1 1 2 1 1 2 3 2 2 6 11 12 11 10 11 10 9 6 5 4 3 1 1 2 4 5 5
23 21 23 20 17 18 18 24 23 24 6 5 4 3 6 2 4 4 7 9 9 7 8 5 2 2 1 0 1 2 2 2 3 2 3 3 9 12 12 13 11 9 8 6 5 3 2 2 2 2 3 5 6 6
21 29 23 21 22 24 24 31 15 8 9 6 6 12 8 4 4 5 4 5 6 5 2 2 2 2 1 1 1 1 2 2 5 6 4 2 7 10 11 12 12 10 7 5 2 1 3 4 4 4 4 6 6 7
20 19 16 32 39 43 33 10 8 7 6 7 5 4 11 8 5 7 5 7 5 3 2 2 1 1 2 2 2 2 4 5 5 5 2 2 6 8 9 10 10 9 6 3 2 2 4 5 5 5 6 7 7 7
10 19 28 36 41 23 6 6 4 6 5 3 6 7 5 4 7 9 8 7 6 5 5 4 3 2 2 2 2 4 5 5 5 4 2 3 6 7 9 10 9 8 7 5 5 5 7 7 6 5 5 6 7 8
31 38 41 38 32 7 5 4 6 4 4 2 4 4 3 3 5 5 8 7 6 4 3 2 3 2 4 5 3 3 4 5 5 6 5 4 6 9 11 11 10 10 10 9 9 9 9 8 6 6 6 7 7 8
36 35 29 24 16 7 6 5 3 3 3 2 3 4 2 4 3 2 3 4 5 5 3 8 8 6 5 4 5 7 8 9 8 6 6 6 5 8 10 12 15 15 14 13 11 10 10 8 7 6 7 8 9 9
25 30 16 10 5 5 5 4 5 6 3 2 3 4 2 1 2 3 4 4 5 6 7 5 6 8 11 11 13 16 17 16 14 13 13 14 13 12 12 12 14 15 15 13 12 12 11 9 7 7 8 9 10 11
24 19 6 4 3 2 3 8 3 4 3 4 3 1 2 3 3 3 3 5 6 8 11 12 12 15 16 15 14 14 15 17 18 16 16 15 15 15 15 13 12 12 13 12 12 13 11 10 8 9 10 12 12 12
17 5 3 3 2 3 6 2 3 3 3 2 2 2 2 2 1 1 2 4 6 5 3 2 3 4 4 5 7 7 9 12 11 11 11 14 15 14 14 13 13 13 12 12 13 12 11 9 10 11 12 13 13 13
4 2 3 2 3 4 3 1 1 2 2 2 2 2 2 1 1 1 3 4 6 6 5 7 7 6 10 13 14 13 12 9 7 7 6 10 12 12 12 13 13 13 13 13 12 11 10 11 11 11 13 15 15 14
4 1 2 4 2 3 4 3 3 5 3 1 4 1 1 2 1 4 3 5 10 7 8 9 9 9 9 10 11 13 13 13 12 12 9 7 8 10 10 12 13 12 12 11 12 12 12 12 13 13 15 16 17 18
3 2 2 3 4 5 3 3 3 3 3 4 3 2 2 1 4 4 3 8 9 9 7 4 4 7 11 14 15 15 14 14 14 13 12 11 9 9 10 12 13 10 13 13 13 14 14 14 15 16 18 19 19 19
3 4 4 6 3 3 4 2 3 4 3 4 7 2 6 7 4 1 2 7 10 8 4 8 13 18 21 20 20 19 17 16 16 17 17 17 15 15 15 15 14 13 15 16 17 18 18 18 19 20 21 22 22 21
3 4 4 2 2 2 2 3 4 3 3 5 4 3 4 4 1 2 5 11 17 23 26 28 28 27 26 24 21 22 22 22 22 23 23 23 20 18 19 19 18 18 17 19 20 21 21 22 22 23 23 23 22 22
3 2 3 2 2 0 1 1 1 0 3 5 6 9 18 26 27 25 27 28 31 33 33 33 31 29 28 27 26 26 25 23 20 21 24 24 22 21 20 19 18 17 18 18 19 20 21 22 21 22 24 24 24 24
5 2 3 2 1 1 1 4 8 11 12 11 16 19 26 28 33 31 28 26 26 28 31 32 31 28 27 25 26 29 28 23 22 21 20 20 20 19 18 18 19 19 18 17 17 17 18 20 21 22 22 22 22 22
2 3 2 1 1 3 7 3 4 5 6 8 10 15 14 10 8 12 11 11 14 17 19 20 22 23 24 26 26 25 25 23 23 22 21 22 22 21 20 18 16 16 17 17 17 17 18 18 19 19 19 17 16 15
2 1 1 2 2 1 2 5 3 5 5 6 7 7 7 5 8 8 15 17 17 18 18 19 21 23 23 24 24 24 25 26 25 23 21 20 20 17 14 12 11 11 11 12 14 15 15 14 13 12 10 10 10 10

GFSWCAN_850_spd_072.txt.gz
Wind_Speed
30 29 26 20 18 18 16 13 10 9 10 8 7 8 11 10 11 9 7 7 8 6 16 15 8 6 9 8 3 10 12 5 2 4 5 5 4 6 5 5 7 6 6 3 3 4 8 4 3 5 3 1 2 5
29 27 24 20 19 17 15 13 11 10 11 9 9 10 11 13 13 12 11 10 11 15 20 25 32 37 30 25 21 10 7 7 7 3 2 2 3 2 6 4 2 4 6 5 7 5 5 9 4 8 7 4 1 4
29 25 23 21 19 13 13 13 13 12 13 10 12 11 11 14 13 10 12 15 16 18 26 20 18 18 12 12 13 13 13 10 7 8 6 3 5 4 4 5 5 4 6 3 2 5 7 12 12 7 8 5 3 2
26 25 25 21 17 16 14 14 16 16 15 17 15 16 15 15 13 12 16 16 15 12 7 9 5 13 19 18 19 26 26 14 5 9 3 4 4 5 4 3 5 5 8 6 4 5 6 8 14 14 12 8 7 6
27 26 21 18 15 14 15 15 16 17 17 17 15 17 17 18 11 17 18 20 17 11 6 22 38 9 3 12 16 30 22 25 13 3 4 4 7 5 1 2 3 7 6 5 5 9 6 10 11 17 15 12 10 8
25 20 17 15 16 16 13 15 15 17 18 19 19 16 17 18 17 17 6 3 2 7 8 5 13 14 7 7 8 17 21 14 13 5 4 8 16 6 3 4 5 14 13 13 6 9 8 3 2 8 15 13 11 9
19 16 17 16 15 12 12 12 13 15 16 16 17 17 17 20 23 14 6 5 9 4 4 7 7 5 8 7 3 10 17 15 16 6 7 8 4 6 4 3 5 13 15 12 14 14 8 12 6 10 11 11 10 9
18 16 14 13 12 10 10 11 13 15 14 13 14 15 17 17 16 16 16 17 15 7 5 3 4 8 1 3 3 7 8 12 11 6 6 5 5 8 5 9 9 8 9 11 13 16 8 10 13 12 12 10 9 9
15 14 13 9 9 10 10 12 11 10 9 10 9 12 17 17 10 7 5 4 9 10 3 4 2 4 4 4 5 7 7 3 8 4 5 6 3 5 7 14 19 16 12 11 15 11 10 10 10 10 10 9 9 10
12 10 7 8 9 10 10 7 6 4 7 3 8 5 4 4 8 6 3 3 7 6 8 4 5 3 4 2 6 7 8 4 4 7 9 5 3 17 15 10 9 10 10 10 17 12 12 11 11 11 10 10 11 11
8 8 9 8 9 8 6 4 4 5 5 6 5 4 4 8 6 3 3 4 6 4 7 7 12 6 7 5 3 10 2 3 3 3 3 3 2 3 9 10 7 8 9 13 12 9 10 11 13 12 11 10 11 12
8 9 9 10 8 6 7 7 6 8 6 8 5 8 9 5 3 3 3 4 4 4 5 5 8 12 8 10 5 5 3 2 2 7 2 1 1 2 5 6 6 7 8 8 7 7 8 8 7 8 8 8 9 10
11 12 13 9 7 9 9 7 8 7 9 6 5 4 4 4 4 5 5 3 2 5 4 4 3 5 5 9 5 2 2 1 1 1 2 3 3 5 6 8 8 7 5 4 5 6 7 6 6 6 6 6 7 6
16 14 12 9 13 13 15 9 13 12 6 3 4 3 4 4 5 5 4 2 3 6 14 15 5 4 4 3 1 1 0 0 1 1 3 2 2 7 9 8 7 7 6 7 7 7 6 6 5 4 3 1 2 4
14 15 15 13 14 17 18 15 18 13 5 4 5 4 7 10 7 5 8 7 9 14 15 10 7 5 2 3 1 1 1 1 2 2 2 7 1 7 9 9 8 10 12 13 13 10 7 5 3 1 1 3 4 5
17 19 24 17 17 18 19 27 17 15 4 4 6 5 8 4 3 4 7 6 5 8 10 7 3 2 2 2 1 2 1 1 2 2 9 7 1 6 8 9 9 9 8 6 5 4 3 1 1 2 3 4 5 5
17 26 24 17 21 22 23 29 18 8 6 5 7 15 8 1 4 5 3 2 5 6 2 3 3 3 2 2 2 1 2 1 7 10 7 3 2 5 8 10 8 7 6 6 4 2 0 1 2 3 4 5 5 5
19 21 14 18 31 36 33 20 11 8 7 10 5 10 13 8 5 5 3 3 3 3 4 2 5 2 2 2 2 1 3 6 7 6 4 2 3 5 7 9 10 9 7 6 3 2 2 4 5 5 4 4 5 5
9 12 18 35 42 28 9 10 7 5 10 4 8 7 6 4 7 7 4 5 5 6 9 5 3 2 3 2 2 2 2 5 5 6 4 1 3 4 7 9 9 8 7 6 5 5 5 6 7 6 5 6 6 6
10 19 30 41 37 10 5 5 7 4 6 6 6 7 4 3 3 2 3 3 3 3 4 3 4 3 3 4 5 1 3 5 7 8 5 4 4 6 7 8 8 9 10 10 10 9 8 9 8 7 7 7 7 7
33 39 42 38 18 7 5 6 4 5 4 5 7 5 4 1 2 2 2 5 5 5 4 9 11 7 8 7 4 5 7 8 9 10 9 7 5 4 6 8 11 13 14 14 13 12 11 10 10 9 8 8 8 8
28 34 20 14 4 5 4 5 5 7 5 4 4 5 2 2 1 2 3 6 6 8 9 10 11 10 12 12 10 12 16 18 18 17 15 15 15 13 12 10 12 13 14 14 13 13 12 12 11 9 9 9 9 10
25 17 7 4 4 3 2 8 3 4 3 3 2 1 1 0 2 3 3 6 8 8 10 13 15 15 15 15 16 18 19 19 19 18 16 17 18 17 15 14 14 14 13 12 13 14 14 13 12 11 10 10 11 11
14 4 3 3 3 3 5 2 2 3 3 2 2 0 2 2 2 1 3 4 7 7 8 7 5 6 7 2 1 3 5 5 7 8 9 12 14 14 15 14 15 14 13 13 14 14 14 13 12 12 10 10 10 12
5 2 3 2 3 4 2 2 1 2 2 1 2 2 2 2 1 1 3 4 7 6 5 7 6 2 2 5 7 9 10 9 9 9 7 7 8 9 11 12 13 12 13 14 13 12 11 12 13 12 11 11 11 13
3 1 2 4 3 3 4 4 5 5 3 1 3 0 1 2 2 5 3 5 14 14 11 11 10 7 3 4 8 10 11 11 11 10 8 9 8 8 7 9 10 10 13 12 12 13 13 13 14 14 13 13 14 16
4 3 3 3 5 6 3 3 3 2 3 4 3 2 2 1 4 4 3 6 10 12 13 12 8 4 6 10 14 15 16 15 14 13 13 13 12 11 12 12 10 8 10 11 12 13 13 14 16 16 16 16 17 18
2 4 4 6 3 3 4 2 3 4 3 5 7 2 6 7 4 3 3 2 7 12 13 13 13 14 17 20 21 22 20 19 18 18 19 18 16 16 15 14 12 13 15 15 16 17 17 18 19 20 21 21 21 22
3 5 6 3 2 2 4 3 4 3 5 7 4 3 4 3 3 6 16 20 19 20 23 26 28 29 31 30 29 26 22 22 21 21 20 20 18 16 17 17 17 17 18 19 19 21 21 22 22 22 23 23 23 22
3 4 3 2 3 1 2 3 4 5 5 6 4 5 11 18 18 19 22 24 27 30 31 33 34 35 36 35 33 29 26 25 22 20 21 20 18 16 17 19 19 18 18 17 18 20 21 21 21 21 21 20 20 23
5 2 2 1 2 3 3 3 4 8 9 9 12 15 22 23 26 21 19 15 15 17 19 20 21 21 21 20 21 22 21 18 20 21 21 20 19 19 18 18 18 19 19 18 18 18 18 17 16 17 19 20 21 22
1 2 2 2 1 0 3 2 3 5 6 9 9 13 11 9 7 8 10 13 13 16 18 20 21 20 20 20 20 21 22 21 20 20 21 22 23 22 22 21 20 19 19 17 16 15 15 16 17 16 17 17 17 15
2 2 2 1 1 0 1 5 2 5 5 5 5 7 8 5 8 6 12 14 18 23 24 23 24 24 23 23 24 25 25 23 23 24 24 24 22 20 20 19 17 15 13 12 11 11 12 12 12 12 11 9 8 9

GFSWCAN_850_spd_075.txt.gz
Wind_Speed
39 36 32 33 29 25 24 19 17 14 9 4 5 6 6 8 7 6 8 7 6 5 17 7 8 9 10 4 2 10 12 1 4 3 2 3 3 6 4 5 7 6 7 4 3 4 8 5 4 5 4 3 6 8
39 35 33 35 29 25 21 20 19 13 8 8 7 5 6 7 8 11 11 10 9 12 18 27 28 23 27 29 17 6 10 7 4 3 5 3 3 2 6 4 1 3 6 5 7 6 4 5 7 4 8 4 3 2
38 34 36 32 28 26 23 22 18 13 9 9 8 9 10 9 9 11 13 14 11 13 21 9 20 14 15 16 14 9 8 9 4 3 1 2 5 3 4 5 4 3 5 4 3 5 9 17 11 12 6 5 2 2
37 35 34 32 28 24 23 20 17 15 10 11 12 13 14 13 12 13 13 15 14 12 5 12 14 16 21 15 17 20 23 5 2 2 1 1 3 5 3 5 4 5 9 6 4 5 4 8 11 14 10 7 5 3
34 33 33 29 28 25 21 17 17 11 12 13 15 13 12 15 13 17 13 16 17 10 5 15 29 2 12 2 10 17 24 28 19 4 3 2 4 4 3 3 4 8 6 5 5 11 9 10 10 11 13 11 7 6
34 32 31 29 25 21 18 13 12 13 15 15 16 16 16 15 14 17 7 8 7 8 6 5 11 10 8 3 7 13 23 23 13 7 5 5 11 0 3 3 6 14 12 18 6 9 10 5 3 5 12 12 10 8
33 31 28 26 22 19 13 14 15 15 11 15 16 17 13 16 16 14 5 3 8 8 3 7 9 5 11 7 4 7 13 10 10 6 6 6 4 4 3 3 8 19 18 13 9 8 7 10 5 6 8 12 11 10
34 32 27 23 18 16 15 14 13 12 15 15 13 10 11 13 17 18 15 14 13 4 3 3 5 8 3 3 3 6 8 14 9 8 5 5 8 10 5 14 27 26 15 12 10 14 9 8 10 10 10 10 10 8
31 27 24 19 17 14 11 13 13 10 7 7 4 6 11 12 11 7 6 6 6 6 2 3 1 4 4 4 3 5 6 3 5 3 4 5 4 5 10 19 17 18 14 9 12 15 10 9 12 11 11 10 9 8
26 22 19 16 13 12 12 9 6 4 3 5 12 6 4 4 5 3 3 5 6 4 6 5 4 4 5 3 4 5 6 3 3 5 7 4 4 23 26 17 8 9 10 12 15 13 13 13 12 12 11 10 9 9
21 17 15 13 13 11 8 7 6 7 13 9 5 4 4 7 6 3 3 3 4 3 6 6 12 6 8 4 3 8 2 2 3 3 4 4 3 2 11 16 10 6 7 11 12 9 11 9 11 11 10 8 7 8
17 16 15 12 9 9 9 8 9 9 8 9 7 9 9 4 3 3 3 3 3 3 4 4 7 9 8 8 5 4 3 3 2 7 3 2 1 2 4 5 5 5 6 8 6 5 5 5 7 9 8 7 8 9
14 15 11 10 9 9 8 10 9 9 12 9 4 5 4 4 4 5 6 3 2 4 4 4 3 4 5 7 6 3 3 1 4 3 2 2 8 3 2 4 5 5 5 4 4 4 4 4 4 5 6 6 6 7
13 12 10 8 9 11 13 15 11 13 7 4 6 4 4 4 6 4 4 4 4 6 9 10 6 4 4 3 3 3 2 2 3 3 2 3 12 5 1 3 3 4 4 4 4 4 3 3 3 4 4 3 1 2
8 10 11 13 11 14 18 16 16 14 4 4 5 5 6 9 4 2 7 4 5 8 11 9 8 6 3 3 2 2 3 2 2 2 2 10 9 2 4 5 5 8 10 12 12 12 12 9 5 3 1 2 3 4
13 12 16 15 13 19 20 20 23 16 5 4 5 3 6 2 4 7 8 10 9 8 10 7 3 3 3 2 2 2 1 2 2 2 10 12 4 2 4 4 8 11 10 8 6 5 4 3 1 1 2 4 5 5
14 15 17 14 19 22 22 24 17 7 6 5 5 11 7 4 5 5 8 8 8 3 2 2 3 2 2 2 2 2 3 2 9 13 10 7 2 3 5 6 8 8 5 5 3 2 1 2 3 3 4 5 5 6
19 16 10 16 30 28 32 25 9 7 8 8 5 8 9 9 5 5 7 10 4 4 2 2 3 2 3 2 3 2 2 5 7 8 9 6 1 3 5 7 8 7 6 5 3 2 2 3 4 5 5 5 5 6
14 11 14 31 39 31 12 12 8 5 9 4 8 7 5 5 12 13 9 9 8 7 4 3 3 3 3 4 4 4 3 4 6 10 12 8 4 3 5 7 8 8 8 7 7 5 5 5 6 6 6 6 6 6
13 15 19 31 39 12 7 6 10 5 5 5 6 7 5 3 5 8 10 9 8 5 5 4 4 4 4 3 5 3 3 4 6 7 8 9 7 5 5 6 7 9 10 11 11 11 10 9 8 8 8 7 7 7
19 34 44 43 24 7 4 6 4 3 3 4 5 5 3 4 4 3 4 10 7 6 5 14 16 9 7 7 7 8 6 9 9 10 11 13 11 9 7 8 10 13 14 14 15 14 13 11 10 11 10 9 8 8
29 37 27 25 4 4 4 6 5 7 4 4 5 4 2 1 3 6 4 8 7 10 12 11 12 11 11 11 9 9 11 16 18 20 18 18 19 17 15 13 14 13 14 14 15 15 13 12 13 12 11 11 10 9
29 22 12 4 4 3 3 12 3 4 2 2 3 0 1 2 2 4 4 8 9 10 11 14 14 15 15 13 11 13 16 19 20 18 18 18 18 17 18 18 17 17 17 14 15 15 15 14 16 14 13 12 11 10
17 5 3 4 4 4 7 3 4 4 4 2 2 2 3 4 2 3 3 5 8 7 8 8 8 8 5 6 3 3 5 6 7 8 9 10 11 11 14 15 16 17 17 16 17 16 14 14 16 16 14 13 12 11
5 2 4 3 4 5 3 3 2 2 2 3 3 2 2 3 2 1 3 5 7 5 4 9 7 5 5 5 5 5 6 8 10 10 10 10 10 9 8 10 12 12 14 16 14 13 13 14 15 15 15 14 13 13
3 1 3 5 2 4 4 4 4 4 3 4 5 2 3 2 1 5 3 3 8 8 7 6 5 6 6 4 1 4 8 11 13 13 11 11 12 13 12 12 10 7 10 11 11 13 14 14 15 16 16 15 15 17
4 2 3 4 5 6 4 3 4 2 5 6 3 3 2 2 4 4 4 4 6 10 10 10 12 13 12 8 8 11 14 16 18 18 17 15 15 15 16 16 16 14 12 12 12 13 14 14 15 16 17 17 18 19
3 4 5 7 4 4 3 2 4 6 4 5 8 3 7 7 4 1 2 7 4 6 10 13 16 17 18 18 19 23 24 25 25 24 22 20 18 15 15 16 15 16 17 16 17 18 18 18 18 19 20 20 20 22
3 7 8 3 3 4 7 4 5 5 7 10 4 3 4 5 2 5 12 16 18 19 19 18 20 24 28 32 34 33 31 29 28 27 25 24 21 17 17 16 16 16 17 17 18 19 20 21 21 22 22 22 22 22
4 7 4 3 4 3 3 5 3 6 7 5 3 4 7 13 14 16 19 20 20 20 20 20 20 21 23 25 27 26 24 26 26 25 26 23 19 18 19 19 19 20 20 19 18 18 19 19 20 20 19 19 19 19
7 4 3 2 2 3 4 4 3 5 6 7 12 13 17 16 24 17 16 14 10 12 11 13 15 17 20 20 21 22 19 15 15 15 16 18 19 19 19 20 20 20 20 20 19 18 18 18 17 17 16 16 17 19
3 2 3 2 2 2 0 1 2 3 4 5 6 8 7 7 6 8 12 9 11 17 20 21 24 24 24 25 24 23 22 19 17 18 19 20 20 21 21 21 21 21 20 19 19 17 16 15 14 14 15 15 15 15
3 3 4 3 2 2 2 4 3 5 4 3 3 4 5 4 6 5 5 9 13 16 20 24 26 26 25 23 22 21 21 22 22 24 24 24 25 25 24 23 21 19 18 17 16 14 12 11 10 10 11 10 8 7

GFSWCAN_850_spd_078.txt.gz
Wind_Speed
44 50 42 39 35 35 30 26 23 21 17 12 8 4 3 3 3 5 7 7 9 6 11 5 10 12 11 6 3 7 9 1 3 3 2 3 4 3 2 6 7 8 7 4 3 4 7 8 5 6 5 4 5 8
50 45 45 39 35 35 32 27 24 21 19 14 10 6 2 2 4 4 6 5 7 8 11 26 20 16 19 22 16 4 4 6 3 2 4 4 4 2 2 3 2 4 6 5 7 6 3 13 6 11 6 7 5 5
51 52 47 37 36 36 31 27 26 23 17 12 12 8 4 4 5 5 7 6 10 7 18 11 12 14 13 13 14 7 5 7 3 2 3 2 5 4 2 2 4 3 4 3 3 5 8 14 13 12 13 7 4 3
48 53 43 40 35 35 30 26 23 20 16 11 10 8 6 3 4 8 8 11 8 7 4 8 16 15 15 12 14 18 17 5 8 0 2 2 2 1 3 4 2 5 3 6 3 6 5 9 10 9 11 9 6 2
48 51 44 42 37 34 30 26 24 19 15 12 10 9 7 6 6 9 11 15 13 7 4 14 22 0 9 2 6 12 17 19 13 4 3 3 4 3 3 4 5 7 6 5 6 11 8 11 9 8 12 13 7 6
54 50 42 36 38 32 28 26 23 20 17 14 12 13 9 10 9 9 5 6 13 11 4 4 7 4 2 2 5 8 13 15 10 6 5 6 15 6 3 3 7 7 5 7 5 8 12 6 5 5 9 12 10 9
56 50 40 40 36 32 29 27 20 17 16 12 11 14 12 13 13 12 4 2 8 5 3 6 9 4 8 3 4 7 9 10 11 6 7 7 5 11 3 4 7 9 13 14 6 6 6 9 6 6 4 9 11 9
48 45 44 37 34 32 27 22 19 16 11 10 11 7 9 11 9 13 13 15 4 3 1 2 4 8 3 3 3 5 5 9 8 6 4 5 7 9 5 9 23 27 25 19 10 12 10 6 10 7 7 8 8 6
49 44 42 37 33 28 24 20 18 13 10 11 10 8 9 7 5 6 10 4 3 2 2 2 1 4 7 4 5 2 4 3 5 4 5 5 3 6 13 20 22 23 11 8 5 7 9 6 8 9 8 7 7 6
46 41 40 35 30 26 23 19 15 8 10 15 17 5 5 6 6 5 5 5 2 2 3 4 4 3 4 3 3 2 4 2 2 4 5 3 5 22 29 19 18 15 13 13 11 11 11 10 9 9 7 6 5 5
43 39 35 30 27 24 20 15 12 16 21 15 7 5 8 11 5 2 3 2 3 2 5 6 9 4 6 3 3 4 2 3 3 3 4 3 3 2 9 18 25 21 14 8 7 5 5 7 8 9 8 7 7 7
38 34 31 28 24 21 17 15 18 20 13 9 10 16 11 4 2 2 2 3 3 4 5 5 6 8 6 6 4 4 3 2 4 9 2 3 3 11 4 1 3 6 6 4 4 4 3 5 6 8 7 6 6 7
33 30 28 24 20 20 19 17 17 14 19 15 5 5 6 4 3 5 6 3 3 5 6 5 2 4 4 7 6 3 4 2 8 3 2 2 9 13 6 1 2 3 3 3 3 3 4 4 4 4 4 5 6 7
29 26 23 23 21 18 16 18 19 20 6 3 5 5 4 4 5 5 4 4 4 2 2 6 5 4 4 3 3 4 2 2 3 2 2 2 15 12 4 1 1 2 2 2 2 3 3 3 2 3 2 2 1 1
26 21 19 19 19 18 19 17 17 17 3 3 5 5 5 6 5 2 8 4 3 2 6 6 6 6 3 3 3 3 3 2 2 2 2 12 17 9 4 2 1 2 5 7 8 9 9 8 7 4 1 2 4 6
17 16 15 15 13 14 20 21 20 11 2 4 4 2 5 1 3 7 11 7 5 3 4 3 2 3 3 2 2 3 1 2 1 2 12 14 11 7 4 2 3 7 9 9 7 5 3 1 0 2 3 4 6 6
13 10 11 10 17 22 21 19 13 5 5 4 4 9 8 4 6 5 10 9 8 3 0 2 3 3 2 2 2 2 2 2 8 10 10 9 9 5 2 1 5 6 2 2 2 1 1 2 3 4 5 6 6 6
11 12 13 22 26 26 30 18 7 6 7 7 5 10 12 9 5 7 9 10 7 5 2 2 4 3 3 2 3 2 3 4 3 6 9 10 7 4 4 3 6 6 4 4 5 3 2 3 4 6 7 7 7 7
12 10 15 30 33 28 9 10 7 5 8 5 9 7 8 6 13 10 10 9 9 7 2 2 4 3 4 5 6 5 6 3 3 5 6 7 9 6 4 4 7 9 8 8 7 7 6 7 7 8 8 8 7 8
12 15 19 30 35 12 7 6 9 5 6 6 6 6 5 3 6 9 11 11 9 5 5 4 5 6 6 5 7 8 5 3 5 7 7 7 8 9 8 7 7 10 11 11 11 12 12 12 11 11 11 10 9 9
19 17 31 43 29 7 6 7 6 4 4 5 6 7 3 5 6 6 6 10 9 6 6 16 20 18 14 10 9 7 10 8 8 10 13 16 14 14 13 11 10 11 14 14 15 15 16 15 12 14 12 11 10 10
24 36 32 28 5 5 4 8 5 9 5 4 5 5 3 3 5 7 7 10 7 11 13 17 21 19 18 17 13 10 9 11 14 17 18 19 20 18 17 15 15 15 15 15 15 16 16 14 16 16 14 12 12 11
33 24 11 6 4 3 4 14 3 5 3 6 5 3 2 3 3 5 4 7 9 14 17 19 19 19 18 17 15 11 11 15 16 14 13 13 13 13 15 15 16 17 18 16 16 17 16 13 16 16 15 14 13 12
15 6 4 4 3 4 7 3 4 4 5 3 3 2 2 3 2 2 3 5 10 8 6 6 8 11 13 13 11 8 4 2 1 4 7 8 9 8 10 10 11 13 14 15 16 16 15 13 14 14 14 14 14 13
5 1 3 3 4 5 3 2 1 2 3 3 3 2 1 3 1 2 3 5 6 5 6 7 7 5 3 5 6 5 2 4 7 8 10 11 12 12 10 11 11 10 10 12 11 11 11 12 13 14 14 15 14 14
4 1 2 4 2 4 4 4 5 5 3 2 3 3 3 2 1 5 3 2 7 8 7 8 5 5 8 7 5 3 2 4 8 11 13 16 16 15 16 16 14 9 12 11 10 10 10 12 13 14 14 14 14 16
3 3 3 3 5 7 4 4 4 3 4 5 3 3 2 2 5 4 2 2 5 9 9 9 9 11 13 12 13 12 12 14 16 19 22 22 21 21 19 20 18 16 15 15 15 14 13 13 14 15 15 16 17 18
3 7 6 9 4 4 4 2 4 6 4 6 10 4 6 7 4 1 3 5 5 3 3 6 10 13 15 17 19 20 21 24 27 30 32 32 29 26 21 19 20 18 17 17 17 17 18 19 19 19 19 19 19 21
3 9 9 2 3 3 7 5 5 5 5 11 4 3 4 4 3 2 5 9 12 14 15 16 16 18 19 22 25 28 30 32 34 35 35 35 31 23 20 19 18 18 17 15 15 15 16 17 18 19 19 20 20 20
6 10 4 4 4 4 3 5 2 5 8 6 3 4 5 8 7 10 15 17 14 12 10 9 9 11 11 14 16 16 16 19 20 22 24 24 22 18 17 17 17 18 19 18 17 16 16 16 17 16 16 16 16 16
10 6 3 2 1 2 3 5 4 4 5 6 11 11 11 11 15 11 6 7 2 2 7 11 15 17 19 21 24 27 26 22 21 20 20 20 19 18 19 21 22 21 21 20 19 18 17 17 17 17 16 15 14 14
4 2 4 3 2 4 3 1 2 2 3 4 4 5 4 5 5 4 4 4 4 11 15 19 23 25 26 28 28 27 29 28 25 25 26 25 24 22 22 22 23 23 21 20 19 19 18 16 15 14 14 13 13 12
4 3 3 4 3 2 1 2 2 3 3 3 2 3 3 3 5 4 4 5 8 15 23 26 27 28 27 27 27 25 25 26 24 23 23 23 24 24 25 24 23 22 21 20 18 17 15 13 12 11 10 10 9 7

GFSWCAN_850_spd_081.txt.gz
Wind_Speed
51 48 49 43 47 42 37 34 31 27 22 18 16 11 8 5 4 4 6 7 9 1 5 5 5 8 6 5 2 7 6 3 4 1 2 3 2 2 1 3 4 8 7 3 4 3 8 10 7 7 5 2 5 7
48 46 50 49 51 43 40 34 31 26 23 20 18 12 9 7 6 5 5 4 9 3 3 11 9 10 12 16 10 3 2 1 2 1 2 2 2 3 5 2 3 2 4 4 7 6 2 16 5 15 6 6 4 6
47 46 53 53 50 45 40 34 31 27 24 22 19 13 8 6 4 5 4 4 11 9 8 4 2 7 9 4 7 7 5 5 2 1 1 3 4 0 3 1 3 2 5 2 1 5 7 11 16 12 11 12 7 5
47 45 48 53 50 48 41 37 31 29 25 22 19 13 9 7 4 2 2 6 5 2 2 6 8 20 7 7 11 12 14 6 5 3 4 2 3 2 3 3 2 4 4 2 5 6 7 9 16 14 11 13 10 6
45 44 53 60 55 48 42 36 32 29 24 22 17 13 9 4 1 2 5 4 5 2 2 9 15 3 5 3 2 10 13 17 6 2 3 3 4 2 4 3 6 8 5 3 4 6 5 8 8 6 11 12 11 8
45 51 51 58 52 48 43 37 30 26 25 20 16 13 9 8 8 6 2 2 4 2 2 3 4 1 0 4 4 7 9 12 12 4 5 6 9 4 2 3 9 19 14 10 6 13 14 11 5 6 5 8 10 9
47 49 52 52 47 46 41 34 28 27 24 20 17 15 12 11 10 6 3 5 6 3 2 4 6 2 4 2 2 5 11 9 9 5 6 5 6 10 3 5 15 9 5 9 13 15 10 9 5 5 3 6 10 11
48 53 56 54 49 41 36 34 32 29 25 21 18 15 15 14 8 8 7 3 7 2 2 0 3 5 3 2 2 4 4 7 6 5 3 3 3 7 5 12 24 35 31 25 18 13 14 6 5 5 5 7 10 9
47 56 55 50 49 49 41 37 34 28 24 21 15 15 17 10 6 5 6 4 1 2 2 1 1 3 5 2 3 2 4 3 4 3 4 3 3 5 9 15 19 18 12 8 11 16 10 6 5 6 7 7 7 6
57 60 52 48 49 44 42 38 32 28 24 20 25 7 6 8 8 11 2 1 2 1 1 2 2 2 3 3 2 2 4 2 2 4 4 2 4 20 23 27 22 16 14 11 11 12 13 10 8 8 7 6 5 4
62 63 56 55 47 44 39 35 32 29 27 23 8 6 17 14 6 2 3 2 3 1 4 5 7 3 3 2 2 3 2 2 1 3 2 3 3 4 16 11 7 19 20 21 16 10 7 6 9 9 7 6 5 4
63 58 53 47 44 40 37 33 33 31 19 12 13 20 15 5 3 2 1 2 2 3 5 5 4 7 4 4 3 4 3 2 5 7 1 3 2 19 14 9 6 3 3 4 3 1 2 4 5 6 5 4 3 3
56 50 45 40 37 35 34 32 29 23 23 18 6 6 7 4 3 6 6 3 2 5 7 6 2 3 3 6 5 3 3 3 8 2 3 1 8 20 13 8 4 2 1 2 2 3 3 4 5 4 4 3 2 3
48 47 43 40 38 36 38 34 26 25 12 5 6 6 4 4 4 4 4 4 5 6 8 3 2 4 3 3 4 3 3 2 2 2 3 2 15 19 11 8 5 2 1 3 2 2 3 3 4 3 2 3 2 1
47 44 41 39 39 37 31 24 25 16 4 5 5 4 5 4 4 5 9 6 7 8 3 1 4 3 2 3 3 3 2 2 2 2 2 12 18 15 10 6 4 0 3 6 7 7 8 8 7 6 4 3 3 4
45 41 36 34 29 25 23 27 23 7 5 4 3 4 4 4 2 7 9 8 9 6 3 3 1 2 3 3 2 4 2 3 2 2 10 14 13 11 8 5 3 7 9 9 8 7 6 5 3 2 3 4 5 5
32 31 31 30 26 25 26 24 10 4 3 3 2 6 10 2 4 7 12 13 12 8 2 2 2 5 3 2 3 3 3 2 5 8 7 10 10 8 7 3 5 6 7 6 2 1 1 2 3 4 5 5 5 5
24 27 27 30 32 29 21 8 4 4 3 5 5 9 12 4 4 6 6 12 12 7 4 4 1 2 4 3 3 3 6 7 7 6 6 7 8 7 6 4 3 6 2 2 4 5 4 3 4 5 6 7 6 6
22 26 30 31 32 20 6 8 4 5 5 4 5 5 8 3 8 6 10 11 12 8 3 3 4 4 5 8 6 7 6 7 5 5 6 6 7 8 7 6 4 7 8 9 9 8 8 8 7 7 8 8 8 8
17 23 32 30 29 5 5 5 7 4 4 4 5 8 4 3 4 8 11 12 12 5 7 4 6 12 8 9 7 7 7 5 6 6 7 6 9 11 11 10 9 9 12 13 13 13 12 13 11 11 12 12 10 9
23 25 29 31 17 2 4 6 4 4 5 4 6 7 3 3 3 7 8 13 11 6 6 17 24 22 17 14 12 11 8 9 11 12 12 14 14 17 18 16 16 15 14 13 14 14 15 14 12 15 16 13 12 11
27 38 28 28 4 5 3 5 6 8 5 6 7 4 2 1 3 5 7 10 7 16 18 22 24 19 19 23 22 22 16 12 13 15 16 18 21 19 19 18 18 17 17 16 16 16 15 15 16 17 16 13 14 12
26 24 10 4 4 3 3 12 3 4 3 5 6 3 1 1 1 4 4 7 10 18 22 24 22 19 17 17 14 11 11 12 14 17 13 8 7 9 11 11 13 14 14 12 15 17 16 14 14 14 14 14 14 13
18 6 4 4 3 4 7 2 4 4 5 3 3 3 2 4 4 2 3 6 12 12 10 8 9 9 9 11 14 13 13 11 7 4 3 5 6 8 10 11 11 11 12 11 11 11 11 12 12 12 11 12 13 14
6 2 4 3 4 5 3 2 1 2 3 3 3 2 2 5 1 2 3 6 8 5 6 6 6 5 2 2 4 8 8 6 5 3 5 8 11 13 13 13 13 13 11 11 10 9 9 10 11 11 11 12 13 13
4 2 3 3 3 4 4 4 4 5 4 2 4 3 3 3 1 6 4 3 3 4 5 6 6 3 3 4 5 7 7 6 5 6 7 10 14 17 19 21 21 16 16 14 13 11 10 10 11 11 12 12 13 13
4 3 3 4 6 8 4 4 4 3 4 5 4 3 3 3 5 5 1 1 1 4 4 5 7 8 8 9 11 12 14 15 15 16 19 21 23 25 28 28 26 21 16 17 17 16 15 14 14 14 14 14 14 14
3 6 5 9 4 4 4 3 5 7 4 7 10 4 6 7 4 2 4 7 5 3 0 3 6 10 12 13 14 15 16 20 23 26 29 32 33 31 27 24 22 21 22 19 17 15 15 14 14 14 15 16 16 16
3 9 10 2 4 4 7 5 6 6 6 10 4 3 4 3 2 5 5 5 6 9 11 10 11 11 12 13 14 16 18 20 23 26 27 28 24 21 22 21 19 17 16 17 16 14 13 14 15 15 14 14 14 15
6 11 4 3 4 4 4 6 3 6 9 7 3 3 4 4 5 4 8 13 11 7 3 2 4 8 12 14 16 17 18 21 22 24 27 26 24 22 21 19 18 18 18 17 16 17 16 16 15 12 13 13 13 13
12 6 3 2 2 3 4 6 4 5 5 6 11 10 8 6 6 8 3 1 2 3 3 7 12 17 20 23 25 26 25 23 23 23 25 28 27 26 24 23 22 22 23 23 20 18 17 17 15 15 14 13 12 12
6 5 5 2 2 5 5 3 3 3 4 3 3 3 3 3 3 2 3 2 2 2 8 16 22 23 22 23 22 22 23 22 21 22 23 25 26 26 26 26 26 25 24 23 22 20 18 17 16 15 14 12 11 11
4 4 3 4 4 4 2 2 2 1 1 1 1 2 2 3 4 2 2 1 3 9 15 20 24 22 20 19 19 19 19 19 19 20 20 22 23 24 23 23 22 22 22 22 21 20 18 16 14 13 12 11 9 9

GFSWCAN_850_spd_084.txt.gz
Wind_Speed
32 32 20 43 45 53 50 44 42 37 31 27 23 19 17 15 11 8 8 6 5 4 10 8 7 6 4 4 2 2 3 1 3 1 2 3 3 3 3 1 2 6 5 4 6 4 10 9 8 6 2 3 2 3
34 30 19 53 56 50 53 46 43 37 31 28 25 20 17 15 12 8 8 6 5 6 6 7 6 4 7 9 3 3 1 1 1 1 1 2 2 3 3 2 2 4 3 2 6 4 2 14 6 12 5 2 2 3
32 21 35 51 51 47 54 48 44 38 33 29 25 21 18 15 12 9 10 6 5 5 8 5 4 1 8 6 10 5 3 3 2 3 1 1 4 2 3 2 3 2 2 3 2 4 9 7 12 11 9 11 6 5
35 27 39 43 46 58 56 49 46 40 33 29 26 24 19 17 15 11 8 5 6 5 3 4 2 8 1 6 8 12 6 4 4 2 2 2 3 1 3 4 4 4 3 2 7 11 12 13 14 15 15 16 16 9
34 27 32 51 40 58 54 51 44 37 32 30 28 24 20 18 14 10 7 4 6 3 2 2 2 3 1 1 2 9 13 7 4 3 3 3 3 4 4 5 9 12 8 5 3 8 9 8 11 7 12 14 10 10
33 17 52 49 36 56 55 49 42 37 34 31 29 25 21 18 12 10 4 6 8 6 3 2 1 2 1 2 3 5 8 10 9 4 4 4 5 3 3 4 7 15 20 14 9 8 15 20 18 11 8 7 10 11
29 20 56 56 46 59 55 48 42 38 31 33 29 23 19 15 11 5 3 10 7 3 3 2 1 2 2 1 1 4 9 7 7 4 5 6 6 8 3 5 6 6 4 7 11 12 9 10 6 7 5 4 9 11
26 42 49 55 59 62 55 47 43 37 36 32 28 25 20 15 11 8 7 4 4 2 4 2 1 1 3 2 2 4 3 5 6 4 3 4 3 6 5 13 17 15 14 22 20 12 14 16 14 7 4 6 9 9
26 60 51 55 59 59 52 49 43 41 38 35 31 25 20 13 6 7 9 4 3 2 5 3 2 2 2 2 2 3 4 3 4 3 3 3 3 6 12 15 19 16 7 12 15 9 15 14 10 7 6 8 8 8
47 63 53 63 63 58 57 53 47 44 40 35 31 9 7 9 12 13 4 1 2 2 2 2 2 1 2 1 1 2 3 2 2 2 3 3 5 17 18 17 17 18 15 13 14 14 9 12 9 7 7 7 8 7
55 61 66 65 64 62 58 54 48 43 37 30 8 6 22 20 6 3 3 2 3 1 4 3 5 1 2 1 0 2 1 2 2 1 2 2 3 3 20 13 11 6 8 13 16 14 13 11 7 9 8 8 7 6
67 71 69 66 65 61 55 50 48 45 26 14 17 25 17 5 3 3 2 2 3 3 6 5 5 6 2 4 3 3 2 2 3 6 2 3 2 18 20 14 8 6 1 1 2 3 2 4 6 8 8 7 6 5
74 71 69 66 60 55 51 47 44 35 29 27 7 7 5 3 3 7 7 4 3 7 9 7 4 4 4 4 3 2 3 3 7 2 2 3 7 17 18 12 8 4 2 1 2 3 4 6 8 8 8 6 4 3
73 74 70 61 56 52 49 45 37 36 11 5 6 5 5 4 5 5 4 4 5 9 16 9 3 4 3 3 3 3 3 3 2 2 2 2 13 17 14 10 9 5 3 3 3 3 3 4 5 5 5 4 3 2
72 66 57 54 51 48 46 42 38 18 6 6 6 5 6 4 4 9 11 11 12 15 12 6 3 2 2 2 2 3 3 3 2 2 2 8 15 13 11 9 6 3 1 2 4 5 7 8 8 7 5 2 1 2
64 59 54 52 51 47 42 36 22 11 6 5 4 4 4 5 4 7 10 12 16 14 8 3 2 2 3 2 3 5 2 3 1 1 8 12 12 10 9 6 3 5 5 7 9 7 6 5 3 1 0 1 2 2
52 46 50 50 44 43 36 21 9 5 4 4 2 5 8 5 10 10 14 14 17 13 3 3 4 3 1 2 3 3 3 1 1 6 7 8 11 9 7 3 3 3 1 4 8 4 3 2 1 2 3 3 3 3
53 49 44 37 36 29 23 8 5 4 3 3 4 6 8 6 11 9 11 18 13 8 8 4 3 3 4 4 3 3 5 3 5 6 7 6 6 6 6 4 3 5 4 1 1 4 5 5 4 4 5 5 5 5
43 43 38 34 30 15 6 3 3 4 3 5 7 11 7 6 7 11 10 20 10 13 8 4 3 4 4 6 6 6 6 4 4 4 6 4 3 5 7 8 5 5 7 8 8 10 11 10 9 9 9 9 7 7
41 36 36 30 16 6 5 4 4 4 4 6 7 9 6 5 9 12 13 16 14 6 4 4 6 8 7 10 8 9 7 6 5 6 8 6 6 8 10 11 11 11 10 10 11 11 14 14 13 13 13 12 11 9
34 28 29 19 9 7 5 5 4 4 7 4 9 9 5 8 6 8 11 14 8 5 5 17 22 22 17 15 14 10 11 9 9 9 12 14 13 15 17 18 17 15 15 15 15 14 15 15 12 15 16 15 14 12
30 33 26 17 3 4 5 4 6 7 4 7 9 5 4 4 6 7 9 8 7 13 14 18 22 21 20 20 19 22 19 17 17 16 14 15 18 17 13 12 13 12 13 14 16 17 16 14 15 15 17 15 15 14
27 25 11 4 3 3 4 8 3 3 3 4 5 2 2 3 4 7 4 7 10 15 19 23 23 22 19 16 16 15 13 13 13 14 13 13 6 5 6 8 9 10 10 7 10 12 13 13 14 14 14 14 15 15
19 5 4 4 4 4 6 2 4 4 5 2 3 3 2 3 4 2 3 6 11 13 12 9 9 11 11 13 15 14 16 17 15 12 7 4 1 3 7 9 11 12 13 11 9 9 10 11 12 12 12 13 13 13
4 2 3 4 4 5 3 3 2 2 2 2 3 1 2 3 1 2 3 6 6 6 5 8 7 6 5 2 3 3 9 10 9 9 8 5 0 5 8 13 15 16 16 15 14 13 12 11 10 10 10 11 11 12
4 1 2 3 3 3 4 4 5 4 3 3 2 3 3 2 1 5 3 3 3 0 2 4 6 7 5 3 3 3 4 7 9 7 6 8 11 15 18 22 25 25 22 19 15 14 14 14 13 12 11 11 12 12
4 3 3 4 6 8 4 4 4 3 3 5 4 4 3 3 4 4 1 1 3 4 5 7 6 5 6 5 5 7 10 12 14 16 18 19 21 22 25 29 30 27 24 21 19 18 18 16 15 15 15 15 14 14
3 7 6 9 5 3 4 2 4 5 4 6 10 3 7 7 3 2 3 8 7 5 3 3 5 6 7 8 9 10 12 14 16 20 22 24 27 26 22 21 22 24 24 23 22 22 21 18 16 14 14 14 14 15
3 10 9 3 3 3 5 4 6 6 8 11 4 3 4 3 2 4 9 5 4 5 8 7 6 4 3 4 6 8 10 13 15 18 21 23 23 23 24 23 21 21 21 20 19 18 17 17 17 17 16 16 15 14
5 9 5 3 4 3 3 5 4 6 9 7 3 2 2 3 4 7 8 9 11 6 5 4 1 2 7 10 13 15 17 19 21 23 25 25 24 24 24 24 24 23 24 23 22 20 20 20 20 20 16 15 14 14
12 4 4 3 1 2 4 8 5 6 6 7 10 8 6 4 6 9 7 6 8 7 4 2 6 10 14 17 17 17 17 17 17 19 22 24 25 24 24 24 24 26 28 28 25 23 22 24 22 20 19 17 15 14
6 4 5 3 2 5 7 5 4 3 3 4 4 6 4 5 4 5 6 9 8 3 4 8 12 16 19 21 20 19 19 18 19 21 21 23 23 22 22 22 22 24 24 24 24 23 22 21 20 20 19 17 16 14
5 5 3 5 4 4 5 5 3 3 4 4 3 2 3 3 4 5 7 8 4 4 9 14 19 22 22 21 19 19 20 21 21 22 23 22 22 21 20 19 19 19 20 21 21 21 20 20 19 18 17 16 14 13

GFSWCAN_850_spd_087.txt.gz
Wind_Speed
21 28 25 29 16 44 57 54 49 45 42 36 33 31 30 28 25 23 19 15 11 5 6 7 5 3 2 3 1 3 2 3 2 2 1 2 3 3 4 3 1 5 4 4 7 3 8 12 9 5 3 3 1 3
24 27 29 29 17 26 58 54 49 47 41 36 34 31 28 26 24 18 17 14 11 7 6 9 8 7 4 4 4 2 2 1 2 2 2 3 3 3 3 2 1 3 3 2 5 2 5 11 6 6 10 6 3 3
25 25 31 36 20 17 62 58 51 49 43 39 34 30 26 24 21 17 17 14 12 8 7 5 3 6 5 7 8 3 2 2 2 2 2 2 4 2 3 3 3 3 2 3 7 2 5 7 9 10 8 8 5 4
25 24 25 34 25 38 65 61 56 50 44 38 33 29 26 23 19 15 15 12 11 10 5 4 7 3 3 6 8 9 3 4 3 1 1 2 3 1 3 6 7 10 2 3 8 16 15 10 5 10 11 12 11 9
22 20 23 37 16 52 66 59 56 50 44 38 32 30 28 24 21 16 12 12 9 7 4 7 5 7 3 4 6 10 8 4 2 2 3 2 3 4 6 6 8 10 8 9 6 5 9 11 12 18 13 9 10 7
23 24 20 35 27 56 64 59 56 50 45 37 32 30 27 24 20 15 6 8 8 10 6 4 4 5 6 4 4 7 8 7 4 3 3 3 6 3 3 4 5 9 12 15 19 12 14 18 17 11 11 11 8 7
28 26 28 18 48 65 63 59 55 49 42 34 30 30 26 20 14 7 7 11 7 7 4 5 5 3 5 5 4 5 6 4 4 3 4 4 3 5 3 4 5 9 11 15 12 12 12 6 9 17 12 8 5 8
28 29 29 18 61 63 61 58 54 47 40 38 36 30 23 17 14 15 13 8 4 5 5 3 3 5 7 4 4 4 3 3 4 3 2 4 3 5 5 13 14 17 17 14 13 9 15 16 15 14 11 5 4 7
31 30 20 46 64 63 60 58 52 47 46 42 36 28 23 10 6 10 10 5 3 4 3 2 5 3 6 3 3 3 4 2 4 3 3 3 3 6 11 15 19 20 15 12 8 7 10 11 16 14 9 5 5 5
29 31 24 65 67 63 61 57 52 55 50 44 39 10 5 7 10 14 5 2 3 1 1 2 4 3 5 5 4 4 4 1 2 4 4 3 5 16 12 19 18 15 15 13 11 10 10 14 9 9 7 6 5 7
32 30 46 67 65 65 63 58 61 56 50 37 9 6 22 21 8 4 3 1 1 2 4 4 5 4 3 3 2 5 1 2 2 3 3 2 3 1 13 17 12 11 10 10 12 12 10 13 13 9 8 7 7 6
30 37 67 70 69 67 65 65 63 55 28 18 19 26 17 5 4 3 2 2 4 4 7 7 6 4 4 3 2 4 2 2 3 7 2 3 0 9 15 15 12 8 7 6 5 5 8 7 7 7 8 7 6 4
35 61 74 73 70 69 66 65 48 46 29 29 10 7 6 3 2 5 7 4 4 9 10 8 5 6 4 3 2 2 3 3 5 3 3 1 4 11 13 15 12 8 5 5 5 4 4 1 4 6 6 5 5 5
65 74 75 74 75 70 71 55 52 38 21 6 6 6 4 4 5 5 3 3 5 10 17 13 8 5 5 4 2 3 3 2 3 3 2 2 8 10 13 12 13 10 6 3 3 3 3 3 3 3 3 3 3 3
76 80 78 77 72 67 61 53 45 26 8 6 5 4 4 4 2 5 8 8 8 19 16 9 5 3 3 2 3 1 3 4 3 2 2 4 9 9 12 13 10 7 4 1 1 2 2 2 4 5 4 3 1 2
80 79 76 71 67 60 55 48 25 19 5 4 4 5 5 6 4 6 8 13 15 15 10 4 3 4 3 3 4 5 3 4 2 1 2 6 7 8 9 10 6 4 2 1 6 9 6 2 2 1 1 2 3 3
70 53 71 68 60 53 40 33 19 7 5 4 3 3 8 3 8 9 13 14 16 13 3 3 5 3 3 3 3 3 4 1 4 1 3 4 7 7 7 6 5 5 4 0 2 6 3 2 2 2 3 3 4 4
68 62 58 54 49 37 25 18 6 5 4 3 4 8 4 5 13 11 9 18 12 6 6 3 4 3 4 4 3 3 4 3 2 3 4 3 3 3 5 6 5 5 6 5 5 4 6 6 7 6 7 6 6 6
60 57 55 41 35 25 6 4 5 4 3 4 7 8 5 7 8 12 14 19 9 10 7 4 3 4 4 4 2 5 6 5 4 3 4 5 4 2 3 5 6 8 8 10 13 13 11 10 10 12 12 12 11 10
53 48 44 28 26 8 6 4 5 5 4 4 7 6 6 6 12 10 14 17 12 7 3 4 5 8 4 4 5 5 6 6 6 5 5 6 6 7 8 11 12 13 14 15 16 16 16 16 15 16 16 16 15 13
43 29 25 22 19 8 6 5 4 4 7 4 10 5 5 9 7 6 8 17 8 5 5 13 14 13 15 14 11 10 10 9 8 7 6 7 10 11 13 15 16 15 15 15 17 18 18 18 16 16 17 17 16 15
27 26 23 14 6 5 6 4 6 8 4 7 7 5 6 4 4 6 7 7 6 13 13 15 17 17 19 19 19 20 19 18 16 15 14 14 15 13 11 8 7 8 9 10 12 15 16 16 18 18 19 18 18 17
24 19 7 5 5 5 4 5 3 3 3 5 5 4 2 3 4 9 4 7 10 15 19 23 24 21 19 18 17 16 15 15 16 18 19 16 12 8 5 5 6 8 9 10 12 13 13 12 13 14 15 16 16 16
20 5 4 4 4 3 4 2 4 4 4 2 3 4 3 3 6 3 3 5 10 10 10 10 10 10 10 11 11 12 12 14 14 10 9 10 7 5 2 2 6 10 13 14 14 15 15 14 13 13 13 13 13 13
5 3 4 4 3 4 3 2 2 2 2 2 3 2 2 3 2 2 3 5 6 5 5 6 8 5 4 2 4 4 7 9 10 11 10 8 8 5 4 7 11 14 16 18 19 17 16 15 13 13 13 12 12 13
4 1 2 3 3 2 4 4 4 3 3 3 2 3 3 2 1 5 3 3 3 0 2 3 4 4 3 2 4 5 3 2 4 7 8 9 9 12 15 18 20 22 24 24 23 21 18 17 17 16 15 14 14 15
4 2 3 4 7 8 4 4 4 2 4 4 4 4 3 3 5 3 3 4 4 4 5 6 5 3 1 0 2 4 5 6 9 12 14 16 17 18 21 25 27 26 23 21 21 22 22 21 21 20 20 19 17 17
3 5 5 7 4 3 4 3 4 5 3 5 10 4 6 5 3 3 3 5 6 6 4 2 1 2 4 5 7 8 9 11 13 16 18 21 23 23 21 20 21 23 24 25 24 22 22 23 23 22 20 19 17 17
3 9 8 3 3 2 4 3 5 5 7 12 3 3 3 3 3 4 8 7 4 2 3 4 4 4 2 3 5 8 11 14 17 19 21 23 24 26 23 22 22 24 24 24 24 25 24 21 20 19 20 19 18 18
5 9 5 3 4 2 3 5 5 8 8 8 4 3 3 3 3 5 7 5 5 6 4 3 2 1 3 6 10 13 16 17 18 20 21 22 22 23 24 26 27 27 27 26 26 25 25 25 24 24 24 22 19 18
12 5 4 3 2 3 6 7 8 8 7 8 8 6 4 1 2 4 6 6 4 5 5 3 1 5 9 12 15 18 20 20 19 20 22 22 23 23 23 24 25 26 26 27 26 25 23 24 25 23 23 25 23 21
6 5 5 3 2 5 8 6 6 5 4 4 3 3 2 2 2 2 4 7 8 7 3 3 7 11 15 18 20 21 22 20 20 21 22 24 25 25 25 24 23 23 23 24 24 24 24 23 22 22 22 20 19 18
4 5 4 6 5 5 6 5 3 2 2 1 1 0 1 2 3 3 5 9 7 5 5 8 12 17 21 22 20 18 18 18 20 22 23 24 25 25 24 22 19 19 20 20 22 23 23 22 21 20 20 20 18 16

GFSWCAN_850_spd_090.txt.gz
Wind_Speed
23 29 24 19 24 20 23 22 44 51 50 44 41 37 32 29 30 30 22 19 11 7 8 4 5 5 5 2 0 4 2 2 2 1 1 1 2 4 3 2 2 5 4 4 4 3 3 8 4 2 1 3 2 1
25 30 23 19 16 17 21 13 45 51 46 43 38 33 33 34 32 29 23 21 14 7 8 10 9 6 8 8 5 3 2 3 5 1 1 1 2 1 5 3 2 2 2 3 3 1 4 8 6 7 10 5 4 3
26 30 24 20 17 15 11 28 47 48 47 41 36 35 33 34 34 28 22 22 16 9 10 6 2 3 4 4 11 3 3 3 3 3 3 1 1 1 2 2 4 2 4 3 5 3 5 18 9 11 9 8 7 4
30 29 21 18 22 24 14 25 43 48 44 39 36 34 35 33 30 24 24 23 13 10 6 3 5 2 1 5 11 7 8 7 5 3 2 1 1 4 3 4 2 5 6 3 5 12 17 8 16 18 19 9 6 9
32 26 22 20 23 30 20 21 53 51 45 40 37 35 34 32 26 23 20 18 13 5 6 7 5 4 4 6 7 8 8 5 3 2 1 2 2 3 3 3 3 5 3 3 4 10 7 10 22 19 15 13 8 8
34 26 22 16 22 28 19 46 57 54 48 43 37 34 32 29 26 24 7 10 13 12 8 3 4 5 7 7 7 9 7 5 3 1 2 2 2 2 2 3 7 7 8 9 6 13 11 17 14 13 17 15 10 3
35 28 21 19 10 18 33 57 59 57 50 42 38 37 33 29 27 9 8 15 14 10 7 6 4 5 7 9 6 5 5 3 3 2 2 2 3 3 2 3 6 10 13 17 18 17 15 10 11 19 15 14 7 3
34 28 25 21 24 21 45 57 57 56 51 47 41 34 30 23 18 18 19 15 13 8 6 3 3 6 10 5 4 4 4 3 4 1 1 3 2 5 4 14 19 16 18 21 15 13 15 15 17 15 11 9 4 2
32 26 29 25 23 50 62 61 61 56 53 48 39 32 26 14 8 13 15 9 7 5 5 4 5 3 11 5 4 5 3 2 6 2 2 4 3 5 7 12 17 19 13 16 17 15 13 12 13 10 10 7 2 3
30 25 30 20 26 66 64 64 61 56 51 47 40 14 7 10 20 16 5 3 4 2 3 3 6 3 9 6 4 6 4 1 2 4 5 3 4 19 15 15 17 14 11 9 10 13 9 16 15 10 8 6 4 5
28 30 37 11 65 70 67 64 60 58 53 38 14 6 25 23 7 4 4 2 2 1 3 4 4 5 4 3 3 5 2 2 2 3 2 2 3 2 8 17 13 9 8 8 7 12 12 13 15 10 6 6 5 6
33 34 22 55 71 66 67 66 65 58 31 21 22 26 18 5 4 4 2 2 2 3 6 6 5 6 5 4 3 5 2 2 3 7 2 3 2 3 11 13 12 9 6 6 6 5 8 7 6 3 5 5 5 5
34 33 34 73 70 68 70 67 56 41 35 41 11 6 6 2 3 6 7 3 3 9 9 9 5 5 4 3 2 3 3 2 8 2 3 3 4 7 9 11 12 9 6 4 7 6 5 5 3 3 4 4 4 3
35 20 70 73 71 72 70 60 46 44 39 6 6 5 4 4 3 3 3 4 5 13 21 18 8 5 4 3 2 3 4 3 3 3 5 2 2 5 6 11 10 8 5 3 4 4 3 3 3 2 2 2 2 2
33 48 78 74 76 76 63 53 45 42 7 5 4 4 3 7 7 8 11 11 10 26 21 13 6 4 2 2 2 1 3 4 4 3 2 4 2 4 5 7 8 5 5 4 2 2 3 4 3 2 2 2 3 3
47 75 75 80 77 65 58 50 38 17 5 5 5 5 9 6 3 7 13 16 23 21 15 7 3 3 3 3 3 5 3 5 3 3 6 4 1 3 5 5 5 4 3 2 3 5 7 5 5 4 3 4 4 5
74 58 81 79 67 60 52 37 19 6 5 4 4 11 7 9 9 11 16 18 22 13 2 4 5 6 1 3 3 3 4 2 8 8 3 2 1 2 3 3 3 4 3 2 3 3 4 5 3 4 5 5 6 6
60 70 81 71 66 51 37 11 7 6 5 6 4 8 6 7 18 18 15 19 14 6 8 4 5 3 4 4 3 3 4 6 6 6 4 2 1 0 2 3 4 3 3 3 3 4 5 4 4 5 7 8 8 8
66 65 66 66 52 35 8 5 6 5 6 6 13 11 8 10 10 16 20 19 11 12 9 4 3 3 3 5 1 3 8 6 3 3 4 3 3 4 3 3 5 6 7 7 6 7 9 11 11 11 11 12 12 11
61 62 56 42 31 14 7 6 6 6 4 4 8 8 7 7 12 14 18 15 13 6 2 3 4 5 4 4 5 5 4 5 7 6 5 5 6 6 6 8 11 13 15 15 14 14 15 15 13 13 14 15 15 13
57 44 41 26 23 13 8 5 6 5 8 6 13 5 5 11 10 9 9 13 5 4 4 10 12 9 9 10 8 7 7 7 8 8 7 8 7 7 8 11 14 12 11 10 11 11 13 14 13 13 14 15 14 14
41 40 32 14 9 7 8 6 8 8 5 8 7 5 6 4 5 6 7 5 5 9 9 9 11 10 12 15 16 16 16 16 16 16 15 14 13 10 10 9 5 4 6 8 10 10 11 11 11 11 12 13 15 15
32 26 11 7 6 6 5 5 4 4 3 4 4 4 2 3 5 10 3 6 9 13 18 21 21 19 18 18 18 17 16 16 17 17 16 16 16 13 9 5 1 3 6 8 11 13 13 13 13 13 11 11 11 12
18 7 5 4 4 4 5 3 4 6 5 3 2 3 2 4 7 2 3 5 8 6 6 7 8 7 8 9 8 8 10 13 13 10 8 7 7 7 6 5 1 4 8 12 15 16 16 15 14 12 12 12 11 11
6 4 4 4 4 5 4 4 2 2 3 2 3 2 3 5 2 2 3 4 4 1 1 3 4 4 2 1 4 4 3 6 5 6 8 8 7 9 9 7 6 9 14 18 18 19 18 16 15 15 14 14 13 13
5 3 3 2 3 2 3 4 3 4 3 3 2 4 3 2 2 4 3 2 3 3 4 6 6 5 5 3 2 5 6 4 3 3 5 6 9 10 11 15 18 19 22 23 22 21 19 19 19 19 18 18 17 18
4 2 3 4 5 7 5 5 4 3 3 4 4 4 3 3 5 3 3 4 4 5 6 8 9 7 4 3 2 2 2 2 3 4 6 8 12 15 18 21 23 24 23 21 21 22 23 23 22 22 21 21 21 21
3 5 4 5 4 3 4 3 4 4 3 6 10 3 8 7 4 2 3 6 7 7 7 6 5 4 5 5 5 4 4 5 6 8 9 12 14 16 16 17 19 22 24 24 24 24 25 25 24 23 22 20 19 18
3 8 7 3 3 2 2 3 3 3 7 12 4 3 3 3 2 3 7 9 9 6 4 3 5 5 4 3 2 3 6 8 10 12 13 14 16 18 18 18 19 21 24 25 25 27 28 28 28 27 25 23 20 18
5 8 4 3 3 1 2 3 5 9 8 8 4 4 3 2 3 5 9 9 5 6 6 5 5 5 3 2 4 7 10 13 14 15 16 16 18 20 22 23 24 24 25 26 25 23 23 25 25 26 27 27 25 23
12 5 4 3 3 2 6 8 8 7 5 3 2 2 2 2 1 6 9 11 10 8 7 8 6 3 4 7 11 14 17 18 19 20 20 20 20 21 23 24 25 26 26 26 26 25 24 23 22 22 23 24 23 22
4 3 5 3 1 6 8 3 4 3 3 2 1 2 1 3 3 3 7 10 11 11 8 5 4 6 10 14 18 20 20 19 18 18 19 21 22 23 23 23 22 22 22 21 21 22 22 24 24 23 22 21 19 18
5 5 5 6 4 2 5 5 3 3 2 2 1 1 2 2 4 4 6 11 12 10 7 5 7 11 16 19 17 15 15 15 17 19 20 22 24 24 24 23 19 19 19 18 17 20 23 25 24 22 20 18 17 16

GFSWCAN_850_spd_093.txt.gz
Wind_Speed
28 27 25 24 25 21 19 17 15 21 29 44 40 48 45 43 38 32 36 12 6 6 9 5 6 6 8 6 4 6 4 1 2 2 3 2 1 2 2 2 4 6 4 3 3 2 5 9 4 2 3 3 2 1
30 29 27 26 26 23 18 15 13 11 26 41 48 47 44 41 35 30 26 21 10 4 9 11 12 9 5 9 12 6 4 3 4 3 1 2 1 2 0 2 5 0 1 1 3 3 2 18 17 15 11 4 3 2
33 32 29 29 26 24 22 17 14 18 30 39 50 46 40 36 28 32 27 23 14 11 11 7 6 7 6 6 10 6 4 6 5 4 4 2 1 3 1 3 3 2 2 1 3 2 2 3 10 21 18 14 10 2
36 36 30 31 27 19 14 4 13 27 44 48 50 43 37 33 36 31 25 27 14 8 7 4 5 3 4 7 7 5 15 10 11 6 3 2 1 2 2 3 2 5 3 2 4 9 13 4 15 19 21 16 10 5
40 38 33 31 25 16 13 18 24 40 47 49 43 38 35 33 37 32 23 28 17 5 7 8 7 6 6 8 9 9 10 12 8 3 2 1 1 2 3 2 3 4 4 3 4 3 5 9 16 19 18 24 19 14
43 40 36 31 24 17 22 9 29 28 49 46 42 36 37 34 32 26 8 18 16 9 9 3 6 6 8 9 11 10 8 8 4 3 2 2 1 1 1 2 7 2 3 5 3 12 14 17 17 8 16 17 21 14
45 42 36 31 22 19 26 7 41 42 50 47 40 36 34 31 31 19 8 17 19 10 6 6 4 5 11 11 8 7 5 3 2 1 2 1 2 2 1 3 5 5 13 18 19 21 19 17 9 14 15 18 17 11
46 43 36 28 22 24 18 29 44 52 49 45 39 34 33 29 21 13 17 22 19 7 6 4 2 5 10 5 4 3 3 1 2 1 1 2 3 3 4 12 17 16 21 21 13 9 16 12 12 11 10 14 15 9
46 43 34 28 26 28 35 44 52 54 51 44 42 36 30 17 8 13 17 15 11 5 7 4 6 4 11 5 5 3 2 2 4 2 2 4 3 5 6 9 8 16 10 15 15 14 12 11 9 10 8 10 10 7
45 40 30 34 18 38 55 60 59 57 54 45 37 14 7 11 22 17 5 4 3 3 4 4 9 3 10 5 4 6 3 2 2 4 5 3 3 17 14 8 14 14 11 10 11 13 8 14 12 12 9 6 5 6
42 35 35 38 24 63 65 63 62 58 53 41 15 6 21 21 8 3 3 2 1 2 3 5 7 7 7 3 3 5 2 2 1 2 3 2 3 3 3 9 13 10 8 7 7 10 11 12 13 12 6 3 4 5
36 33 37 37 46 66 68 66 66 56 33 29 21 26 18 6 3 2 2 2 2 5 6 6 8 9 7 6 4 4 2 1 3 8 2 3 3 4 6 10 11 9 7 6 6 6 8 8 6 2 3 4 5 5
33 35 40 18 72 72 70 66 54 48 43 44 17 6 6 4 2 8 8 3 3 9 9 12 5 6 5 4 4 3 3 3 9 3 3 4 5 6 5 7 8 7 6 5 6 7 7 6 4 3 2 1 2 2
33 41 7 67 76 71 70 62 55 53 26 7 7 6 5 4 4 3 3 4 6 15 26 22 9 5 5 2 3 4 3 4 3 3 5 3 8 3 3 4 6 6 3 3 5 5 5 4 2 1 1 2 2 1
37 15 57 77 72 73 65 58 51 29 8 6 6 4 4 5 5 11 15 11 14 30 25 15 8 6 2 3 2 2 3 4 5 4 3 9 5 3 3 2 4 2 2 1 1 1 1 0 1 2 2 3 1 1
7 52 74 72 74 65 58 51 24 18 6 4 4 4 9 7 3 6 12 18 27 28 15 8 3 3 2 3 3 4 4 5 4 3 8 8 6 4 3 2 1 4 2 1 0 1 2 1 0 1 2 2 2 2
45 54 74 76 65 59 56 30 14 7 6 4 3 11 8 11 8 10 16 23 28 13 2 4 4 5 3 3 3 4 4 3 6 10 7 6 5 3 2 2 1 3 4 1 1 3 4 3 2 3 4 4 3 4
30 74 80 73 66 53 27 13 7 6 5 5 4 7 9 11 19 18 18 23 16 5 7 4 7 4 5 6 3 3 4 5 8 8 5 5 4 4 3 1 1 1 3 3 5 6 9 9 9 10 10 9 8 7
77 78 78 68 57 36 7 5 5 6 5 7 13 14 12 12 15 17 21 22 8 8 12 4 4 3 3 6 5 6 9 10 8 7 8 7 6 5 5 3 3 6 8 9 10 11 11 12 14 14 13 14 14 11
67 67 59 49 37 9 6 6 6 8 4 4 10 9 9 8 15 21 21 14 13 6 2 2 4 6 6 6 5 6 8 7 7 7 8 9 8 8 7 6 8 11 13 13 13 13 14 15 15 16 15 15 16 13
61 46 41 36 21 11 8 5 6 6 8 7 13 6 6 11 12 11 12 13 5 3 3 7 7 8 7 5 4 5 5 5 6 8 9 8 9 7 6 7 10 11 8 6 5 5 7 8 9 11 13 14 15 15
40 38 37 20 9 7 7 7 10 8 5 8 6 6 6 4 4 6 8 5 4 6 6 5 6 8 9 10 10 11 12 12 12 13 13 12 10 10 9 9 9 5 3 2 5 7 8 9 10 9 10 9 11 11
35 33 14 9 7 6 4 4 5 4 3 4 5 4 2 2 5 9 5 5 7 9 13 14 12 12 12 13 14 13 14 14 14 13 13 14 14 13 13 11 7 6 3 2 6 10 12 13 14 13 12 11 10 9
25 7 5 4 5 4 4 4 4 6 5 2 3 4 3 4 7 2 2 4 6 5 6 8 11 10 7 5 4 5 8 10 11 10 8 6 7 7 9 9 11 8 6 7 11 14 15 16 15 15 14 13 13 13
7 7 5 6 4 4 4 3 2 3 3 2 4 2 2 5 2 1 3 4 4 4 6 6 7 7 6 5 3 2 2 6 5 3 7 8 5 7 9 12 11 10 11 14 17 19 18 18 16 16 16 16 16 16
6 5 3 3 2 3 4 4 4 4 4 3 2 5 4 3 2 4 3 4 5 5 7 9 10 9 9 7 6 6 7 6 4 4 4 6 6 8 11 13 14 16 19 21 23 23 20 19 20 20 19 18 18 19
4 1 3 4 5 7 5 5 4 3 3 5 4 4 3 3 5 4 6 7 7 9 10 11 12 10 8 6 4 2 2 2 1 0 3 5 7 10 13 16 20 22 23 23 22 22 23 23 23 22 21 19 18 19
4 5 5 4 4 3 4 3 3 4 3 7 10 4 8 7 4 6 5 9 9 10 12 12 9 7 5 4 3 2 1 1 1 3 6 8 11 14 15 17 18 21 22 23 24 23 24 26 27 27 25 24 21 19
3 10 7 4 3 3 2 3 3 3 6 13 3 3 3 4 6 7 11 12 12 11 9 8 7 6 4 4 3 1 2 3 5 7 9 11 14 16 17 18 18 21 23 23 24 25 26 26 25 25 25 24 23 22
4 6 5 3 3 2 1 3 4 9 8 8 6 5 5 5 8 10 13 13 11 9 6 5 5 6 5 4 2 3 6 10 13 14 16 18 19 20 21 22 22 23 24 25 25 24 24 25 24 24 25 25 24 24
9 4 4 4 3 2 6 10 11 10 8 5 6 5 6 5 6 9 12 14 11 8 6 6 7 6 4 3 7 10 14 17 18 19 19 18 18 19 20 22 24 24 24 24 24 22 22 22 22 22 22 22 21 22
3 3 5 3 2 8 9 3 3 3 3 3 3 4 5 5 6 5 9 13 12 10 9 8 7 4 4 8 12 16 18 17 17 17 18 19 20 20 21 21 19 18 18 18 18 17 17 19 21 21 22 21 20 19
5 5 5 6 4 3 5 5 3 3 3 2 2 3 4 4 4 5 6 11 14 13 11 9 6 5 8 12 16 16 14 14 15 17 18 19 20 20 19 18 17 16 16 15 14 17 20 21 21 19 18 17 15 13

GFSWCAN_850_spd_096.txt.gz
Wind_Speed
33 30 28 31 29 27 23 21 19 16 9 11 25 34 49 51 53 33 18 14 8 7 8 3 5 6 8 6 4 8 4 1 2 2 3 2 2 2 1 2 4 5 4 3 3 2 5 16 6 4 9 20 11 4
32 31 30 31 31 27 25 23 18 15 8 14 30 40 42 49 46 36 28 15 6 7 10 13 13 10 7 8 10 9 3 3 4 3 1 2 1 1 3 2 3 2 3 1 5 3 3 3 2 11 17 14 19 12
34 33 33 32 32 27 27 24 18 14 12 24 23 39 47 47 43 36 27 23 9 11 11 8 8 8 6 6 7 6 5 6 5 3 5 2 2 3 2 3 2 3 0 2 2 2 4 3 4 5 15 20 19 14
37 36 36 33 31 29 28 23 18 16 15 21 21 27 42 44 37 33 27 25 14 9 6 3 4 5 5 3 4 3 8 10 11 5 3 2 2 3 2 2 3 4 2 2 4 5 2 8 7 12 13 19 21 14
40 39 37 34 31 29 25 22 19 21 30 23 27 38 45 40 35 33 27 23 19 4 6 7 10 7 8 5 9 9 10 13 6 3 2 1 2 1 1 0 3 4 4 3 4 2 3 8 14 17 14 12 18 20
41 42 39 37 32 29 24 11 20 25 39 31 36 43 39 37 38 31 8 17 21 9 8 3 5 5 9 8 10 10 9 6 4 3 2 2 3 2 1 2 6 4 2 2 4 11 16 20 24 19 13 15 14 17
42 45 42 39 35 30 23 12 28 38 36 36 47 43 35 38 38 21 6 14 22 13 4 5 3 6 15 11 8 8 6 4 3 3 1 2 2 2 1 3 4 5 9 12 18 13 13 9 10 11 15 16 13 15
44 46 46 41 37 29 29 25 28 29 43 47 45 41 38 32 26 18 7 21 24 8 5 4 2 5 9 4 3 3 3 1 1 2 1 2 1 1 4 9 10 10 12 12 13 14 13 14 11 9 11 11 12 14
48 48 47 42 37 28 32 17 46 40 44 46 45 39 31 21 13 12 16 19 11 5 9 4 6 4 11 5 5 3 2 1 2 1 2 3 2 5 6 7 4 6 10 14 13 12 11 9 9 12 13 10 9 10
51 50 47 41 32 31 21 54 49 54 53 48 46 15 8 13 17 19 10 10 5 2 3 4 9 3 10 7 3 4 3 2 1 3 4 2 3 18 15 11 5 10 11 8 10 10 13 10 13 15 15 10 9 7
51 49 44 37 39 27 60 57 59 58 53 39 11 6 25 29 13 5 4 3 3 2 3 6 6 6 9 4 3 5 3 2 1 2 3 2 3 4 5 2 8 10 8 7 7 8 9 11 14 15 12 7 6 6
49 43 40 42 48 50 68 67 64 60 32 28 20 30 18 7 4 4 1 2 2 6 6 7 8 8 8 6 5 5 2 1 2 8 2 3 3 6 6 5 6 6 6 7 6 7 7 10 11 8 6 5 6 8
40 39 38 33 41 69 69 63 55 49 46 43 18 5 5 2 4 7 8 3 3 9 10 13 5 7 6 4 4 2 3 4 9 2 3 4 3 10 8 5 4 5 5 5 5 7 8 8 7 7 7 7 7 7
36 33 39 35 70 75 70 57 57 55 31 7 8 7 6 5 5 4 4 4 7 14 26 24 9 6 5 3 3 4 3 4 3 3 5 3 11 12 8 6 2 3 2 3 5 6 6 6 5 4 3 3 3 2
27 25 26 69 78 71 62 59 51 36 8 5 6 6 5 5 5 10 16 14 14 31 27 15 7 6 2 4 2 3 4 4 5 4 3 8 13 10 8 4 1 2 2 1 2 3 3 3 2 2 3 5 6 5
30 17 39 71 70 61 60 51 31 15 5 4 4 5 7 6 3 7 14 18 26 31 16 7 3 4 2 4 3 5 7 6 4 3 9 14 11 9 6 4 1 2 4 3 2 3 2 1 1 2 3 4 5 5
32 12 72 68 65 61 44 33 18 6 5 3 3 10 7 10 9 9 17 18 31 16 2 4 5 6 3 3 3 4 5 3 7 9 11 12 10 7 5 4 3 2 3 3 2 4 4 4 4 5 4 6 6 6
14 70 74 69 65 41 36 15 6 5 5 5 4 6 6 13 18 16 11 29 16 6 7 4 7 4 5 7 3 3 4 5 7 10 8 8 7 7 6 4 3 2 2 3 3 5 7 9 11 11 11 12 13 12
67 72 71 65 52 32 6 5 5 5 5 6 11 13 11 15 14 16 23 23 8 6 11 4 4 3 3 5 5 6 10 10 11 11 9 8 8 7 7 6 5 4 5 7 10 11 12 13 14 14 13 13 13 12
70 66 57 45 32 7 6 5 6 7 4 3 9 9 9 9 16 18 22 13 10 4 1 1 3 4 5 5 7 4 8 10 11 9 8 10 11 10 8 9 7 6 9 10 10 10 10 10 10 12 13 14 15 14
59 49 47 34 18 10 7 4 6 6 7 6 11 6 6 12 12 9 9 10 4 3 2 4 4 8 8 8 7 6 9 9 9 8 6 8 11 11 9 9 8 8 9 6 3 4 5 7 8 9 10 10 12 13
39 45 36 23 8 6 7 7 9 7 5 8 5 5 7 4 4 5 7 4 4 4 5 5 8 11 10 8 7 7 8 9 11 11 12 11 10 11 11 9 8 8 7 5 2 2 5 8 9 11 11 11 11 11
39 31 15 7 6 6 5 4 5 3 3 3 4 4 2 3 4 10 3 5 7 9 12 11 9 9 9 10 10 11 12 13 13 13 13 13 13 14 15 14 13 10 10 7 3 4 8 12 14 14 14 13 13 12
33 7 5 4 5 4 5 3 4 5 5 3 3 3 2 3 7 2 3 5 7 8 12 14 13 13 12 12 11 10 12 12 12 12 11 10 10 10 13 14 13 12 12 10 8 9 12 16 18 18 17 15 15 15
8 5 5 4 4 4 4 3 2 3 3 2 4 2 3 5 2 3 3 4 9 11 11 11 10 10 8 7 5 4 5 6 6 6 9 10 7 6 8 9 11 14 14 13 13 16 18 20 21 19 18 19 19 19
6 4 3 3 3 3 4 4 4 4 4 3 2 4 4 3 2 5 3 6 8 11 11 11 12 14 13 10 8 7 7 6 5 4 5 7 8 7 8 10 12 14 15 18 20 22 24 24 22 22 23 20 20 22
4 1 3 4 6 8 5 5 5 3 4 5 5 5 3 3 5 3 7 9 9 11 13 15 15 15 12 10 8 6 5 4 3 2 1 2 4 5 7 10 13 17 19 22 23 24 24 24 25 25 25 23 22 23
3 5 5 6 5 2 4 3 4 5 4 7 9 4 8 7 4 7 7 12 12 14 14 15 15 13 10 7 4 3 2 2 1 1 3 6 8 10 11 14 16 19 20 22 23 25 26 27 26 26 26 27 26 24
3 8 8 4 4 5 3 2 3 3 6 13 3 3 3 3 8 8 14 15 14 15 16 15 12 9 7 5 6 5 4 2 2 4 7 9 12 15 16 17 19 21 24 23 23 25 26 27 27 27 28 27 26 25
4 4 5 3 3 2 1 2 4 8 8 7 5 5 5 7 9 13 15 15 15 14 13 11 8 8 7 7 6 5 3 5 9 11 13 15 16 18 19 19 20 21 23 24 24 22 22 24 24 24 25 26 26 27
8 4 5 5 3 2 6 10 10 11 7 5 7 5 7 6 8 12 15 15 14 12 9 8 9 9 9 7 5 6 8 11 14 15 15 15 15 16 17 19 21 22 22 22 22 22 23 23 21 21 22 23 23 25
3 3 4 4 2 8 9 3 3 3 3 2 3 4 5 4 5 11 14 16 15 12 11 11 10 9 8 6 6 8 13 15 14 13 13 14 16 18 19 20 19 19 19 19 18 17 16 18 21 22 24 23 22 22
5 5 6 6 4 3 4 4 3 3 3 2 2 3 4 5 4 7 9 15 16 14 13 12 11 8 5 5 9 13 14 12 12 13 14 16 17 18 18 16 15 15 14 13 12 14 18 20 20 20 19 19 18 16

GFSWCAN_850_spd_099.txt.gz
Wind_Speed
39 39 35 32 30 27 23 23 21 21 16 11 7 17 20 32 56 22 18 17 7 8 7 6 7 7 5 5 4 8 5 1 2 3 3 3 2 3 1 3 5 6 5 3 3 2 6 8 5 3 4 9 15 22
40 39 36 33 31 28 25 24 21 20 14 13 8 13 36 52 54 19 21 17 8 8 12 18 16 11 7 5 7 10 2 4 6 4 1 2 1 1 2 2 1 3 4 2 6 4 0 3 5 4 6 9 18 25
39 39 37 34 32 28 27 26 22 20 16 13 12 13 26 42 53 21 18 18 11 17 12 10 10 10 6 6 5 5 5 7 6 5 6 2 2 3 3 4 2 2 1 2 2 0 2 3 2 5 10 12 13 18
42 39 38 36 34 29 30 28 25 21 16 16 18 16 26 49 56 25 16 16 7 7 7 4 6 7 6 3 2 3 7 11 13 6 4 2 2 4 2 1 3 4 1 3 5 4 3 6 2 8 13 12 13 16
47 45 41 38 36 32 32 30 26 20 16 18 22 20 30 47 50 33 20 28 12 2 6 7 11 9 8 5 7 9 11 14 7 4 3 2 3 2 1 1 3 6 5 4 4 1 1 7 10 17 19 17 12 15
43 42 41 38 37 34 34 30 27 21 24 24 31 23 40 47 39 27 13 25 20 0 9 3 4 6 7 6 8 9 10 7 4 4 3 3 3 3 2 2 5 8 4 3 2 6 15 22 24 22 20 17 14 16
45 43 40 37 37 35 35 30 27 22 26 29 35 38 47 46 32 23 7 17 22 8 5 5 2 4 8 6 6 8 7 5 3 3 2 3 3 3 2 3 3 9 5 8 10 7 8 10 11 15 13 12 13 16
42 40 40 39 40 37 34 31 26 29 34 41 42 42 44 36 30 12 15 27 24 9 5 4 2 3 7 2 2 3 3 3 3 2 2 2 3 1 4 9 8 7 7 7 5 11 12 15 13 10 12 15 12 12
40 39 40 42 42 39 33 24 32 51 50 50 51 48 37 28 18 13 18 21 20 4 8 4 7 4 11 4 4 3 2 2 1 1 2 3 2 5 7 8 8 7 4 9 10 10 8 10 8 10 13 14 12 10
42 41 42 45 45 39 40 21 60 59 56 56 52 23 7 19 24 18 7 6 5 3 4 3 9 3 9 5 3 3 1 1 1 3 4 2 3 17 13 9 7 6 8 11 7 6 9 11 11 12 15 12 10 10
42 43 47 49 45 42 32 53 53 58 59 44 9 6 28 32 14 2 3 3 4 1 6 7 6 6 9 3 3 3 3 1 1 3 3 3 3 4 6 9 7 4 7 7 7 7 7 9 12 13 11 9 6 6
40 46 49 47 44 43 40 65 60 53 30 20 23 32 25 10 6 4 3 1 4 6 7 8 8 7 8 6 5 5 3 2 3 7 1 3 4 7 12 8 3 2 4 5 6 7 7 9 11 10 9 8 7 8
44 46 43 39 42 31 68 59 51 40 43 48 17 6 6 2 2 8 8 3 3 9 11 13 5 7 6 4 5 3 4 4 5 2 3 4 4 12 12 7 4 2 2 4 4 5 7 8 9 8 7 7 6 5
42 40 39 45 38 73 66 55 50 52 40 7 7 7 7 5 5 4 3 5 8 17 28 22 10 6 5 3 3 4 3 4 3 4 5 3 14 13 12 8 3 2 1 2 3 4 5 6 6 6 6 7 7 6
39 35 32 23 63 67 56 56 49 31 7 5 6 6 5 4 4 8 18 16 14 32 33 15 8 6 2 4 2 3 5 4 5 5 3 6 15 16 13 8 4 3 4 3 2 2 2 2 3 3 3 4 5 5
32 29 23 30 56 57 57 49 27 11 5 3 3 4 7 5 4 5 14 20 27 35 22 7 4 4 2 5 4 6 7 7 4 3 6 14 18 15 11 6 4 3 2 3 4 4 3 4 3 2 3 3 4 4
31 11 33 48 55 58 52 29 10 6 5 3 3 7 5 9 8 9 18 20 33 27 3 4 5 6 3 3 2 4 5 3 6 10 13 16 14 12 9 6 4 4 3 3 3 4 5 6 6 6 6 7 9 10
15 34 62 65 60 46 29 13 6 5 5 5 3 4 3 11 19 18 15 33 23 9 7 4 8 3 5 7 3 3 5 6 6 11 15 13 11 10 8 7 5 4 4 3 3 5 6 8 10 12 12 12 14 14
18 54 62 62 53 31 6 4 4 4 4 5 8 10 9 14 15 14 28 27 18 7 12 4 4 3 3 5 5 7 12 10 13 14 11 11 10 8 8 7 6 4 2 4 7 9 10 12 13 13 13 15 16 14
55 58 50 41 32 7 5 5 5 5 3 3 7 6 8 8 17 22 27 15 13 6 3 2 3 3 4 5 6 6 13 12 15 13 11 10 10 9 8 7 7 7 7 8 9 9 8 6 7 8 9 10 12 13
51 43 45 38 16 9 7 4 5 5 7 6 8 4 6 13 13 16 11 11 2 1 1 4 4 8 9 10 8 7 9 11 12 8 7 8 9 8 9 10 11 10 9 9 8 7 6 5 6 8 10 10 12 12
35 41 34 26 6 6 7 6 7 6 4 6 4 4 6 3 4 4 8 2 3 4 4 5 9 13 13 11 10 9 8 9 9 8 8 7 7 8 10 11 11 10 8 9 8 5 3 4 7 10 12 13 13 13
38 28 16 5 6 5 5 3 4 3 3 2 3 3 2 2 3 10 2 4 6 9 13 10 10 14 12 10 9 9 9 10 11 10 10 9 10 10 11 11 12 11 11 11 10 8 5 6 9 12 15 16 15 14
29 6 4 4 5 3 5 3 3 5 4 2 2 3 2 2 5 2 2 4 8 12 18 17 15 14 14 13 12 12 13 13 11 11 11 10 10 10 11 13 14 14 14 14 14 12 11 12 14 17 19 18 17 18
7 3 4 5 4 4 4 3 2 2 3 2 3 2 2 3 2 2 3 4 12 16 15 19 18 17 14 12 11 9 7 7 6 6 7 7 7 5 5 6 9 12 14 16 17 16 17 19 21 22 22 21 21 22
5 2 2 3 3 3 4 4 4 4 4 3 2 4 3 2 2 5 3 6 11 19 18 16 17 16 13 10 8 6 6 7 6 4 3 4 5 5 7 8 9 11 14 16 17 19 22 24 25 24 23 23 23 24
4 2 3 4 6 8 5 5 4 3 3 5 4 5 3 4 5 3 5 9 9 15 16 16 15 15 15 14 12 11 9 7 6 5 3 2 3 4 5 6 8 11 14 17 20 22 23 24 25 26 27 25 24 26
4 6 6 6 5 3 4 3 4 5 4 8 9 5 8 7 4 6 6 12 14 16 18 19 19 18 16 13 10 8 6 5 4 3 2 2 4 6 8 10 12 14 17 19 22 24 26 27 27 26 27 27 26 24
4 9 8 4 4 4 2 2 2 2 6 13 3 3 3 3 7 9 17 17 18 19 19 21 20 16 13 11 9 7 6 4 2 2 4 7 10 13 14 15 18 20 20 19 20 22 25 26 25 25 27 27 26 26
4 5 5 2 3 2 1 2 4 7 7 7 5 5 4 5 8 15 18 18 18 19 18 15 13 11 10 9 9 7 4 2 4 7 10 12 13 14 15 15 17 19 21 22 22 20 20 21 21 21 21 21 22 24
8 4 5 5 3 2 5 10 11 10 6 4 6 4 6 6 9 15 17 18 18 18 16 15 13 12 10 9 7 5 4 5 8 12 13 12 12 13 15 17 19 20 20 21 22 21 20 18 17 19 21 23 23 23
3 3 4 3 2 7 9 4 3 3 3 2 3 4 5 4 6 13 17 18 18 16 14 12 11 11 10 8 5 4 5 9 12 12 11 11 13 15 17 17 18 17 17 16 15 14 14 17 18 19 20 20 20 20
4 5 6 7 4 3 5 4 3 3 4 3 2 3 2 4 4 10 17 20 18 14 13 13 13 11 9 6 4 5 9 10 10 11 12 14 15 16 16 13 12 12 11 10 11 12 13 14 15 15 15 15 16 15

GFSWCAN_850_spd_102.txt.gz
Wind_Speed
42 35 34 33 30 27 27 23 22 23 20 17 17 9 27 27 38 39 20 10 3 7 7 4 4 4 6 6 4 8 5 1 2 2 3 3 2 3 2 4 5 6 5 3 3 2 5 5 4 2 0 2 6 13
41 37 36 34 31 27 28 25 22 22 19 15 15 5 23 24 35 40 11 8 8 6 11 14 15 10 7 6 8 11 2 4 7 4 1 2 1 2 3 2 1 2 5 3 7 5 3 2 2 5 0 5 8 12
40 40 38 36 33 28 28 28 24 22 19 14 14 9 8 31 42 36 16 15 10 13 10 7 8 10 6 6 6 5 4 6 5 4 6 2 3 3 3 4 2 3 3 3 1 1 0 3 3 3 5 9 10 11
43 41 38 37 35 31 28 29 27 24 21 16 16 12 11 30 44 20 21 19 11 10 6 3 4 6 7 3 2 1 3 9 11 5 4 2 2 3 2 1 3 4 3 3 4 5 3 3 5 3 10 14 15 13
45 42 40 39 36 34 31 31 31 27 23 18 16 19 16 31 45 22 13 11 8 3 7 8 10 9 9 6 7 9 10 12 6 3 3 1 3 3 1 1 3 8 6 4 4 3 2 5 7 17 24 23 22 15
45 45 42 40 38 36 34 35 34 29 25 21 20 23 21 44 45 18 5 17 12 1 8 3 4 6 8 7 9 10 9 6 4 4 3 2 2 2 2 3 5 12 8 6 3 2 10 14 13 11 15 19 15 14
47 45 45 42 40 36 36 37 35 31 27 22 20 28 24 49 49 19 5 9 18 5 4 4 2 4 5 4 5 7 6 5 3 3 2 3 2 3 2 3 2 12 10 5 4 3 5 6 12 14 14 13 16 13
46 45 44 41 39 38 37 39 36 33 29 22 20 30 41 51 42 24 7 13 23 5 5 4 2 2 5 2 3 3 3 3 4 3 2 2 2 1 4 10 4 12 8 4 2 4 7 12 13 10 11 12 15 10
42 41 41 40 41 39 40 40 38 34 28 21 46 47 39 28 15 13 14 16 18 5 6 3 6 4 9 3 3 2 2 3 1 1 1 3 2 5 7 8 14 16 7 3 5 5 5 7 9 9 12 13 10 10
42 39 39 39 40 41 43 42 37 28 41 60 56 29 11 18 25 21 9 6 5 4 4 3 7 3 7 3 2 3 2 2 1 2 3 2 4 18 11 7 9 11 7 3 3 2 3 5 7 10 11 10 7 8
20 30 36 40 42 43 45 43 33 58 65 49 11 6 32 39 18 5 5 4 3 1 8 9 6 6 9 3 3 3 2 2 2 3 3 3 4 4 8 19 13 7 5 3 4 4 4 6 8 10 10 8 7 6
18 30 38 41 45 44 46 37 72 60 31 23 25 40 30 10 4 4 3 1 4 6 9 8 9 8 8 5 4 4 3 2 3 6 2 3 4 6 11 15 14 8 5 4 4 4 5 6 8 9 9 8 9 9
26 33 40 45 45 44 53 78 56 43 43 53 23 7 9 4 2 10 9 4 3 8 13 13 5 8 7 4 5 3 3 3 6 2 4 5 4 12 16 14 11 8 6 4 4 4 5 7 7 8 7 8 9 8
33 39 42 46 43 44 58 46 48 52 39 6 7 7 5 6 6 5 4 6 9 16 26 22 9 6 5 3 3 5 3 4 3 4 6 3 14 18 19 14 9 7 6 5 4 4 5 5 6 7 6 5 7 7
39 41 40 35 35 54 42 49 48 32 5 4 6 6 5 5 4 8 15 17 14 35 35 15 9 6 1 3 2 4 5 4 6 5 3 6 18 21 20 14 11 8 7 5 4 3 2 4 4 5 4 5 6 6
38 36 31 35 50 47 51 46 26 7 4 3 3 4 7 5 4 5 11 18 28 35 22 8 4 3 2 5 5 6 8 7 4 3 6 14 22 21 17 12 8 6 5 5 6 4 5 6 5 5 5 6 6 7
20 22 25 38 49 49 48 25 10 4 4 3 3 7 5 8 8 9 18 19 34 23 3 4 5 6 3 3 3 4 5 3 5 10 11 19 22 19 15 10 9 8 5 3 4 5 6 7 8 8 8 9 11 12
14 33 47 57 56 41 27 6 5 5 5 4 3 5 4 6 18 15 12 32 22 6 9 4 9 3 5 7 4 3 8 5 8 11 18 19 17 14 11 10 8 7 7 6 4 4 5 7 9 11 13 15 17 16
23 29 47 54 42 27 5 3 4 4 3 3 7 10 10 11 12 12 25 30 15 8 16 4 4 3 3 4 5 10 14 11 14 17 16 15 13 11 11 11 9 6 4 3 3 5 8 10 11 11 11 11 13 13
32 45 47 41 28 5 5 4 4 5 2 4 7 8 8 7 15 21 29 18 12 6 3 2 3 3 4 4 6 12 15 11 19 18 15 14 13 12 11 10 8 7 7 6 6 8 8 6 5 6 8 10 12 11
45 46 55 32 13 8 6 3 6 5 5 6 8 6 6 12 12 16 9 10 3 2 1 3 5 9 10 12 10 12 14 13 16 11 13 14 13 12 11 10 10 11 10 8 8 9 7 4 3 5 7 9 11 13
33 40 35 23 6 4 6 6 7 6 4 5 4 5 6 3 4 5 6 1 3 4 5 7 12 14 15 13 13 12 12 13 11 9 8 8 10 9 10 12 13 12 9 8 9 9 7 4 3 4 7 11 14 15
36 30 10 6 6 5 4 4 3 3 3 2 3 3 2 2 4 11 3 5 6 10 13 11 15 16 15 14 13 12 11 10 9 9 8 8 9 9 10 10 10 11 11 11 11 10 10 9 7 8 11 14 17 17
32 8 4 4 4 3 5 3 4 5 4 2 2 3 2 3 6 1 3 4 8 16 21 20 19 20 18 15 13 12 10 9 9 10 10 9 9 9 9 10 10 12 14 14 12 12 14 13 13 15 18 20 21 21
8 3 4 3 4 5 4 3 3 2 2 2 3 2 2 3 2 2 3 4 13 20 25 23 21 19 19 17 15 12 10 8 8 8 6 6 6 5 4 4 5 7 9 12 13 14 15 16 18 20 22 25 25 25
5 1 2 3 3 3 4 4 4 4 3 3 2 4 3 2 2 5 3 4 10 22 26 28 26 23 20 15 11 11 9 8 8 7 6 6 6 4 3 4 5 6 8 9 11 13 16 18 21 23 24 24 25 27
4 2 3 3 6 8 6 6 5 3 3 4 4 4 3 4 5 3 3 6 7 18 17 16 17 16 16 16 14 14 14 12 11 9 8 6 4 1 2 4 5 7 9 11 13 16 18 20 23 24 26 25 24 25
4 6 6 6 5 3 4 3 4 4 3 6 9 5 6 6 3 4 4 7 12 19 20 20 20 18 18 18 17 15 14 11 9 7 5 3 1 2 4 7 9 12 14 16 18 19 20 21 22 24 24 25 25 23
3 9 8 4 4 4 2 2 3 3 8 12 3 3 2 2 4 5 12 15 17 18 21 23 24 22 20 17 14 12 10 8 6 4 2 2 5 8 10 12 14 14 14 15 18 20 21 21 21 22 23 23 23 24
3 4 5 3 3 2 2 3 4 8 7 9 4 4 3 3 5 12 17 19 20 20 20 20 21 19 16 13 13 11 9 7 4 2 4 7 9 10 11 12 13 15 16 17 17 16 17 17 16 15 16 19 21 23
7 4 5 5 3 2 4 9 10 10 8 3 3 3 4 4 8 14 17 20 20 21 21 20 18 16 13 12 11 9 7 5 2 4 7 8 8 9 11 13 14 15 16 16 15 15 14 14 16 18 19 19 19 20
3 3 3 3 2 6 9 3 3 3 3 2 2 4 5 4 5 13 17 20 22 22 20 17 15 15 15 13 10 8 5 3 4 6 7 7 9 10 12 13 13 12 11 11 11 12 13 14 16 17 17 17 17 18
5 6 6 6 4 3 5 4 2 2 3 2 2 5 3 4 5 12 18 21 20 18 17 17 17 15 14 11 9 6 4 4 5 6 7 8 10 12 12 10 9 9 8 8 9 10 11 12 13 13 14 14 15 16

GFSWCAN_850_spd_105.txt.gz
Wind_Speed
36 37 36 32 24 20 22 25 21 20 19 13 10 12 9 11 29 37 28 27 16 2 3 3 4 5 6 5 4 8 5 2 2 2 3 3 3 4 2 4 5 6 5 3 3 1 5 2 3 0 1 1 4 7
37 37 35 31 26 22 18 24 22 20 19 14 8 9 3 17 30 31 25 23 13 4 7 11 10 7 6 6 6 14 1 4 8 4 1 3 2 1 3 2 1 2 5 4 7 5 3 2 3 3 2 2 5 10
39 37 34 30 28 24 19 22 22 21 19 15 10 10 6 19 35 30 24 16 12 9 8 5 6 7 5 6 7 5 4 6 6 4 7 2 2 3 3 4 3 3 5 3 1 2 5 4 5 6 3 2 7 10
39 36 33 32 30 27 22 22 24 22 20 18 14 12 12 19 40 35 24 15 11 7 5 2 5 4 4 3 4 3 3 9 9 5 3 3 2 5 2 1 3 4 7 4 5 6 4 2 7 7 7 14 18 17
39 36 36 33 30 30 26 24 26 25 23 20 17 15 13 17 32 42 26 20 15 4 7 7 9 7 7 5 3 6 9 10 5 3 2 2 3 3 1 1 3 9 6 5 5 6 3 3 4 11 13 10 12 15
38 38 34 32 31 30 28 27 28 28 26 23 22 20 18 26 33 30 10 15 12 8 6 3 5 6 7 7 7 8 8 5 3 3 3 2 2 2 2 3 5 16 10 6 4 6 3 5 7 4 8 9 10 13
39 38 36 36 35 34 33 29 31 31 29 26 24 26 16 33 38 20 7 17 20 9 5 4 1 5 6 4 4 4 4 3 2 3 2 3 3 3 2 3 3 14 12 10 6 3 1 2 4 6 7 10 13 14
38 39 39 38 37 36 35 34 33 33 31 28 25 30 16 34 40 17 6 21 23 7 5 4 2 3 8 3 1 2 1 2 2 3 3 3 3 2 4 10 5 13 14 10 6 5 4 4 6 4 6 11 12 8
40 41 40 39 39 38 35 36 36 34 31 28 24 29 17 41 28 20 9 15 17 5 8 4 6 3 10 3 3 2 1 2 1 1 2 4 2 6 7 10 19 21 16 9 8 6 3 3 5 4 7 7 8 8
41 42 40 40 39 40 40 40 39 37 33 30 23 15 9 23 28 25 9 5 8 5 4 3 8 3 7 4 2 3 1 2 1 2 4 3 4 19 12 8 13 22 14 9 7 4 8 4 3 4 5 5 5 7
37 38 39 40 43 42 43 46 42 42 40 30 15 5 33 41 17 6 5 5 4 2 8 8 6 6 10 3 3 4 2 1 1 3 4 3 4 4 10 17 15 17 13 8 5 5 6 5 5 5 5 6 6 7
27 27 26 33 43 45 46 49 48 52 34 35 17 38 22 9 6 5 5 3 4 7 9 9 10 7 9 6 4 4 3 2 4 5 2 3 4 7 14 24 20 13 10 8 8 7 7 6 6 8 6 5 6 7
10 6 13 30 40 46 51 50 53 48 40 39 19 8 8 5 5 11 10 4 3 9 15 14 6 10 7 5 5 3 3 4 7 2 4 5 3 12 17 24 20 14 11 9 8 7 7 6 6 6 7 6 6 8
10 16 25 36 44 49 52 55 52 54 45 8 9 8 6 6 6 5 6 6 9 15 29 24 11 6 6 3 3 5 2 3 3 3 6 3 15 22 22 20 18 15 11 8 8 7 5 4 5 5 7 6 7 8
20 25 31 38 46 54 53 54 50 42 9 7 7 6 6 4 3 7 15 18 13 35 36 18 9 6 2 4 2 4 4 5 6 5 3 6 21 27 24 20 15 13 12 10 8 7 6 6 5 5 6 5 6 6
33 34 31 35 44 47 49 49 46 12 2 3 5 5 7 4 2 5 12 14 26 35 27 8 4 4 2 5 5 8 8 7 4 3 6 16 26 28 24 18 15 12 12 11 10 9 8 7 6 6 6 6 6 7
29 24 27 45 57 55 44 46 11 3 5 4 2 6 5 4 6 8 18 16 39 33 4 3 5 6 4 3 3 5 6 3 5 9 12 22 27 27 22 15 14 11 10 10 10 8 8 7 8 8 8 8 11 12
19 27 31 53 58 40 26 9 5 4 4 4 4 6 3 3 17 16 14 33 28 13 9 4 10 4 6 7 4 4 10 6 8 11 18 23 24 22 18 14 13 12 10 9 7 6 5 5 6 8 10 11 12 13
25 32 50 53 45 23 5 4 3 4 5 6 10 9 6 8 11 13 28 34 21 9 14 5 4 4 4 5 5 11 17 15 17 21 21 22 20 19 17 14 11 10 8 6 4 3 5 6 7 7 5 6 6 7
35 34 41 38 26 7 5 4 4 5 2 4 7 6 6 7 14 20 31 20 15 7 2 2 3 3 4 5 8 19 20 21 27 25 21 20 19 17 15 13 10 8 7 6 5 6 6 5 5 4 4 5 7 7
44 40 39 30 16 7 6 4 5 4 7 5 9 5 7 11 11 16 13 12 4 2 2 4 4 7 9 11 14 18 17 21 23 21 25 22 17 15 13 12 12 10 9 8 7 6 7 6 5 3 2 3 5 8
32 34 29 13 6 5 6 4 7 8 4 6 5 4 6 3 5 6 11 2 2 3 3 6 11 14 15 15 18 17 17 19 15 13 15 14 16 16 14 13 12 10 9 7 8 7 7 7 8 6 4 4 8 11
38 29 15 4 5 5 4 4 3 2 3 3 3 3 2 2 5 11 3 5 5 9 11 10 15 17 16 18 19 18 17 15 14 13 12 11 10 9 9 9 9 9 10 9 9 9 9 10 11 10 10 11 14 16
28 7 5 4 4 3 6 2 4 5 5 3 2 3 1 3 7 2 2 4 9 18 21 18 21 22 20 19 19 17 15 13 12 10 8 7 7 7 7 7 7 8 9 9 10 12 11 12 13 15 16 18 20 22
5 3 5 4 4 5 4 3 2 2 3 2 3 2 2 4 2 2 3 4 14 23 28 26 25 25 25 22 19 16 13 10 8 8 8 8 7 8 7 6 5 5 6 7 9 10 11 13 14 16 19 21 23 25
4 2 2 3 3 4 5 4 4 4 3 3 2 4 3 2 3 4 3 5 10 23 31 32 32 29 23 19 17 14 11 10 9 10 10 10 10 9 7 4 2 2 3 3 4 6 9 12 15 18 20 22 23 25
4 2 2 3 6 8 5 5 4 3 3 5 4 4 3 4 5 3 3 5 7 15 23 25 25 23 22 19 15 13 13 13 13 11 12 12 10 7 5 3 1 1 3 6 8 10 12 15 17 19 20 21 21 23
4 6 6 6 5 2 5 3 4 3 3 6 8 4 7 6 3 3 4 6 9 17 22 25 23 19 16 15 16 19 20 18 17 15 13 11 8 6 2 1 4 7 9 10 11 12 14 16 18 19 19 20 19 19
3 8 7 3 4 5 3 2 2 3 7 12 2 3 3 2 3 4 7 12 20 21 23 25 24 23 23 24 23 20 18 16 14 13 10 7 5 1 3 5 7 7 8 11 12 14 15 16 16 15 15 17 19 21
4 2 4 3 3 3 2 3 4 8 7 9 6 4 3 2 4 9 14 19 22 22 22 24 27 26 27 25 24 22 18 15 12 8 5 3 1 3 4 4 6 7 9 10 10 10 10 10 10 11 13 14 15 15
6 4 5 5 3 2 5 9 9 10 7 5 5 4 5 5 7 13 17 21 22 23 25 27 26 23 21 20 18 18 16 12 8 5 1 1 3 4 5 6 7 8 8 7 7 7 8 9 10 11 12 13 14 15
3 3 3 4 2 7 9 3 3 3 3 2 2 3 4 4 4 13 19 22 23 25 25 25 24 22 19 18 16 13 9 8 5 1 2 3 4 5 6 6 6 6 6 6 7 7 8 9 10 11 12 13 14 14
4 6 6 6 4 3 5 5 3 3 3 2 2 4 4 4 5 10 19 23 23 24 23 22 20 20 19 17 13 10 8 5 2 1 1 3 4 5 4 4 5 5 5 5 5 5 6 8 9 10 11 12 13 14

GFSWCAN_850_spd_108.txt.gz
Wind_Speed
30 29 31 29 30 30 23 18 16 13 12 13 11 8 6 7 2 27 31 29 20 5 1 4 3 2 3 4 3 8 5 3 3 4 2 2 3 3 3 2 4 5 6 3 3 3 2 6 4 4 3 2 2 2
30 30 32 31 31 28 23 19 16 14 11 12 11 5 1 10 15 16 31 29 18 8 1 4 4 4 5 6 5 14 1 4 6 3 2 2 3 2 2 2 4 4 3 2 5 1 3 4 2 3 2 2 1 3
31 30 31 34 29 28 23 20 16 15 14 13 12 8 6 17 20 19 24 26 18 9 3 5 3 3 3 6 7 5 5 7 5 5 4 1 4 3 3 5 4 5 6 3 2 4 10 9 7 6 5 4 3 6
32 30 34 32 30 27 25 21 17 17 16 14 15 13 11 15 21 26 22 27 21 6 3 3 6 3 2 5 6 5 2 8 7 6 2 2 2 4 2 2 3 1 9 6 5 7 2 8 9 7 7 7 11 14
32 34 33 31 30 27 26 22 18 19 18 16 17 16 15 15 22 29 26 23 19 4 4 4 7 3 3 4 5 6 6 7 5 3 2 2 2 3 1 2 5 11 7 6 3 7 2 4 8 7 8 9 7 8
36 35 34 32 30 30 25 22 20 22 21 19 19 18 15 12 28 34 19 32 20 15 3 3 5 6 7 7 6 7 7 5 3 2 2 2 3 2 3 3 5 17 13 7 3 11 5 5 5 5 4 5 7 9
37 37 37 33 32 29 25 25 24 24 23 21 20 19 18 13 31 33 9 10 32 17 5 5 4 6 8 6 4 3 3 2 2 2 2 2 3 4 3 4 3 14 15 12 10 9 3 4 2 3 5 5 8 7
38 39 37 35 31 29 29 28 27 26 25 23 21 19 18 9 30 23 15 19 30 18 6 4 2 3 10 4 3 3 1 2 1 1 2 3 2 3 6 12 5 12 15 13 12 9 5 4 4 3 4 5 5 3
38 38 38 35 32 33 32 30 30 28 28 25 21 19 19 13 16 17 16 29 25 12 7 5 6 4 12 4 3 3 2 2 1 2 3 4 3 7 8 10 18 20 18 15 14 9 7 5 5 5 2 3 3 3
36 38 36 35 34 33 32 32 31 32 30 27 26 17 9 10 26 27 13 13 10 7 7 3 7 4 8 5 3 4 0 1 2 1 4 4 5 22 13 11 16 22 18 16 16 9 11 10 8 5 4 4 4 4
36 35 36 37 36 36 36 36 35 35 34 35 17 12 11 41 22 9 9 8 7 4 11 8 8 7 10 4 3 4 2 1 2 2 3 3 5 5 13 20 15 24 20 15 9 6 11 9 9 7 6 6 5 5
33 35 36 37 38 39 39 41 42 45 38 34 24 21 30 11 8 7 6 6 7 8 12 11 11 8 9 6 5 5 2 2 4 6 3 4 4 7 13 24 20 27 21 15 12 12 12 11 9 8 6 6 5 4
31 31 32 32 34 38 45 48 51 50 39 40 14 16 10 10 7 11 11 6 6 10 14 15 7 10 7 4 6 3 5 4 5 3 5 6 2 10 18 25 24 23 18 15 14 10 10 10 8 7 6 7 6 6
24 25 25 25 27 38 49 53 63 52 50 13 10 7 7 7 7 6 5 6 7 16 30 28 11 6 6 4 3 4 2 4 3 5 7 3 12 17 26 28 25 22 18 15 12 11 10 8 6 6 7 7 6 6
17 15 14 14 23 39 50 62 61 53 27 7 7 7 8 3 3 5 13 16 15 39 36 18 11 6 3 4 3 4 5 6 7 6 3 6 20 25 30 30 24 21 19 15 13 12 10 10 10 8 8 7 6 6
13 14 20 26 33 42 59 62 43 29 21 3 5 4 4 4 3 6 9 15 28 35 33 10 5 5 4 5 6 10 7 7 4 4 7 17 28 30 31 28 24 18 16 14 12 11 10 9 8 7 7 7 7 7
23 15 28 38 47 56 61 38 23 13 9 5 4 7 9 4 6 8 18 16 38 33 6 4 6 6 6 4 4 6 6 3 5 10 14 25 34 33 28 24 20 16 15 14 12 10 10 9 9 8 8 7 9 10
24 30 39 47 56 48 36 20 7 4 1 2 3 8 6 5 15 16 14 32 29 14 10 4 10 5 6 8 4 5 11 8 9 12 17 26 32 30 25 20 19 15 13 12 12 10 9 8 6 6 7 8 8 8
32 40 51 61 49 28 6 9 3 6 9 6 8 12 9 8 10 17 25 33 25 9 15 6 4 4 4 4 3 9 18 15 15 17 22 25 29 27 22 18 18 17 14 11 10 8 6 4 5 5 5 4 4 5
35 49 52 44 35 10 5 6 6 7 4 3 5 8 11 7 14 20 27 22 19 8 3 3 3 4 5 4 7 13 22 22 26 26 24 25 26 25 21 18 17 15 14 11 9 7 5 5 5 5 5 4 3 3
42 40 44 35 17 4 4 6 2 4 7 5 9 4 8 12 9 11 17 13 6 4 2 5 4 6 5 7 9 17 20 26 30 31 34 30 26 23 20 17 15 13 11 9 8 7 6 5 7 7 6 5 4 3
28 31 24 26 4 5 5 3 7 7 5 4 4 5 6 3 5 9 10 3 3 6 4 6 10 11 12 14 18 17 21 23 22 17 23 24 24 22 21 19 17 13 9 8 8 7 7 7 8 9 9 8 7 8
36 26 12 5 4 4 3 3 4 4 3 2 2 3 2 2 5 13 4 6 5 10 10 10 14 15 15 19 19 20 21 19 17 19 19 19 16 15 14 14 13 12 11 10 9 8 8 9 9 11 12 12 13 15
28 8 4 4 5 3 6 3 3 5 5 2 2 3 2 2 9 1 3 4 10 17 18 16 20 21 19 21 21 22 21 18 17 18 16 16 16 14 13 11 10 10 10 9 10 10 10 11 11 12 14 16 17 20
5 1 4 4 4 4 4 3 2 3 2 2 3 2 2 4 2 2 2 3 19 29 30 28 23 24 27 25 23 22 20 18 16 15 14 14 13 13 12 10 9 8 7 7 8 8 9 10 11 12 14 16 18 21
4 2 3 4 3 4 5 5 4 4 3 3 2 3 3 2 2 5 3 9 18 33 37 36 34 29 26 27 27 23 20 17 14 13 13 13 12 9 11 10 9 7 6 5 6 7 7 8 10 12 14 17 19 21
4 3 3 4 6 9 5 5 7 3 4 5 5 5 3 4 6 3 5 8 10 22 34 35 33 32 31 28 23 20 17 15 15 14 15 15 14 13 10 8 7 5 5 4 5 6 8 10 11 12 14 15 16 17
3 5 6 5 4 3 5 3 4 4 4 6 8 5 6 5 2 3 4 8 9 17 26 29 28 26 24 22 21 19 19 18 18 18 18 16 14 12 9 7 5 3 4 5 6 7 9 10 11 11 11 10 11 14
3 9 9 3 3 4 2 2 3 3 7 12 3 3 3 1 2 3 6 9 15 24 29 31 28 26 24 22 21 20 20 22 23 23 19 17 15 11 8 5 4 3 4 5 7 8 9 8 6 6 8 11 12 14
4 4 4 3 2 2 1 2 4 7 6 8 6 5 4 3 3 6 10 18 22 26 28 28 30 29 28 29 29 27 25 22 17 13 13 12 9 7 6 4 3 4 4 5 5 5 4 4 6 8 9 9 10 10
8 4 5 4 2 2 6 10 10 10 6 5 6 5 5 5 6 9 15 19 21 23 27 29 29 28 29 31 30 29 24 19 17 13 10 8 6 5 4 3 2 3 3 2 1 0 2 3 5 6 7 8 9 11
3 3 3 3 2 7 7 3 3 3 2 2 3 3 4 3 3 8 16 19 21 24 26 27 29 30 26 24 21 19 16 16 14 11 8 6 5 3 2 2 2 2 3 2 2 3 3 4 5 6 7 9 10 12
5 5 6 7 4 3 5 4 2 3 3 2 2 2 1 2 4 8 17 20 22 25 27 27 26 24 24 22 20 17 15 14 11 8 7 5 3 2 2 3 4 5 5 4 4 4 4 5 5 7 9 9 10 11

GFSWCAN_850_spd_111.txt.gz
Wind_Speed
26 28 26 22 25 24 21 19 21 18 14 12 12 12 12 13 12 22 29 25 19 7 5 5 6 3 3 3 2 6 4 3 3 2 1 1 2 1 2 1 3 4 4 3 2 3 3 11 7 4 4 2 4 4
29 29 28 25 26 25 23 21 19 18 14 14 13 12 11 7 8 20 26 22 23 4 4 5 7 11 10 6 2 8 2 2 2 3 2 2 3 1 2 2 4 4 3 2 4 1 3 13 2 0 1 3 3 3
30 30 29 27 28 27 25 22 19 19 14 15 15 12 11 10 11 6 12 28 25 8 7 5 5 8 8 8 9 4 3 3 2 4 0 1 4 2 3 4 3 5 6 4 3 4 10 10 7 6 5 4 3 4
32 30 30 30 30 28 28 23 20 20 15 16 16 15 13 13 19 12 12 30 18 4 4 4 8 8 7 8 10 9 5 5 4 4 3 2 3 3 2 2 4 2 10 7 8 9 3 9 9 7 6 4 6 7
35 33 32 32 32 27 27 24 21 20 17 17 17 18 16 15 14 23 16 24 24 6 1 1 6 7 7 8 9 9 7 5 4 3 3 3 1 2 2 3 8 12 10 6 3 4 3 4 8 7 5 7 7 6
36 35 35 33 31 30 26 25 22 18 18 18 17 18 18 18 13 17 14 25 27 14 3 2 4 7 8 7 7 8 9 6 3 3 3 3 2 3 3 4 9 14 14 15 3 9 6 9 6 5 4 4 4 6
39 36 37 34 31 30 27 25 23 19 20 19 18 18 18 18 17 20 7 7 29 16 3 2 3 5 10 9 6 4 6 4 4 2 4 3 4 4 3 6 5 12 15 12 9 11 5 6 4 5 5 4 5 6
40 39 38 34 34 30 27 26 22 20 20 19 18 18 17 18 18 23 18 11 22 24 6 3 2 4 12 5 6 7 4 4 4 3 2 4 4 5 6 15 8 9 14 14 14 9 4 7 6 6 6 3 2 5
41 41 37 37 34 31 28 25 22 21 21 19 17 15 16 17 9 13 21 17 28 15 5 6 6 4 14 5 4 5 4 3 3 3 4 4 5 8 10 12 17 18 18 15 16 12 8 7 8 7 6 3 3 4
41 40 38 37 34 31 30 24 25 24 22 20 20 13 9 10 17 13 14 16 11 9 8 5 4 4 10 9 5 6 4 2 3 3 5 5 6 23 19 16 13 20 18 17 19 14 13 11 11 9 7 5 5 5
40 39 37 35 34 32 29 28 28 25 24 27 17 10 11 25 19 11 8 10 12 5 11 12 12 6 11 4 4 7 3 3 3 3 3 3 5 4 12 24 16 20 20 19 14 9 12 10 11 11 8 6 6 7
40 39 36 36 34 32 30 30 32 36 26 32 17 19 22 9 8 7 7 6 7 9 13 13 12 8 8 6 4 6 4 2 4 6 3 4 4 10 9 21 20 22 21 19 14 10 12 10 9 9 8 7 8 7
39 36 35 35 34 33 31 33 37 39 32 35 18 11 10 11 11 9 12 6 7 7 12 16 6 11 7 6 4 3 6 5 5 4 5 6 4 10 17 21 21 22 22 18 14 11 11 10 9 9 8 9 8 7
34 35 34 31 32 33 35 37 40 42 32 18 11 10 8 8 9 6 7 8 7 13 25 28 12 5 6 5 4 6 3 4 4 5 7 4 15 17 23 26 27 26 23 18 15 13 11 11 9 8 7 7 7 7
33 30 30 31 31 34 36 39 45 55 19 11 10 9 9 5 2 1 5 13 14 34 34 19 7 6 3 4 4 4 5 6 7 6 3 6 17 24 28 27 30 28 22 18 15 14 13 12 11 10 10 10 9 9
24 23 29 29 31 35 37 42 50 46 13 11 10 4 5 5 3 5 8 10 24 35 30 14 5 4 5 4 6 10 7 7 4 4 6 13 20 25 32 31 30 25 22 19 16 15 14 12 11 10 9 9 8 8
22 26 26 23 25 28 41 43 30 13 14 8 5 11 12 8 12 12 19 18 34 36 9 5 9 9 5 5 6 6 6 4 6 10 12 17 25 29 34 32 27 22 20 18 15 14 12 10 10 10 9 9 10 11
28 25 21 21 31 51 39 25 9 7 5 4 5 9 12 9 8 13 18 27 25 27 10 4 9 7 6 7 4 5 7 8 9 12 16 21 26 30 32 30 26 21 18 17 15 13 13 12 11 9 8 8 8 9
26 24 30 49 54 30 7 9 4 3 3 7 7 11 8 5 14 15 22 36 25 21 7 6 4 5 4 4 2 8 18 19 14 15 18 23 28 31 29 26 22 19 17 16 14 12 9 9 8 9 8 8 6 6
23 32 54 52 40 11 4 3 5 5 3 6 9 10 5 4 8 13 22 32 22 9 3 4 3 2 3 5 9 9 21 22 27 26 22 25 29 29 25 25 23 20 17 13 12 11 10 9 7 7 7 7 7 6
35 44 45 34 14 6 5 5 5 4 6 4 10 13 4 11 11 12 13 21 10 5 3 7 5 6 7 6 8 10 20 24 28 26 36 35 32 29 25 23 22 22 19 15 13 11 10 8 7 7 8 8 8 8
30 45 37 25 4 3 6 3 8 10 4 4 11 10 5 3 6 9 15 4 6 16 7 6 10 10 8 9 13 17 21 25 24 26 32 35 36 31 26 23 22 19 16 13 11 10 9 8 8 8 9 10 11 11
36 29 25 6 5 4 5 11 4 6 4 6 7 4 3 4 8 18 4 8 8 17 20 11 12 12 12 16 17 19 21 21 21 24 28 30 29 27 24 21 18 16 15 12 10 10 9 8 8 9 10 12 13 14
28 8 5 5 4 3 7 5 6 6 6 5 4 4 2 2 9 2 4 5 10 15 20 17 19 20 20 20 23 23 22 19 20 25 23 24 24 21 19 17 17 15 13 12 12 11 10 10 10 10 11 12 13 15
6 6 8 3 6 5 3 4 3 2 3 3 4 3 3 4 3 4 3 4 21 26 26 24 25 26 27 28 26 23 22 21 24 25 23 20 20 19 18 17 15 13 12 11 11 10 9 8 9 9 10 11 13 15
4 4 4 5 5 5 6 5 6 5 4 3 2 3 3 3 4 5 3 9 19 32 40 38 36 30 28 29 31 28 26 23 20 20 20 19 16 13 14 15 15 13 12 10 9 8 7 7 8 8 10 12 14 14
4 3 4 3 3 8 5 4 5 3 4 5 5 5 4 4 6 2 3 8 11 24 33 35 34 31 30 29 27 26 25 22 18 16 17 18 16 15 13 13 13 11 10 8 7 7 7 7 7 8 9 10 10 10
3 8 7 7 4 3 4 3 4 6 4 6 8 6 8 6 1 1 3 6 9 19 28 31 29 26 24 28 27 26 24 20 18 17 18 18 17 17 15 13 11 10 8 6 6 5 5 5 6 6 5 5 7 9
3 7 6 4 3 3 1 2 3 3 6 9 3 3 3 1 2 2 4 7 12 19 27 29 28 29 29 30 28 24 20 20 23 25 24 23 22 18 15 13 10 8 6 6 5 4 4 3 2 1 3 5 6 8
3 5 3 3 3 2 1 1 3 6 5 6 4 5 4 2 1 3 6 11 16 22 27 30 32 30 33 32 29 25 23 23 22 22 24 22 18 16 13 11 8 7 6 4 3 2 1 1 1 2 4 5 7 7
8 5 4 3 2 1 5 10 11 10 5 4 6 6 4 3 4 4 9 13 17 21 25 30 33 32 31 30 30 29 28 26 23 19 16 16 13 13 11 9 8 6 5 4 3 3 3 3 2 3 3 4 4 5
4 3 4 3 2 6 7 2 3 3 2 2 3 4 3 3 2 5 12 16 21 22 24 27 30 31 30 29 29 28 27 26 22 18 16 14 13 11 9 8 7 6 6 6 6 6 5 4 3 4 4 4 4 5
5 4 5 6 3 3 5 4 2 2 3 2 2 3 2 2 2 7 15 18 21 25 28 28 27 27 28 29 28 23 23 21 19 17 15 13 10 9 8 8 7 7 7 8 7 6 5 5 5 5 5 4 4 4

GFSWCAN_850_spd_114.txt.gz
Wind_Speed
28 27 26 23 21 20 18 16 17 16 15 13 10 12 11 11 9 14 20 18 15 4 9 7 5 4 3 4 2 6 3 2 2 1 2 1 1 1 2 4 4 5 5 3 1 1 6 15 6 4 5 5 9 8
31 30 27 25 23 23 19 19 16 17 13 14 11 11 10 11 9 11 15 18 15 14 7 8 12 12 13 7 3 9 1 3 2 2 1 1 2 1 1 2 1 3 4 2 5 5 1 19 6 6 5 1 7 5
34 33 30 27 25 24 21 21 16 18 13 14 13 13 13 11 10 9 11 10 16 8 15 16 12 13 12 14 12 5 4 5 2 3 1 0 3 3 3 5 4 5 4 3 3 4 7 13 9 6 4 5 7 5
37 36 33 30 28 26 24 23 19 19 17 12 14 13 14 13 10 12 7 10 22 3 5 5 10 12 11 13 15 15 6 5 5 5 2 2 2 3 3 2 3 3 8 6 5 8 2 13 14 12 10 8 6 4
38 39 36 33 30 28 26 25 20 20 17 14 14 13 13 14 12 10 12 11 25 6 2 4 13 13 12 11 12 14 11 6 4 5 2 3 2 1 3 2 4 10 7 5 5 11 8 1 16 14 11 7 5 7
41 40 39 36 34 31 28 28 22 20 17 16 15 15 15 15 13 7 7 15 27 8 5 3 4 7 10 9 9 11 11 11 6 4 4 3 3 3 2 4 9 21 20 19 6 11 7 11 13 11 10 8 6 5
42 41 40 39 37 33 30 28 24 19 17 16 16 16 15 16 17 12 6 7 24 24 4 5 3 3 8 7 6 8 10 6 6 3 4 3 5 7 2 5 8 19 20 20 13 15 9 14 8 9 9 8 7 5
45 42 41 41 40 36 34 29 26 20 17 16 16 16 14 16 16 21 17 5 19 18 6 3 2 3 12 6 5 8 5 6 6 4 3 4 5 5 6 14 19 11 18 20 20 16 8 12 11 10 9 10 6 4
47 46 41 42 41 38 35 31 27 20 17 18 15 13 14 16 12 17 20 22 23 12 8 7 5 3 12 6 4 6 6 2 5 3 4 6 4 7 10 14 19 24 21 20 22 20 14 14 12 11 12 10 8 6
46 45 42 41 40 39 35 33 26 19 20 19 18 11 6 10 14 3 8 7 16 12 10 5 9 4 11 9 5 4 5 3 3 4 7 4 5 24 28 27 18 24 26 20 28 21 20 17 16 14 14 11 9 8
44 43 41 41 40 39 38 34 26 24 25 25 12 7 8 15 12 6 7 8 9 5 12 13 16 7 13 4 3 7 3 2 2 4 4 3 4 6 21 31 29 23 27 26 25 21 21 16 16 15 15 13 10 8
44 43 42 42 42 40 39 31 29 36 28 27 18 18 19 9 7 6 6 6 7 7 12 10 14 11 12 8 4 6 3 1 6 8 2 4 5 15 10 16 27 26 28 26 23 19 17 14 14 16 15 12 10 9
43 43 43 44 42 44 37 31 36 38 27 25 14 10 9 9 10 9 12 6 6 7 9 15 5 11 7 7 5 3 4 6 5 2 5 6 7 9 13 20 25 26 27 27 24 19 18 18 17 16 15 12 11 9
45 45 45 44 45 39 33 35 41 42 34 12 11 8 7 7 8 6 3 5 7 16 24 26 10 7 8 5 3 5 4 3 4 4 7 4 19 20 18 23 29 30 31 29 24 22 20 18 15 12 10 10 10 8
44 45 44 44 39 34 33 38 44 47 21 11 11 9 11 9 7 8 8 10 14 24 29 12 6 6 3 4 4 3 2 7 7 5 4 11 14 19 26 30 32 34 33 29 25 22 19 17 13 13 12 10 8 7
44 43 41 38 34 31 35 41 47 40 14 11 12 6 9 12 6 6 11 9 20 28 28 11 5 5 5 5 6 10 6 7 4 4 10 13 17 21 28 32 34 33 32 27 23 19 18 17 15 13 12 10 9 9
44 27 40 33 31 33 38 41 35 16 14 9 6 18 18 13 16 16 18 20 28 29 6 3 8 10 3 3 5 6 6 4 6 9 11 14 18 25 30 32 33 33 30 25 22 19 17 16 14 13 12 10 9 9
37 33 26 33 36 36 39 35 16 13 9 9 7 11 20 15 23 19 27 26 27 16 14 6 6 6 8 8 4 4 12 16 15 12 14 15 18 25 30 35 33 31 28 24 19 17 17 16 14 12 11 10 8 7
31 29 30 33 43 30 15 15 13 6 4 7 14 25 21 14 19 19 24 28 31 22 6 5 5 4 4 3 4 19 25 27 19 17 17 17 22 28 32 35 31 28 25 22 20 17 15 14 13 11 9 8 8 7
27 26 30 35 47 11 7 6 15 7 4 8 16 20 13 13 19 18 20 25 29 13 7 4 5 6 5 11 14 15 15 25 25 23 22 23 25 31 34 34 30 26 24 21 18 18 16 14 11 9 8 8 8 7
24 27 39 45 24 7 5 7 6 7 10 7 13 19 7 14 10 13 15 25 12 7 5 13 12 12 11 11 10 11 13 20 29 29 34 33 32 34 34 32 28 26 25 23 20 16 14 12 9 8 7 7 8 8
30 49 38 29 6 5 4 5 9 12 7 11 14 9 6 3 8 11 18 10 8 19 19 17 19 13 12 10 9 11 13 17 20 19 27 34 39 37 35 32 30 27 23 19 16 14 11 10 8 7 7 8 9 10
40 30 20 5 5 3 4 14 4 5 5 8 9 3 2 3 9 21 4 9 12 22 28 23 19 14 11 10 10 12 15 18 21 22 30 37 38 33 32 30 28 25 21 17 14 12 10 8 7 7 8 9 10 11
29 11 5 6 5 4 8 2 4 5 6 4 4 4 3 3 13 3 4 6 13 26 32 36 25 18 14 12 12 14 18 20 22 26 33 37 35 31 26 24 21 19 16 14 13 11 10 9 9 8 9 9 10 11
6 6 8 3 5 6 4 4 3 2 3 4 4 2 3 9 4 4 3 4 23 33 37 43 38 26 22 17 16 21 22 23 28 32 31 31 31 28 24 21 19 17 16 15 13 13 12 10 9 8 8 8 9 10
4 3 3 4 3 5 5 5 6 5 4 3 3 3 3 2 3 5 4 14 23 33 43 46 43 35 27 27 32 31 28 26 28 30 28 25 22 21 23 23 21 19 16 13 12 13 12 10 8 7 7 7 8 9
4 3 2 4 8 9 5 3 4 3 6 6 4 5 4 5 7 4 6 13 15 20 31 35 39 39 36 34 35 30 29 29 28 26 27 24 20 17 15 16 17 16 16 14 12 11 9 8 6 6 6 6 6 5
3 5 6 5 4 4 5 3 5 7 5 6 7 7 9 8 4 3 4 8 14 19 23 29 33 34 31 35 36 35 32 29 25 25 24 21 18 17 18 17 17 16 15 13 11 9 7 5 4 4 4 2 1 2
2 8 9 3 3 3 2 3 3 3 7 10 4 3 3 1 2 3 6 11 16 22 27 30 30 27 30 36 36 33 32 29 25 25 24 24 24 22 21 19 17 16 14 11 9 7 6 4 4 4 3 2 1 2
4 8 3 3 3 3 1 2 0 3 5 6 4 4 3 1 0 2 5 11 17 21 25 30 33 29 38 39 37 33 27 23 19 16 24 28 26 25 23 20 17 14 12 10 8 8 7 7 6 5 4 3 4 5
10 3 5 3 2 2 3 6 6 7 5 4 4 3 4 4 3 2 6 12 15 20 23 28 33 35 39 37 34 30 27 21 18 19 18 23 23 23 20 18 15 12 10 9 9 9 9 9 7 5 5 5 6 5
3 2 4 4 2 7 7 4 3 1 2 3 2 2 2 2 1 3 8 11 15 21 26 30 34 37 36 33 31 28 24 24 24 23 22 23 22 20 17 16 13 11 10 11 11 11 11 9 7 7 7 7 5 4
4 4 4 6 3 3 4 3 3 2 2 2 2 2 1 1 2 5 10 15 18 22 26 28 29 32 31 28 24 21 23 25 24 22 21 19 17 17 16 14 12 12 13 13 13 12 10 9 9 9 7 6 4 3

GFSWCAN_850_spd_117.txt.gz
Wind_Speed
27 26 30 27 26 23 22 20 19 16 15 13 12 11 12 14 13 11 8 10 10 4 8 10 8 7 6 3 2 2 2 2 2 1 2 3 2 3 1 3 4 5 4 3 1 1 6 13 7 6 5 8 13 13
31 29 32 30 29 26 24 23 21 17 17 15 13 12 13 15 13 11 9 9 13 13 6 8 10 12 13 13 3 4 2 3 5 2 0 2 1 2 3 3 1 2 6 3 8 5 5 22 5 10 12 11 10 13
35 32 35 33 32 30 26 26 23 20 18 18 14 13 14 16 14 11 6 6 14 11 14 18 15 13 14 14 15 4 3 3 3 3 4 2 3 3 3 5 3 3 6 3 2 3 8 18 12 12 11 10 12 13
38 36 38 36 35 33 29 29 27 24 21 19 16 14 14 17 16 13 12 10 13 4 4 4 8 10 9 12 14 16 11 4 5 4 3 2 2 7 3 3 4 6 7 5 6 9 7 14 24 19 15 11 11 9
41 39 39 39 38 37 33 31 30 27 24 20 18 15 15 18 16 11 15 10 15 10 5 5 11 14 12 11 12 14 15 9 4 3 1 3 4 2 2 1 4 10 7 5 7 13 8 5 19 22 20 15 11 9
44 42 41 41 40 40 37 34 32 30 27 21 18 16 17 17 16 13 7 18 13 15 4 2 4 9 9 10 11 13 12 9 5 4 5 5 4 4 2 4 11 22 22 27 7 12 16 8 13 19 17 13 11 9
48 46 44 44 44 43 40 37 35 34 29 22 19 18 19 18 19 14 4 5 20 21 3 4 4 4 8 10 9 9 12 8 8 4 5 4 5 7 2 5 6 18 26 30 25 17 11 17 12 18 15 13 11 9
52 49 46 46 45 45 43 40 37 36 32 25 21 19 19 17 17 23 14 7 15 21 6 3 3 2 11 7 8 10 7 9 9 6 4 4 3 5 6 11 29 27 20 24 31 26 19 18 16 18 16 14 13 11
52 52 48 47 46 46 44 41 39 37 34 25 21 20 19 19 14 19 24 20 12 13 6 6 5 4 12 4 4 9 7 1 5 3 5 7 4 7 9 20 26 26 22 19 29 27 21 19 21 20 19 18 16 15
52 53 50 49 48 45 44 42 41 43 34 29 29 16 8 13 11 9 8 4 11 11 10 4 8 3 10 6 3 4 4 3 2 5 6 4 5 23 31 38 41 27 29 24 29 24 25 24 26 25 23 19 17 16
52 52 50 49 48 45 44 44 48 46 38 37 15 10 14 21 13 7 7 8 8 4 11 13 19 6 13 4 3 8 3 1 0 4 4 3 4 7 28 36 38 40 30 34 31 28 31 31 29 25 22 20 18 17
52 51 51 48 46 45 47 50 56 53 42 33 20 26 25 8 6 5 5 6 6 7 10 10 16 19 13 9 5 7 4 2 7 5 1 4 6 23 19 18 18 24 32 33 31 26 26 26 24 22 21 22 20 15
52 51 50 47 44 45 53 57 61 52 41 34 12 11 10 9 7 8 10 6 6 8 14 17 5 15 8 8 4 3 6 7 6 2 5 6 14 22 18 13 13 19 27 30 29 24 22 24 22 22 22 21 18 16
48 47 47 45 43 49 58 62 57 54 45 8 10 8 7 7 9 7 5 6 9 14 25 26 9 8 8 5 4 5 5 4 3 4 7 4 18 24 18 16 16 24 29 29 29 25 25 25 23 21 21 20 18 16
42 43 45 43 44 57 63 68 59 56 17 9 9 8 11 9 7 15 21 17 19 23 29 15 5 6 2 3 4 3 1 7 8 6 5 23 27 19 18 19 23 27 30 31 31 29 27 25 23 21 19 15 14 13
35 34 43 45 55 61 66 62 55 35 13 10 10 5 6 10 4 11 21 19 24 29 24 8 4 4 4 4 5 9 6 8 4 4 12 8 9 11 13 19 24 28 32 33 31 30 27 25 22 18 17 15 13 12
32 29 48 53 63 68 65 50 26 11 12 8 5 19 11 16 17 17 23 24 28 27 4 3 7 10 2 5 6 5 6 4 9 13 12 11 11 11 11 17 24 30 33 33 30 27 24 21 19 19 18 16 14 12
37 40 52 67 67 60 49 20 16 13 10 10 6 13 27 14 24 28 28 24 22 18 11 6 7 5 7 6 4 4 13 17 22 22 24 18 15 13 15 19 26 30 33 32 29 26 24 23 21 17 15 14 12 11
41 48 67 65 66 40 14 13 12 6 8 8 12 24 24 22 21 26 32 35 32 26 11 7 5 4 3 4 4 15 24 27 28 35 32 22 18 18 19 23 27 32 32 32 28 26 24 19 15 15 14 13 11 10
41 62 64 66 59 16 8 6 20 6 4 9 14 24 24 23 28 27 30 33 32 12 4 4 4 8 10 19 19 25 27 22 28 22 20 22 22 22 23 26 32 32 32 29 24 20 20 19 17 15 13 11 10 10
48 55 61 55 26 7 6 10 8 9 11 6 14 21 6 16 16 21 22 30 17 7 5 23 33 36 33 27 29 35 28 26 28 27 23 27 26 26 28 31 31 33 32 28 26 23 20 17 15 14 11 10 9 9
39 49 41 32 9 5 5 7 12 11 7 13 16 11 5 3 6 14 18 13 7 19 26 33 33 35 38 40 39 30 27 19 19 22 23 25 33 34 35 36 35 34 31 29 25 22 20 18 15 13 11 10 9 8
45 33 27 7 6 4 5 20 5 6 4 8 12 4 2 3 12 19 5 11 18 33 36 37 35 38 35 35 34 30 29 33 24 22 20 23 29 32 36 39 35 33 31 26 22 19 18 16 14 12 11 10 8 8
35 9 6 6 6 4 10 4 6 6 5 4 4 4 3 3 16 4 5 6 28 30 37 42 39 36 34 29 25 21 19 22 22 21 23 27 31 33 36 35 33 30 27 24 22 20 17 15 12 11 9 8 7 7
8 5 8 4 6 5 4 5 3 3 4 4 4 2 3 8 3 4 4 6 30 39 42 42 45 41 37 33 32 25 22 27 23 26 27 30 36 38 36 32 29 26 24 24 23 20 17 14 13 10 9 8 7 7
4 1 3 4 3 5 5 6 6 6 4 3 5 4 5 3 3 7 4 12 28 32 41 42 40 36 37 36 39 32 27 27 22 26 30 34 39 40 38 35 32 28 24 20 17 18 17 16 13 11 9 8 7 7
4 3 3 3 9 10 4 4 4 4 4 6 5 4 4 5 7 5 5 9 12 18 29 35 38 38 33 29 36 33 30 27 26 29 31 32 32 29 28 28 27 22 22 20 18 17 15 14 13 11 9 7 6 4
4 6 7 4 4 4 5 4 5 7 5 6 7 6 8 8 5 3 4 5 8 10 14 21 28 30 33 30 35 35 32 29 26 28 30 27 26 25 21 19 19 18 20 19 18 17 14 12 10 9 7 6 5 4
2 9 9 3 2 2 3 4 5 5 9 12 5 4 4 5 4 4 5 6 7 9 14 20 23 25 25 29 29 30 33 33 36 37 35 32 28 25 25 23 22 23 23 22 19 15 13 11 9 8 9 8 6 4
3 6 4 2 3 2 1 1 4 8 8 8 4 3 3 4 5 7 6 7 10 13 15 21 28 29 32 32 34 34 36 37 34 36 36 33 30 28 27 25 25 24 22 19 18 18 15 13 12 12 10 8 8 7
11 5 4 3 2 1 4 8 9 9 7 4 4 2 1 3 4 5 6 8 11 14 16 20 27 31 35 37 40 42 39 34 30 26 19 19 20 26 28 27 25 22 19 16 15 14 15 16 14 13 11 11 10 9
3 3 4 3 1 8 9 3 3 3 2 2 1 1 1 2 4 3 7 11 14 16 17 21 26 30 34 36 39 36 34 31 25 20 17 21 27 29 28 26 22 20 18 17 16 17 16 15 14 14 13 12 10 8
4 4 5 5 3 1 4 4 2 2 2 2 1 3 3 2 4 6 8 12 14 16 18 21 26 31 35 38 36 35 30 24 21 21 23 24 27 27 25 23 21 19 18 18 19 18 17 15 15 15 14 11 9 6